Darstellungsparameter: Aktuell verwendete Einstellungen:
Skalierung der Graphiken ... ?
xyx+y,   Skalierungsfaktor:      Skalierung: Modus: x, Faktor: 1
Darstellungszeitraum ... ?
Vom - - bis: - -   Zeitraum: 02.01.2019 - 15.01.2019
Min/Max/Avg-Anzeige ... ?
Zeige MMA aktuell
Zeige MMA Monat
Zeige MMA alles
Zeige --A aktuell
Zeige --A Monat
Zeige --A alles
Keine MMA-Anzeige
MMA:
Minimum Maximum Average (ber die Originaldaten)
MMA-Basis: 02.01.2019 - 15.01.2019
Quicknavigation für Darstellung... ?
Tage:      1T, 2T, 3T, 5T -1T -2T -3T -5T +1T +2T +3T +5T
Wochen: 1W, 2W, 3W -1W -2W -3W +1W +2W +3W
Monate: 1M, 3M, 6M -1M -3M -6M +1M +3M +6M
Jahre:    1J, 3J, 5J, 10J -1J -3J -5J -10J +1J +3J +5J +10J
Nutze für die Darstellung ... ?
Originaldaten oder Mittelwerte auf ...
Stundenbasis Tagesbasis Wochenbasis
Monatsbasis Jahresbasis      Datenbasis: Original-Daten
Darstellen als:
Statistik (Auto) Statistik J:M      Darstellung:
Zur Graphik,    zurück zur Übersicht aller Sensoren.
 
Tabellarische Datenbersicht: ?
 
Sensor: Nr:Datum:Temp:Feuchte:Taupunkt:
Aussen-T/F 1 02-01-2019 00:00:00 4.8 C 87 % 2.82 C
2 02-01-2019 00:05:00 4.9 C 87 % 2.92 C
3 02-01-2019 00:10:00 4.9 C 87 % 2.92 C
4 02-01-2019 00:15:00 5.1 C 86 % 2.96 C
5 02-01-2019 00:20:00 5 C 87 % 3.02 C
6 02-01-2019 00:25:00 5 C 86 % 2.86 C
7 02-01-2019 00:30:00 5 C 86 % 2.86 C
8 02-01-2019 00:35:00 5 C 85 % 2.69 C
9 02-01-2019 00:40:00 5.1 C 85 % 2.79 C
10 02-01-2019 00:45:00 5 C 85 % 2.69 C
11 02-01-2019 00:50:00 5.1 C 85 % 2.79 C
12 02-01-2019 00:55:00 5.1 C 84 % 2.63 C
13 02-01-2019 01:00:00 5.2 C 84 % 2.72 C
14 02-01-2019 01:05:00 5.2 C 83 % 2.56 C
15 02-01-2019 01:10:00 5.3 C 82 % 2.48 C
16 02-01-2019 01:15:00 5.3 C 81 % 2.31 C
17 02-01-2019 01:20:00 5.3 C 82 % 2.48 C
18 02-01-2019 01:25:00 5.3 C 82 % 2.48 C
19 02-01-2019 01:30:00 5.3 C 82 % 2.48 C
20 02-01-2019 01:35:00 5.2 C 81 % 2.21 C
21 02-01-2019 01:40:00 5.2 C 81 % 2.21 C
22 02-01-2019 01:45:00 5.1 C 81 % 2.12 C
23 02-01-2019 01:50:00 5.1 C 81 % 2.12 C
24 02-01-2019 01:55:00 5.1 C 81 % 2.12 C
25 02-01-2019 02:00:00 5 C 81 % 2.02 C
Sensor: Nr:Datum:Temp:Feuchte:Taupunkt:
Aussen-T/F 26 02-01-2019 02:05:00 5 C 80 % 1.84 C
27 02-01-2019 02:10:00 4.9 C 80 % 1.75 C
28 02-01-2019 02:15:00 4.9 C 80 % 1.75 C
29 02-01-2019 02:20:00 4.9 C 80 % 1.75 C
30 02-01-2019 02:25:00 4.8 C 79 % 1.47 C
31 02-01-2019 02:30:00 4.8 C 79 % 1.47 C
32 02-01-2019 02:35:00 4.8 C 79 % 1.47 C
33 02-01-2019 02:40:00 4.8 C 78 % 1.3 C
34 02-01-2019 02:45:00 4.8 C 79 % 1.47 C
35 02-01-2019 02:50:00 4.8 C 78 % 1.3 C
36 02-01-2019 02:55:00 4.8 C 79 % 1.47 C
37 02-01-2019 03:00:00 4.7 C 79 % 1.38 C
38 02-01-2019 03:05:00 4.7 C 79 % 1.38 C
39 02-01-2019 03:10:00 4.7 C 79 % 1.38 C
40 02-01-2019 03:15:00 4.7 C 79 % 1.38 C
41 02-01-2019 03:20:00 4.7 C 79 % 1.38 C
42 02-01-2019 03:25:00 4.6 C 79 % 1.28 C
43 02-01-2019 03:30:00 4.6 C 79 % 1.28 C
44 02-01-2019 03:35:00 4.5 C 79 % 1.18 C
45 02-01-2019 03:40:00 4.6 C 79 % 1.28 C
46 02-01-2019 03:45:00 4.6 C 78 % 1.1 C
47 02-01-2019 03:50:00 4.5 C 79 % 1.18 C
48 02-01-2019 03:55:00 4.4 C 79 % 1.09 C
49 02-01-2019 04:00:00 4.3 C 79 % 0.99 C
50 02-01-2019 04:05:00 4.2 C 79 % 0.89 C
Sensor: Nr:Datum:Temp:Feuchte:Taupunkt:
Aussen-T/F 51 02-01-2019 04:10:00 4.2 C 79 % 0.89 C
52 02-01-2019 04:15:00 4.2 C 79 % 0.89 C
53 02-01-2019 04:20:00 4.2 C 78 % 0.71 C
54 02-01-2019 04:25:00 4.3 C 78 % 0.81 C
55 02-01-2019 04:30:00 4.3 C 78 % 0.81 C
56 02-01-2019 04:35:00 4.2 C 78 % 0.71 C
57 02-01-2019 04:40:00 4.2 C 78 % 0.71 C
58 02-01-2019 04:45:00 4.2 C 78 % 0.71 C
59 02-01-2019 04:50:00 4.1 C 78 % 0.62 C
60 02-01-2019 04:55:00 4.1 C 78 % 0.62 C
61 02-01-2019 05:00:00 4.1 C 79 % 0.79 C
62 02-01-2019 05:05:00 4.2 C 79 % 0.89 C
63 02-01-2019 05:10:00 4.3 C 78 % 0.81 C
64 02-01-2019 05:15:00 4.3 C 79 % 0.99 C
65 02-01-2019 05:20:00 4.2 C 79 % 0.89 C
66 02-01-2019 05:25:00 4.2 C 79 % 0.89 C
67 02-01-2019 05:30:00 4.2 C 79 % 0.89 C
68 02-01-2019 05:35:00 4.2 C 79 % 0.89 C
69 02-01-2019 05:40:00 4.3 C 80 % 1.16 C
70 02-01-2019 05:45:00 4.3 C 80 % 1.16 C
71 02-01-2019 05:50:00 4.3 C 79 % 0.99 C
72 02-01-2019 05:55:00 4.3 C 80 % 1.16 C
73 02-01-2019 06:00:00 4.3 C 81 % 1.34 C
74 02-01-2019 06:05:00 4.2 C 81 % 1.24 C
75 02-01-2019 06:10:00 4.2 C 81 % 1.24 C
Sensor: Nr:Datum:Temp:Feuchte:Taupunkt:
Aussen-T/F 76 02-01-2019 06:15:00 4.2 C 81 % 1.24 C
77 02-01-2019 06:20:00 4.3 C 81 % 1.34 C
78 02-01-2019 06:25:00 4.3 C 81 % 1.34 C
79 02-01-2019 06:30:00 4.4 C 81 % 1.43 C
80 02-01-2019 06:35:00 4.4 C 81 % 1.43 C
81 02-01-2019 06:40:00 4.4 C 81 % 1.43 C
82 02-01-2019 06:45:00 4.4 C 81 % 1.43 C
83 02-01-2019 06:50:00 4.5 C 81 % 1.53 C
84 02-01-2019 06:55:00 4.6 C 81 % 1.63 C
85 02-01-2019 07:00:00 4.6 C 81 % 1.63 C
86 02-01-2019 07:05:00 4.6 C 81 % 1.63 C
87 02-01-2019 07:10:00 4.7 C 80 % 1.55 C
88 02-01-2019 07:15:00 4.7 C 80 % 1.55 C
89 02-01-2019 07:20:00 4.8 C 80 % 1.65 C
90 02-01-2019 07:25:00 4.8 C 80 % 1.65 C
91 02-01-2019 07:30:00 4.8 C 80 % 1.65 C
92 02-01-2019 07:35:00 4.8 C 80 % 1.65 C
93 02-01-2019 07:40:00 4.8 C 81 % 1.82 C
94 02-01-2019 07:45:00 4.8 C 80 % 1.65 C
95 02-01-2019 07:50:00 4.8 C 81 % 1.82 C
96 02-01-2019 07:55:00 4.8 C 81 % 1.82 C
97 02-01-2019 08:00:00 4.7 C 81 % 1.73 C
98 02-01-2019 08:05:00 4.7 C 81 % 1.73 C
99 02-01-2019 08:10:00 4.7 C 81 % 1.73 C
100 02-01-2019 08:15:00 4.7 C 81 % 1.73 C
Sensor: Nr:Datum:Temp:Feuchte:Taupunkt:
Aussen-T/F 101 02-01-2019 08:20:00 4.7 C 81 % 1.73 C
102 02-01-2019 08:25:00 4.8 C 80 % 1.65 C
103 02-01-2019 08:30:00 4.8 C 80 % 1.65 C
104 02-01-2019 08:35:00 4.8 C 80 % 1.65 C
105 02-01-2019 08:40:00 4.7 C 81 % 1.73 C
106 02-01-2019 08:45:00 4.7 C 81 % 1.73 C
107 02-01-2019 08:50:00 4.7 C 81 % 1.73 C
108 02-01-2019 08:55:00 4.7 C 81 % 1.73 C
109 02-01-2019 09:00:00 4.7 C 81 % 1.73 C
110 02-01-2019 09:05:00 4.6 C 82 % 1.8 C
111 02-01-2019 09:10:00 4.6 C 82 % 1.8 C
112 02-01-2019 09:15:00 4.6 C 82 % 1.8 C
113 02-01-2019 09:20:00 4.6 C 82 % 1.8 C
114 02-01-2019 09:25:00 4.7 C 82 % 1.9 C
115 02-01-2019 09:30:00 4.7 C 81 % 1.73 C
116 02-01-2019 09:35:00 4.7 C 81 % 1.73 C
117 02-01-2019 09:40:00 4.8 C 81 % 1.82 C
118 02-01-2019 09:45:00 4.8 C 82 % 1.99 C
119 02-01-2019 09:50:00 4.8 C 82 % 1.99 C
120 02-01-2019 09:55:00 4.7 C 82 % 1.9 C
121 02-01-2019 10:00:00 4.7 C 82 % 1.9 C
122 02-01-2019 10:05:00 4.7 C 83 % 2.07 C
123 02-01-2019 10:10:00 4.6 C 83 % 1.97 C
124 02-01-2019 10:15:00 4.6 C 84 % 2.14 C
125 02-01-2019 10:20:00 4.6 C 84 % 2.14 C
Sensor: Nr:Datum:Temp:Feuchte:Taupunkt:
Aussen-T/F 126 02-01-2019 10:25:00 4.5 C 85 % 2.2 C
127 02-01-2019 10:30:00 4.4 C 85 % 2.11 C
128 02-01-2019 10:35:00 4.5 C 85 % 2.2 C
129 02-01-2019 10:40:00 4.5 C 85 % 2.2 C
130 02-01-2019 10:45:00 4.5 C 85 % 2.2 C
131 02-01-2019 10:50:00 4.5 C 86 % 2.37 C
132 02-01-2019 10:55:00 4.6 C 85 % 2.3 C
133 02-01-2019 11:00:00 4.6 C 86 % 2.47 C
134 02-01-2019 11:05:00 4.7 C 85 % 2.4 C
135 02-01-2019 11:10:00 4.8 C 85 % 2.5 C
136 02-01-2019 11:15:00 4.8 C 85 % 2.5 C
137 02-01-2019 11:20:00 4.9 C 84 % 2.43 C
138 02-01-2019 11:25:00 4.9 C 84 % 2.43 C
139 02-01-2019 11:30:00 5 C 84 % 2.53 C
140 02-01-2019 11:35:00 5.1 C 84 % 2.63 C
141 02-01-2019 11:40:00 5.1 C 83 % 2.46 C
142 02-01-2019 11:45:00 5.2 C 82 % 2.39 C
143 02-01-2019 11:50:00 5.2 C 83 % 2.56 C
144 02-01-2019 11:55:00 5.2 C 82 % 2.39 C
145 02-01-2019 12:00:00 5.3 C 83 % 2.65 C
146 02-01-2019 12:05:00 5.3 C 83 % 2.65 C
147 02-01-2019 12:10:00 5.3 C 82 % 2.48 C
148 02-01-2019 12:15:00 5.3 C 82 % 2.48 C
149 02-01-2019 12:20:00 5.3 C 82 % 2.48 C
150 02-01-2019 12:25:00 5.3 C 81 % 2.31 C
Sensor: Nr:Datum:Temp:Feuchte:Taupunkt:
Aussen-T/F 151 02-01-2019 12:30:00 5.4 C 82 % 2.58 C
152 02-01-2019 12:35:00 5.4 C 82 % 2.58 C
153 02-01-2019 12:40:00 5.4 C 82 % 2.58 C
154 02-01-2019 12:45:00 5.3 C 84 % 2.82 C
155 02-01-2019 12:50:00 4.9 C 85 % 2.6 C
156 02-01-2019 12:55:00 4.7 C 87 % 2.73 C
157 02-01-2019 13:00:00 4.4 C 88 % 2.59 C
158 02-01-2019 13:05:00 4.2 C 89 % 2.55 C
159 02-01-2019 13:10:00 4.1 C 89 % 2.45 C
160 02-01-2019 13:15:00 3.9 C 89 % 2.26 C
161 02-01-2019 13:20:00 3.8 C 90 % 2.31 C
162 02-01-2019 13:25:00 3.8 C 90 % 2.31 C
163 02-01-2019 13:30:00 3.9 C 89 % 2.26 C
164 02-01-2019 13:35:00 4.2 C 87 % 2.23 C
165 02-01-2019 13:40:00 4.4 C 85 % 2.11 C
166 02-01-2019 13:45:00 4.6 C 84 % 2.14 C
167 02-01-2019 13:50:00 4.8 C 83 % 2.16 C
168 02-01-2019 13:55:00 5 C 81 % 2.02 C
169 02-01-2019 14:00:00 5.1 C 78 % 1.59 C
170 02-01-2019 14:05:00 5.2 C 76 % 1.32 C
171 02-01-2019 14:10:00 5.3 C 75 % 1.24 C
172 02-01-2019 14:15:00 5.3 C 76 % 1.42 C
173 02-01-2019 14:20:00 5.4 C 76 % 1.52 C
174 02-01-2019 14:25:00 5.4 C 76 % 1.52 C
175 02-01-2019 14:30:00 5.5 C 77 % 1.8 C
Sensor: Nr:Datum:Temp:Feuchte:Taupunkt:
Aussen-T/F 176 02-01-2019 14:35:00 5.5 C 75 % 1.43 C
177 02-01-2019 14:40:00 5.6 C 74 % 1.34 C
178 02-01-2019 14:45:00 5.6 C 75 % 1.53 C
179 02-01-2019 14:50:00 5.6 C 75 % 1.53 C
180 02-01-2019 14:55:00 5.6 C 76 % 1.71 C
181 02-01-2019 15:00:00 5.6 C 75 % 1.53 C
182 02-01-2019 15:05:00 5.6 C 75 % 1.53 C
183 02-01-2019 15:10:00 5.6 C 75 % 1.53 C
184 02-01-2019 15:15:00 5.6 C 76 % 1.71 C
185 02-01-2019 15:20:00 5.5 C 76 % 1.62 C
186 02-01-2019 15:25:00 5.4 C 75 % 1.33 C
187 02-01-2019 15:30:00 5.3 C 75 % 1.24 C
188 02-01-2019 15:35:00 5.3 C 75 % 1.24 C
189 02-01-2019 15:40:00 5.2 C 74 % 0.95 C
190 02-01-2019 15:45:00 5.2 C 75 % 1.14 C
191 02-01-2019 15:50:00 5.1 C 73 % 0.67 C
192 02-01-2019 15:55:00 5.1 C 75 % 1.04 C
193 02-01-2019 16:00:00 5.1 C 77 % 1.41 C
194 02-01-2019 16:05:00 4.9 C 78 % 1.39 C
195 02-01-2019 16:10:00 4.8 C 78 % 1.3 C
196 02-01-2019 16:15:00 4.8 C 78 % 1.3 C
197 02-01-2019 16:20:00 4.7 C 78 % 1.2 C
198 02-01-2019 16:25:00 4.7 C 78 % 1.2 C
199 02-01-2019 16:30:00 4.6 C 78 % 1.1 C
200 02-01-2019 16:35:00 4.4 C 78 % 0.91 C
Sensor: Nr:Datum:Temp:Feuchte:Taupunkt:
Aussen-T/F 201 02-01-2019 16:40:00 4.3 C 79 % 0.99 C
202 02-01-2019 16:45:00 4.2 C 79 % 0.89 C
203 02-01-2019 16:50:00 4.2 C 78 % 0.71 C
204 02-01-2019 16:55:00 4.2 C 77 % 0.54 C
205 02-01-2019 17:00:00 4.2 C 78 % 0.71 C
206 02-01-2019 17:05:00 4.1 C 78 % 0.62 C
207 02-01-2019 17:10:00 4 C 78 % 0.52 C
208 02-01-2019 17:15:00 3.8 C 79 % 0.5 C
209 02-01-2019 17:20:00 3.6 C 79 % 0.31 C
210 02-01-2019 17:25:00 3.3 C 79 % 0.02 C
211 02-01-2019 17:30:00 3.2 C 80 % 0.09 C
212 02-01-2019 17:35:00 3.1 C 80 % -0.01 C
213 02-01-2019 17:40:00 2.9 C 80 % -0.2 C
214 02-01-2019 17:45:00 2.8 C 81 % -0.13 C
215 02-01-2019 17:50:00 2.7 C 82 % -0.06 C
216 02-01-2019 17:55:00 2.4 C 82 % -0.35 C
217 02-01-2019 18:00:00 2.3 C 83 % -0.28 C
218 02-01-2019 18:05:00 2.2 C 83 % -0.38 C
219 02-01-2019 18:10:00 2.1 C 84 % -0.31 C
220 02-01-2019 18:15:00 1.9 C 85 % -0.35 C
221 02-01-2019 18:20:00 1.8 C 85 % -0.45 C
222 02-01-2019 18:25:00 1.8 C 85 % -0.45 C
223 02-01-2019 18:30:00 1.7 C 86 % -0.38 C
224 02-01-2019 18:35:00 1.6 C 86 % -0.48 C
225 02-01-2019 18:40:00 1.6 C 86 % -0.48 C
Sensor: Nr:Datum:Temp:Feuchte:Taupunkt:
Aussen-T/F 226 02-01-2019 18:45:00 1.4 C 87 % -0.52 C
227 02-01-2019 18:50:00 1.4 C 87 % -0.52 C
228 02-01-2019 18:55:00 1.3 C 87 % -0.62 C
229 02-01-2019 19:00:00 1.3 C 87 % -0.62 C
230 02-01-2019 19:05:00 1.2 C 87 % -0.72 C
231 02-01-2019 19:10:00 1.2 C 88 % -0.56 C
232 02-01-2019 19:15:00 1.2 C 88 % -0.56 C
233 02-01-2019 19:20:00 1.1 C 88 % -0.66 C
234 02-01-2019 19:25:00 1 C 88 % -0.76 C
235 02-01-2019 19:30:00 0.9 C 88 % -0.86 C
236 02-01-2019 19:35:00 0.8 C 88 % -0.96 C
237 02-01-2019 19:40:00 0.7 C 89 % -0.9 C
238 02-01-2019 19:45:00 0.7 C 89 % -0.9 C
239 02-01-2019 19:50:00 0.6 C 89 % -1 C
240 02-01-2019 19:55:00 0.6 C 89 % -1 C
241 02-01-2019 20:00:00 0.7 C 90 % -0.75 C
242 02-01-2019 20:05:00 0.7 C 90 % -0.75 C
243 02-01-2019 20:10:00 0.7 C 90 % -0.75 C
244 02-01-2019 20:15:00 0.7 C 90 % -0.75 C
245 02-01-2019 20:20:00 0.7 C 90 % -0.75 C
246 02-01-2019 20:25:00 0.7 C 90 % -0.75 C
247 02-01-2019 20:30:00 0.6 C 90 % -0.85 C
248 02-01-2019 20:35:00 0.6 C 90 % -0.85 C
249 02-01-2019 20:40:00 0.6 C 90 % -0.85 C
250 02-01-2019 20:45:00 0.6 C 90 % -0.85 C
Sensor: Nr:Datum:Temp:Feuchte:Taupunkt:
Aussen-T/F 251 02-01-2019 20:50:00 0.6 C 90 % -0.85 C
252 02-01-2019 20:55:00 0.5 C 90 % -0.95 C
253 02-01-2019 21:00:00 0.5 C 90 % -0.95 C
254 02-01-2019 21:05:00 0.4 C 90 % -1.04 C
255 02-01-2019 21:10:00 0.4 C 90 % -1.04 C
256 02-01-2019 21:15:00 0.5 C 90 % -0.95 C
257 02-01-2019 21:20:00 0.6 C 90 % -0.85 C
258 02-01-2019 21:25:00 0.6 C 91 % -0.7 C
259 02-01-2019 21:30:00 0.7 C 91 % -0.6 C
260 02-01-2019 21:35:00 0.7 C 91 % -0.6 C
261 02-01-2019 21:40:00 0.7 C 91 % -0.6 C
262 02-01-2019 21:45:00 0.7 C 90 % -0.75 C
263 02-01-2019 21:50:00 0.7 C 90 % -0.75 C
264 02-01-2019 21:55:00 0.7 C 90 % -0.75 C
265 02-01-2019 22:00:00 0.7 C 90 % -0.75 C
266 02-01-2019 22:05:00 0.6 C 90 % -0.85 C
267 02-01-2019 22:10:00 0.6 C 90 % -0.85 C
268 02-01-2019 22:15:00 0.7 C 90 % -0.75 C
269 02-01-2019 22:20:00 0.7 C 90 % -0.75 C
270 02-01-2019 22:25:00 0.8 C 90 % -0.65 C
271 02-01-2019 22:30:00 0.8 C 89 % -0.8 C
272 02-01-2019 22:35:00 0.7 C 89 % -0.9 C
273 02-01-2019 22:40:00 0.7 C 89 % -0.9 C
274 02-01-2019 22:45:00 0.6 C 89 % -1 C
275 02-01-2019 22:50:00 0.6 C 89 % -1 C
Sensor: Nr:Datum:Temp:Feuchte:Taupunkt:
Aussen-T/F 276 02-01-2019 22:55:00 0.6 C 90 % -0.85 C
277 02-01-2019 23:00:00 0.4 C 89 % -1.2 C
278 02-01-2019 23:05:00 0.4 C 89 % -1.2 C
279 02-01-2019 23:10:00 0.2 C 89 % -1.39 C
280 02-01-2019 23:15:00 0.1 C 89 % -1.49 C
281 02-01-2019 23:20:00 -0.1 C 89 % -1.69 C
282 02-01-2019 23:25:00 -0.1 C 90 % -1.54 C
283 02-01-2019 23:30:00 -0.2 C 90 % -1.64 C
284 02-01-2019 23:35:00 -0.3 C 90 % -1.74 C
285 02-01-2019 23:40:00 -0.4 C 90 % -1.84 C
286 02-01-2019 23:45:00 -0.6 C 90 % -2.03 C
287 02-01-2019 23:50:00 -0.7 C 91 % -1.98 C
288 02-01-2019 23:55:00 -0.8 C 91 % -2.08 C
289 03-01-2019 00:00:00 -0.9 C 91 % -2.18 C
290 03-01-2019 00:05:00 -0.9 C 91 % -2.18 C
291 03-01-2019 00:10:00 -1 C 92 % -2.13 C
292 03-01-2019 00:15:00 -1.1 C 92 % -2.23 C
293 03-01-2019 00:20:00 -1.2 C 92 % -2.33 C
294 03-01-2019 00:25:00 -1.2 C 92 % -2.33 C
295 03-01-2019 00:30:00 -1.2 C 92 % -2.33 C
296 03-01-2019 00:35:00 -1.3 C 92 % -2.43 C
297 03-01-2019 00:40:00 -1.3 C 92 % -2.43 C
298 03-01-2019 00:45:00 -1.3 C 93 % -2.28 C
299 03-01-2019 00:50:00 -1.3 C 93 % -2.28 C
300 03-01-2019 00:55:00 -1.4 C 93 % -2.38 C
Sensor: Nr:Datum:Temp:Feuchte:Taupunkt:
Aussen-T/F 301 03-01-2019 01:00:00 -1.4 C 93 % -2.38 C
302 03-01-2019 01:05:00 -1.4 C 93 % -2.38 C
303 03-01-2019 01:10:00 -1.4 C 93 % -2.38 C
304 03-01-2019 01:15:00 -1.4 C 93 % -2.38 C
305 03-01-2019 01:20:00 -1.5 C 93 % -2.48 C
306 03-01-2019 01:25:00 -1.6 C 93 % -2.58 C
307 03-01-2019 01:30:00 -1.6 C 93 % -2.58 C
308 03-01-2019 01:35:00 -1.7 C 93 % -2.68 C
309 03-01-2019 01:40:00 -1.7 C 93 % -2.68 C
310 03-01-2019 01:45:00 -1.7 C 93 % -2.68 C
311 03-01-2019 01:50:00 -1.7 C 94 % -2.54 C
312 03-01-2019 01:55:00 -1.7 C 94 % -2.54 C
313 03-01-2019 02:00:00 -1.6 C 94 % -2.44 C
314 03-01-2019 02:05:00 -1.6 C 94 % -2.44 C
315 03-01-2019 02:10:00 -1.6 C 94 % -2.44 C
316 03-01-2019 02:15:00 -1.6 C 94 % -2.44 C
317 03-01-2019 02:20:00 -1.6 C 94 % -2.44 C
318 03-01-2019 02:25:00 -1.6 C 94 % -2.44 C
319 03-01-2019 02:30:00 -1.6 C 94 % -2.44 C
320 03-01-2019 02:35:00 -1.6 C 94 % -2.44 C
321 03-01-2019 02:40:00 -1.6 C 94 % -2.44 C
322 03-01-2019 02:45:00 -1.4 C 95 % -2.1 C
323 03-01-2019 02:50:00 -1.3 C 95 % -2 C
324 03-01-2019 02:55:00 -1.2 C 95 % -1.9 C
325 03-01-2019 03:00:00 -1.1 C 95 % -1.8 C
Sensor: Nr:Datum:Temp:Feuchte:Taupunkt:
Aussen-T/F 326 03-01-2019 03:05:00 -0.9 C 95 % -1.6 C
327 03-01-2019 03:10:00 -0.8 C 95 % -1.5 C
328 03-01-2019 03:15:00 -0.8 C 95 % -1.5 C
329 03-01-2019 03:20:00 -0.7 C 95 % -1.4 C
330 03-01-2019 03:25:00 -0.6 C 95 % -1.3 C
331 03-01-2019 03:30:00 -0.6 C 95 % -1.3 C
332 03-01-2019 03:35:00 -0.5 C 95 % -1.2 C
333 03-01-2019 03:40:00 -0.5 C 95 % -1.2 C
334 03-01-2019 03:45:00 -0.4 C 95 % -1.1 C
335 03-01-2019 03:50:00 -0.4 C 94 % -1.25 C
336 03-01-2019 03:55:00 -0.4 C 94 % -1.25 C
337 03-01-2019 04:00:00 -0.4 C 95 % -1.1 C
338 03-01-2019 04:05:00 -0.4 C 95 % -1.1 C
339 03-01-2019 04:10:00 -0.3 C 94 % -1.15 C
340 03-01-2019 04:15:00 -0.3 C 94 % -1.15 C
341 03-01-2019 04:20:00 -0.3 C 94 % -1.15 C
342 03-01-2019 04:25:00 -0.3 C 94 % -1.15 C
343 03-01-2019 04:30:00 -0.2 C 94 % -1.05 C
344 03-01-2019 04:35:00 -0.2 C 94 % -1.05 C
345 03-01-2019 04:40:00 -0.2 C 94 % -1.05 C
346 03-01-2019 04:45:00 -0.1 C 94 % -0.95 C
347 03-01-2019 04:50:00 -0.1 C 94 % -0.95 C
348 03-01-2019 04:55:00 -0.1 C 94 % -0.95 C
349 03-01-2019 05:00:00 -0.1 C 94 % -0.95 C
350 03-01-2019 05:05:00 -0.1 C 94 % -0.95 C
Sensor: Nr:Datum:Temp:Feuchte:Taupunkt:
Aussen-T/F 351 03-01-2019 05:10:00 0 C 94 % -0.85 C
352 03-01-2019 05:15:00 0.1 C 94 % -0.75 C
353 03-01-2019 05:20:00 0.1 C 94 % -0.75 C
354 03-01-2019 05:25:00 0.2 C 94 % -0.65 C
355 03-01-2019 05:30:00 0.2 C 94 % -0.65 C
356 03-01-2019 05:35:00 0.3 C 94 % -0.55 C
357 03-01-2019 05:40:00 0.3 C 94 % -0.55 C
358 03-01-2019 05:45:00 0.3 C 94 % -0.55 C
359 03-01-2019 05:50:00 0.4 C 94 % -0.45 C
360 03-01-2019 05:55:00 0.4 C 94 % -0.45 C
361 03-01-2019 06:00:00 0.4 C 93 % -0.6 C
362 03-01-2019 06:05:00 0.4 C 93 % -0.6 C
363 03-01-2019 06:10:00 0.5 C 93 % -0.5 C
364 03-01-2019 06:15:00 0.5 C 93 % -0.5 C
365 03-01-2019 06:20:00 0.6 C 93 % -0.4 C
366 03-01-2019 06:25:00 0.6 C 93 % -0.4 C
367 03-01-2019 06:30:00 0.6 C 93 % -0.4 C
368 03-01-2019 06:35:00 0.6 C 93 % -0.4 C
369 03-01-2019 06:40:00 0.7 C 93 % -0.3 C
370 03-01-2019 06:45:00 0.7 C 93 % -0.3 C
371 03-01-2019 06:50:00 0.7 C 93 % -0.3 C
372 03-01-2019 06:55:00 0.7 C 93 % -0.3 C
373 03-01-2019 07:00:00 0.8 C 93 % -0.2 C
374 03-01-2019 07:05:00 0.8 C 93 % -0.2 C
375 03-01-2019 07:10:00 0.8 C 93 % -0.2 C
Sensor: Nr:Datum:Temp:Feuchte:Taupunkt:
Aussen-T/F 376 03-01-2019 07:15:00 0.8 C 93 % -0.2 C
377 03-01-2019 07:20:00 0.8 C 93 % -0.2 C
378 03-01-2019 07:25:00 0.8 C 93 % -0.2 C
379 03-01-2019 07:30:00 0.8 C 93 % -0.2 C
380 03-01-2019 07:35:00 0.8 C 93 % -0.2 C
381 03-01-2019 07:40:00 0.8 C 93 % -0.2 C
382 03-01-2019 07:45:00 0.8 C 93 % -0.2 C
383 03-01-2019 07:50:00 0.8 C 93 % -0.2 C
384 03-01-2019 07:55:00 0.9 C 94 % 0.05 C
385 03-01-2019 08:00:00 0.8 C 94 % -0.05 C
386 03-01-2019 08:05:00 0.8 C 93 % -0.2 C
387 03-01-2019 08:10:00 0.8 C 93 % -0.2 C
388 03-01-2019 08:15:00 0.8 C 94 % -0.05 C
389 03-01-2019 08:20:00 0.8 C 94 % -0.05 C
390 03-01-2019 08:25:00 0.8 C 94 % -0.05 C
391 03-01-2019 08:30:00 0.8 C 94 % -0.05 C
392 03-01-2019 08:35:00 0.8 C 94 % -0.05 C
393 03-01-2019 08:40:00 0.8 C 94 % -0.05 C
394 03-01-2019 08:45:00 0.9 C 94 % 0.05 C
395 03-01-2019 08:50:00 0.9 C 94 % 0.05 C
396 03-01-2019 08:55:00 0.9 C 94 % 0.05 C
397 03-01-2019 09:00:00 0.9 C 94 % 0.05 C
398 03-01-2019 09:05:00 0.9 C 94 % 0.05 C
399 03-01-2019 09:10:00 0.9 C 94 % 0.05 C
400 03-01-2019 09:15:00 0.9 C 95 % 0.19 C
Sensor: Nr:Datum:Temp:Feuchte:Taupunkt:
Aussen-T/F 401 03-01-2019 09:20:00 0.9 C 95 % 0.19 C
402 03-01-2019 09:25:00 1 C 95 % 0.29 C
403 03-01-2019 09:30:00 1.1 C 95 % 0.39 C
404 03-01-2019 09:35:00 1.1 C 95 % 0.39 C
405 03-01-2019 09:40:00 1.1 C 95 % 0.39 C
406 03-01-2019 09:45:00 1.1 C 95 % 0.39 C
407 03-01-2019 09:50:00 1.2 C 95 % 0.49 C
408 03-01-2019 09:55:00 1.2 C 95 % 0.49 C
409 03-01-2019 10:00:00 1.2 C 95 % 0.49 C
410 03-01-2019 10:05:00 1.2 C 95 % 0.49 C
411 03-01-2019 10:10:00 1.3 C 95 % 0.59 C
412 03-01-2019 10:15:00 1.3 C 95 % 0.59 C
413 03-01-2019 10:20:00 1.3 C 95 % 0.59 C
414 03-01-2019 10:25:00 1.3 C 95 % 0.59 C
415 03-01-2019 10:30:00 1.4 C 95 % 0.69 C
416 03-01-2019 10:35:00 1.4 C 95 % 0.69 C
417 03-01-2019 10:40:00 1.5 C 95 % 0.79 C
418 03-01-2019 10:45:00 1.6 C 95 % 0.89 C
419 03-01-2019 10:50:00 1.6 C 95 % 0.89 C
420 03-01-2019 10:55:00 1.7 C 95 % 0.99 C
421 03-01-2019 11:00:00 1.7 C 95 % 0.99 C
422 03-01-2019 11:05:00 1.7 C 95 % 0.99 C
423 03-01-2019 11:10:00 1.7 C 95 % 0.99 C
424 03-01-2019 11:15:00 1.8 C 95 % 1.09 C
425 03-01-2019 11:20:00 1.8 C 95 % 1.09 C
Sensor: Nr:Datum:Temp:Feuchte:Taupunkt:
Aussen-T/F 426 03-01-2019 11:25:00 1.8 C 95 % 1.09 C
427 03-01-2019 11:30:00 1.9 C 95 % 1.19 C
428 03-01-2019 11:35:00 1.9 C 95 % 1.19 C
429 03-01-2019 11:40:00 1.9 C 95 % 1.19 C
430 03-01-2019 11:45:00 2 C 95 % 1.29 C
431 03-01-2019 11:50:00 2 C 95 % 1.29 C
432 03-01-2019 11:55:00 2.1 C 95 % 1.38 C
433 03-01-2019 12:00:00 2.1 C 95 % 1.38 C
434 03-01-2019 12:05:00 2.2 C 95 % 1.48 C
435 03-01-2019 12:10:00 2.2 C 96 % 1.63 C
436 03-01-2019 12:15:00 2.4 C 96 % 1.83 C
437 03-01-2019 12:20:00 2.6 C 96 % 2.03 C
438 03-01-2019 12:25:00 2.7 C 96 % 2.13 C
439 03-01-2019 12:30:00 2.8 C 96 % 2.23 C
440 03-01-2019 12:35:00 2.9 C 96 % 2.33 C
441 03-01-2019 12:40:00 2.9 C 96 % 2.33 C
442 03-01-2019 12:45:00 3 C 95 % 2.28 C
443 03-01-2019 12:50:00 3.1 C 96 % 2.53 C
444 03-01-2019 12:55:00 3.1 C 95 % 2.38 C
445 03-01-2019 13:00:00 3.2 C 95 % 2.48 C
446 03-01-2019 13:05:00 3.2 C 95 % 2.48 C
447 03-01-2019 13:10:00 3.3 C 95 % 2.58 C
448 03-01-2019 13:15:00 3.3 C 95 % 2.58 C
449 03-01-2019 13:20:00 3.4 C 94 % 2.53 C
450 03-01-2019 13:25:00 3.4 C 94 % 2.53 C
Sensor: Nr:Datum:Temp:Feuchte:Taupunkt:
Aussen-T/F 451 03-01-2019 13:30:00 3.5 C 94 % 2.63 C
452 03-01-2019 13:35:00 3.5 C 94 % 2.63 C
453 03-01-2019 13:40:00 3.6 C 94 % 2.73 C
454 03-01-2019 13:45:00 3.6 C 94 % 2.73 C
455 03-01-2019 13:50:00 3.7 C 94 % 2.83 C
456 03-01-2019 13:55:00 3.7 C 94 % 2.83 C
457 03-01-2019 14:00:00 3.8 C 93 % 2.77 C
458 03-01-2019 14:05:00 3.8 C 94 % 2.93 C
459 03-01-2019 14:10:00 3.9 C 94 % 3.02 C
460 03-01-2019 14:15:00 3.9 C 93 % 2.87 C
461 03-01-2019 14:20:00 3.9 C 93 % 2.87 C
462 03-01-2019 14:25:00 3.9 C 93 % 2.87 C
463 03-01-2019 14:30:00 3.9 C 93 % 2.87 C
464 03-01-2019 14:35:00 4 C 93 % 2.97 C
465 03-01-2019 14:40:00 4 C 93 % 2.97 C
466 03-01-2019 14:45:00 4.1 C 92 % 2.92 C
467 03-01-2019 14:50:00 4.1 C 92 % 2.92 C
468 03-01-2019 14:55:00 4.1 C 92 % 2.92 C
469 03-01-2019 15:00:00 4.2 C 92 % 3.02 C
470 03-01-2019 15:05:00 4.2 C 92 % 3.02 C
471 03-01-2019 15:10:00 4.3 C 92 % 3.12 C
472 03-01-2019 15:15:00 4.3 C 91 % 2.96 C
473 03-01-2019 15:20:00 4.3 C 91 % 2.96 C
474 03-01-2019 15:25:00 4.4 C 91 % 3.06 C
475 03-01-2019 15:30:00 4.4 C 91 % 3.06 C
Sensor: Nr:Datum:Temp:Feuchte:Taupunkt:
Aussen-T/F 476 03-01-2019 15:35:00 4.4 C 90 % 2.91 C
477 03-01-2019 15:40:00 4.5 C 90 % 3.01 C
478 03-01-2019 15:45:00 4.6 C 90 % 3.1 C
479 03-01-2019 15:50:00 4.6 C 90 % 3.1 C
480 03-01-2019 15:55:00 4.6 C 90 % 3.1 C
481 03-01-2019 16:00:00 4.5 C 89 % 2.85 C
482 03-01-2019 16:05:00 4.4 C 89 % 2.75 C
483 03-01-2019 16:10:00 4.4 C 89 % 2.75 C
484 03-01-2019 16:15:00 4.4 C 90 % 2.91 C
485 03-01-2019 16:20:00 4.3 C 90 % 2.81 C
486 03-01-2019 16:25:00 4.3 C 90 % 2.81 C
487 03-01-2019 16:30:00 4.3 C 90 % 2.81 C
488 03-01-2019 16:35:00 4.3 C 90 % 2.81 C
489 03-01-2019 16:40:00 4.3 C 90 % 2.81 C
490 03-01-2019 16:45:00 4.2 C 90 % 2.71 C
491 03-01-2019 16:50:00 4.2 C 90 % 2.71 C
492 03-01-2019 16:55:00 4.2 C 90 % 2.71 C
493 03-01-2019 17:00:00 4.2 C 90 % 2.71 C
494 03-01-2019 17:05:00 4.2 C 90 % 2.71 C
495 03-01-2019 17:10:00 4.2 C 91 % 2.87 C
496 03-01-2019 17:15:00 4.2 C 91 % 2.87 C
497 03-01-2019 17:20:00 4.2 C 91 % 2.87 C
498 03-01-2019 17:25:00 4.2 C 91 % 2.87 C
499 03-01-2019 17:30:00 4.2 C 91 % 2.87 C
500 03-01-2019 17:35:00 4.1 C 90 % 2.61 C
Sensor: Nr:Datum:Temp:Feuchte:Taupunkt:
Aussen-T/F 501 03-01-2019 17:40:00 4.1 C 90 % 2.61 C
502 03-01-2019 17:45:00 4 C 91 % 2.67 C
503 03-01-2019 17:50:00 4 C 91 % 2.67 C
504 03-01-2019 17:55:00 4 C 91 % 2.67 C
505 03-01-2019 18:00:00 4 C 91 % 2.67 C
506 03-01-2019 18:05:00 3.9 C 91 % 2.57 C
507 03-01-2019 18:10:00 3.9 C 91 % 2.57 C
508 03-01-2019 18:15:00 3.9 C 91 % 2.57 C
509 03-01-2019 18:20:00 3.9 C 91 % 2.57 C
510 03-01-2019 18:25:00 3.9 C 91 % 2.57 C
511 03-01-2019 18:30:00 3.9 C 91 % 2.57 C
512 03-01-2019 18:35:00 3.9 C 91 % 2.57 C
513 03-01-2019 18:40:00 4 C 91 % 2.67 C
514 03-01-2019 18:45:00 4.1 C 91 % 2.77 C
515 03-01-2019 18:50:00 4.1 C 91 % 2.77 C
516 03-01-2019 18:55:00 4.1 C 91 % 2.77 C
517 03-01-2019 19:00:00 4.1 C 91 % 2.77 C
518 03-01-2019 19:05:00 4.1 C 91 % 2.77 C
519 03-01-2019 19:10:00 4.1 C 91 % 2.77 C
520 03-01-2019 19:15:00 4.1 C 91 % 2.77 C
521 03-01-2019 19:20:00 4.1 C 91 % 2.77 C
522 03-01-2019 19:25:00 4.1 C 91 % 2.77 C
523 03-01-2019 19:30:00 4.1 C 91 % 2.77 C
524 03-01-2019 19:35:00 4.1 C 92 % 2.92 C
525 03-01-2019 19:40:00 4.1 C 92 % 2.92 C
Sensor: Nr:Datum:Temp:Feuchte:Taupunkt:
Aussen-T/F 526 03-01-2019 19:45:00 4 C 92 % 2.82 C
527 03-01-2019 19:50:00 4 C 92 % 2.82 C
528 03-01-2019 19:55:00 4 C 92 % 2.82 C
529 03-01-2019 20:00:00 4.1 C 92 % 2.92 C
530 03-01-2019 20:05:00 4.1 C 92 % 2.92 C
531 03-01-2019 20:10:00 4.1 C 92 % 2.92 C
532 03-01-2019 20:15:00 4.2 C 92 % 3.02 C
533 03-01-2019 20:20:00 4.2 C 91 % 2.87 C
534 03-01-2019 20:25:00 4.2 C 91 % 2.87 C
535 03-01-2019 20:30:00 4.2 C 91 % 2.87 C
536 03-01-2019 20:35:00 4.2 C 91 % 2.87 C
537 03-01-2019 20:40:00 4.2 C 92 % 3.02 C
538 03-01-2019 20:45:00 4.2 C 92 % 3.02 C
539 03-01-2019 20:50:00 4.1 C 92 % 2.92 C
540 03-01-2019 20:55:00 4.2 C 92 % 3.02 C
541 03-01-2019 21:00:00 4.1 C 92 % 2.92 C
542 03-01-2019 21:05:00 4.1 C 92 % 2.92 C
543 03-01-2019 21:10:00 4.1 C 92 % 2.92 C
544 03-01-2019 21:15:00 4.1 C 92 % 2.92 C
545 03-01-2019 21:20:00 4.2 C 92 % 3.02 C
546 03-01-2019 21:25:00 4.2 C 92 % 3.02 C
547 03-01-2019 21:30:00 4.2 C 92 % 3.02 C
548 03-01-2019 21:35:00 4.2 C 92 % 3.02 C
549 03-01-2019 21:40:00 4.2 C 92 % 3.02 C
550 03-01-2019 21:45:00 4.1 C 92 % 2.92 C
Sensor: Nr:Datum:Temp:Feuchte:Taupunkt:
Aussen-T/F 551 03-01-2019 21:50:00 4.1 C 92 % 2.92 C
552 03-01-2019 21:55:00 4.2 C 92 % 3.02 C
553 03-01-2019 22:00:00 4.2 C 92 % 3.02 C
554 03-01-2019 22:05:00 4.2 C 92 % 3.02 C
555 03-01-2019 22:10:00 4.2 C 92 % 3.02 C
556 03-01-2019 22:15:00 4.2 C 92 % 3.02 C
557 03-01-2019 22:20:00 4.2 C 92 % 3.02 C
558 03-01-2019 22:25:00 4.2 C 92 % 3.02 C
559 03-01-2019 22:30:00 4.2 C 92 % 3.02 C
560 03-01-2019 22:35:00 4.1 C 92 % 2.92 C
561 03-01-2019 22:40:00 4.1 C 92 % 2.92 C
562 03-01-2019 22:45:00 4.1 C 92 % 2.92 C
563 03-01-2019 22:50:00 4.1 C 92 % 2.92 C
564 03-01-2019 22:55:00 4 C 92 % 2.82 C
565 03-01-2019 23:00:00 4 C 92 % 2.82 C
566 03-01-2019 23:05:00 4 C 92 % 2.82 C
567 03-01-2019 23:10:00 4 C 93 % 2.97 C
568 03-01-2019 23:15:00 4 C 93 % 2.97 C
569 03-01-2019 23:20:00 4 C 93 % 2.97 C
570 03-01-2019 23:25:00 4 C 93 % 2.97 C
571 03-01-2019 23:30:00 4 C 93 % 2.97 C
572 03-01-2019 23:35:00 4 C 93 % 2.97 C
573 03-01-2019 23:40:00 3.9 C 93 % 2.87 C
574 03-01-2019 23:45:00 3.9 C 92 % 2.72 C
575 03-01-2019 23:50:00 3.8 C 92 % 2.62 C
Sensor: Nr:Datum:Temp:Feuchte:Taupunkt:
Aussen-T/F 576 03-01-2019 23:55:00 3.7 C 92 % 2.52 C
577 04-01-2019 00:00:00 3.7 C 92 % 2.52 C
578 04-01-2019 00:05:00 3.7 C 93 % 2.68 C
579 04-01-2019 00:10:00 3.7 C 93 % 2.68 C
580 04-01-2019 00:15:00 3.6 C 93 % 2.58 C
581 04-01-2019 00:20:00 3.6 C 92 % 2.42 C
582 04-01-2019 00:25:00 3.5 C 92 % 2.33 C
583 04-01-2019 00:30:00 3.4 C 92 % 2.23 C
584 04-01-2019 00:35:00 3.2 C 92 % 2.03 C
585 04-01-2019 00:40:00 3 C 91 % 1.68 C
586 04-01-2019 00:45:00 2.8 C 92 % 1.63 C
587 04-01-2019 00:50:00 2.7 C 92 % 1.53 C
588 04-01-2019 00:55:00 2.6 C 92 % 1.43 C
589 04-01-2019 01:00:00 2.4 C 92 % 1.24 C
590 04-01-2019 01:05:00 2.4 C 93 % 1.39 C
591 04-01-2019 01:10:00 2.3 C 93 % 1.29 C
592 04-01-2019 01:15:00 2.3 C 93 % 1.29 C
593 04-01-2019 01:20:00 2.2 C 93 % 1.19 C
594 04-01-2019 01:25:00 2.1 C 93 % 1.09 C
595 04-01-2019 01:30:00 2.1 C 93 % 1.09 C
596 04-01-2019 01:35:00 1.9 C 93 % 0.89 C
597 04-01-2019 01:40:00 1.8 C 93 % 0.79 C
598 04-01-2019 01:45:00 1.8 C 93 % 0.79 C
599 04-01-2019 01:50:00 1.8 C 94 % 0.94 C
600 04-01-2019 01:55:00 1.8 C 94 % 0.94 C
Sensor: Nr:Datum:Temp:Feuchte:Taupunkt:
Aussen-T/F 601 04-01-2019 02:00:00 1.8 C 94 % 0.94 C
602 04-01-2019 02:05:00 1.8 C 94 % 0.94 C
603 04-01-2019 02:10:00 1.8 C 94 % 0.94 C
604 04-01-2019 02:15:00 1.9 C 95 % 1.19 C
605 04-01-2019 02:20:00 2 C 95 % 1.29 C
606 04-01-2019 02:25:00 2.1 C 95 % 1.38 C
607 04-01-2019 02:30:00 2.1 C 95 % 1.38 C
608 04-01-2019 02:35:00 2.2 C 95 % 1.48 C
609 04-01-2019 02:40:00 2.3 C 95 % 1.58 C
610 04-01-2019 02:45:00 2.3 C 95 % 1.58 C
611 04-01-2019 02:50:00 2.3 C 95 % 1.58 C
612 04-01-2019 02:55:00 2.2 C 95 % 1.48 C
613 04-01-2019 03:00:00 2.1 C 94 % 1.24 C
614 04-01-2019 03:05:00 2 C 94 % 1.14 C
615 04-01-2019 03:10:00 1.9 C 94 % 1.04 C
616 04-01-2019 03:15:00 1.9 C 95 % 1.19 C
617 04-01-2019 03:20:00 1.8 C 95 % 1.09 C
618 04-01-2019 03:25:00 1.8 C 95 % 1.09 C
619 04-01-2019 03:30:00 1.7 C 94 % 0.84 C
620 04-01-2019 03:35:00 1.9 C 95 % 1.19 C
621 04-01-2019 03:40:00 1.9 C 95 % 1.19 C
622 04-01-2019 03:45:00 2 C 95 % 1.29 C
623 04-01-2019 03:50:00 1.9 C 95 % 1.19 C
624 04-01-2019 03:55:00 1.9 C 95 % 1.19 C
625 04-01-2019 04:00:00 1.9 C 95 % 1.19 C
Sensor: Nr:Datum:Temp:Feuchte:Taupunkt:
Aussen-T/F 626 04-01-2019 04:05:00 1.9 C 95 % 1.19 C
627 04-01-2019 04:10:00 1.9 C 95 % 1.19 C
628 04-01-2019 04:15:00 1.9 C 95 % 1.19 C
629 04-01-2019 04:20:00 2 C 95 % 1.29 C
630 04-01-2019 04:25:00 2 C 95 % 1.29 C
631 04-01-2019 04:30:00 2 C 95 % 1.29 C
632 04-01-2019 04:35:00 2 C 95 % 1.29 C
633 04-01-2019 04:40:00 2 C 95 % 1.29 C
634 04-01-2019 04:45:00 1.9 C 95 % 1.19 C
635 04-01-2019 04:50:00 1.9 C 95 % 1.19 C
636 04-01-2019 04:55:00 1.9 C 95 % 1.19 C
637 04-01-2019 05:00:00 1.9 C 95 % 1.19 C
638 04-01-2019 05:05:00 1.9 C 95 % 1.19 C
639 04-01-2019 05:10:00 1.9 C 95 % 1.19 C
640 04-01-2019 05:15:00 1.9 C 95 % 1.19 C
641 04-01-2019 05:20:00 1.9 C 95 % 1.19 C
642 04-01-2019 05:25:00 1.9 C 95 % 1.19 C
643 04-01-2019 05:30:00 1.9 C 95 % 1.19 C
644 04-01-2019 05:35:00 1.8 C 95 % 1.09 C
645 04-01-2019 05:40:00 1.8 C 95 % 1.09 C
646 04-01-2019 05:45:00 1.8 C 95 % 1.09 C
647 04-01-2019 05:50:00 1.8 C 95 % 1.09 C
648 04-01-2019 05:55:00 1.8 C 95 % 1.09 C
649 04-01-2019 06:00:00 1.8 C 95 % 1.09 C
650 04-01-2019 06:05:00 1.8 C 95 % 1.09 C
Sensor: Nr:Datum:Temp:Feuchte:Taupunkt:
Aussen-T/F 651 04-01-2019 06:10:00 1.8 C 95 % 1.09 C
652 04-01-2019 06:15:00 1.8 C 96 % 1.23 C
653 04-01-2019 06:20:00 1.8 C 96 % 1.23 C
654 04-01-2019 06:25:00 1.9 C 96 % 1.33 C
655 04-01-2019 06:30:00 1.9 C 96 % 1.33 C
656 04-01-2019 06:35:00 1.9 C 96 % 1.33 C
657 04-01-2019 06:40:00 1.8 C 95 % 1.09 C
658 04-01-2019 06:45:00 1.8 C 95 % 1.09 C
659 04-01-2019 06:50:00 1.7 C 95 % 0.99 C
660 04-01-2019 06:55:00 1.7 C 95 % 0.99 C
661 04-01-2019 07:00:00 1.7 C 95 % 0.99 C
662 04-01-2019 07:05:00 1.7 C 95 % 0.99 C
663 04-01-2019 07:10:00 1.7 C 96 % 1.13 C
664 04-01-2019 07:15:00 1.7 C 96 % 1.13 C
665 04-01-2019 07:20:00 1.7 C 96 % 1.13 C
666 04-01-2019 07:25:00 1.7 C 95 % 0.99 C
667 04-01-2019 07:30:00 1.6 C 95 % 0.89 C
668 04-01-2019 07:35:00 1.5 C 95 % 0.79 C
669 04-01-2019 07:40:00 1.4 C 95 % 0.69 C
670 04-01-2019 07:45:00 1.7 C 96 % 1.13 C
671 04-01-2019 07:50:00 1.9 C 96 % 1.33 C
672 04-01-2019 07:55:00 1.9 C 96 % 1.33 C
673 04-01-2019 08:00:00 1.8 C 96 % 1.23 C
674 04-01-2019 08:05:00 1.7 C 95 % 0.99 C
675 04-01-2019 08:10:00 1.7 C 95 % 0.99 C
Sensor: Nr:Datum:Temp:Feuchte:Taupunkt:
Aussen-T/F 676 04-01-2019 08:15:00 1.6 C 96 % 1.03 C
677 04-01-2019 08:20:00 1.6 C 96 % 1.03 C
678 04-01-2019 08:25:00 1.6 C 96 % 1.03 C
679 04-01-2019 08:30:00 1.6 C 96 % 1.03 C
680 04-01-2019 08:35:00 1.5 C 96 % 0.93 C
681 04-01-2019 08:40:00 1.3 C 95 % 0.59 C
682 04-01-2019 08:45:00 1.2 C 95 % 0.49 C
683 04-01-2019 08:50:00 1.2 C 95 % 0.49 C
684 04-01-2019 08:55:00 1.2 C 96 % 0.63 C
685 04-01-2019 09:00:00 1.2 C 96 % 0.63 C
686 04-01-2019 09:05:00 1.3 C 96 % 0.73 C
687 04-01-2019 09:10:00 1.3 C 96 % 0.73 C
688 04-01-2019 09:15:00 1.4 C 96 % 0.83 C
689 04-01-2019 09:20:00 1.5 C 96 % 0.93 C
690 04-01-2019 09:25:00 1.6 C 96 % 1.03 C
691 04-01-2019 09:30:00 1.6 C 96 % 1.03 C
692 04-01-2019 09:35:00 1.7 C 96 % 1.13 C
693 04-01-2019 09:40:00 1.7 C 96 % 1.13 C
694 04-01-2019 09:45:00 1.7 C 96 % 1.13 C
695 04-01-2019 09:50:00 1.8 C 96 % 1.23 C
696 04-01-2019 09:55:00 1.8 C 96 % 1.23 C
697 04-01-2019 10:00:00 1.9 C 96 % 1.33 C
698 04-01-2019 10:05:00 1.9 C 96 % 1.33 C
699 04-01-2019 10:10:00 2 C 96 % 1.43 C
700 04-01-2019 10:15:00 2.1 C 96 % 1.53 C
Sensor: Nr:Datum:Temp:Feuchte:Taupunkt:
Aussen-T/F 701 04-01-2019 10:20:00 2.2 C 96 % 1.63 C
702 04-01-2019 10:25:00 2.1 C 96 % 1.53 C
703 04-01-2019 10:30:00 2.1 C 96 % 1.53 C
704 04-01-2019 10:35:00 2.1 C 96 % 1.53 C
705 04-01-2019 10:40:00 2.1 C 96 % 1.53 C
706 04-01-2019 10:45:00 2.2 C 96 % 1.63 C
707 04-01-2019 10:50:00 2.2 C 95 % 1.48 C
708 04-01-2019 10:55:00 2.2 C 95 % 1.48 C
709 04-01-2019 11:00:00 2.2 C 95 % 1.48 C
710 04-01-2019 11:05:00 2.2 C 95 % 1.48 C
711 04-01-2019 11:10:00 2.1 C 95 % 1.38 C
712 04-01-2019 11:15:00 2 C 94 % 1.14 C
713 04-01-2019 11:20:00 1.9 C 95 % 1.19 C
714 04-01-2019 11:25:00 2 C 95 % 1.29 C
715 04-01-2019 11:30:00 2.2 C 95 % 1.48 C
716 04-01-2019 11:35:00 2.3 C 95 % 1.58 C
717 04-01-2019 11:40:00 2.5 C 95 % 1.78 C
718 04-01-2019 11:45:00 2.6 C 95 % 1.88 C
719 04-01-2019 11:50:00 2.6 C 94 % 1.73 C
720 04-01-2019 11:55:00 2.7 C 94 % 1.83 C
721 04-01-2019 12:00:00 2.7 C 94 % 1.83 C
722 04-01-2019 12:05:00 2.8 C 94 % 1.93 C
723 04-01-2019 12:10:00 2.9 C 94 % 2.03 C
724 04-01-2019 12:15:00 2.9 C 93 % 1.88 C
725 04-01-2019 12:20:00 3.1 C 93 % 2.08 C
Sensor: Nr:Datum:Temp:Feuchte:Taupunkt:
Aussen-T/F 726 04-01-2019 12:25:00 3.1 C 93 % 2.08 C
727 04-01-2019 12:30:00 3.1 C 93 % 2.08 C
728 04-01-2019 12:35:00 3.2 C 92 % 2.03 C
729 04-01-2019 12:40:00 3.2 C 92 % 2.03 C
730 04-01-2019 12:45:00 3.2 C 92 % 2.03 C
731 04-01-2019 12:50:00 3.2 C 92 % 2.03 C
732 04-01-2019 12:55:00 3.2 C 92 % 2.03 C
733 04-01-2019 13:00:00 3.2 C 92 % 2.03 C
734 04-01-2019 13:05:00 3.2 C 92 % 2.03 C
735 04-01-2019 13:10:00 3.2 C 93 % 2.18 C
736 04-01-2019 13:15:00 3.3 C 93 % 2.28 C
737 04-01-2019 13:20:00 3.4 C 93 % 2.38 C
738 04-01-2019 13:25:00 3.6 C 93 % 2.58 C
739 04-01-2019 13:30:00 3.7 C 93 % 2.68 C
740 04-01-2019 13:35:00 3.9 C 92 % 2.72 C
741 04-01-2019 13:40:00 4 C 92 % 2.82 C
742 04-01-2019 13:45:00 4.1 C 92 % 2.92 C
743 04-01-2019 13:50:00 4.3 C 91 % 2.96 C
744 04-01-2019 13:55:00 4.3 C 91 % 2.96 C
745 04-01-2019 14:00:00 4.5 C 90 % 3.01 C
746 04-01-2019 14:05:00 4.6 C 90 % 3.1 C
747 04-01-2019 14:10:00 4.7 C 90 % 3.2 C
748 04-01-2019 14:15:00 4.7 C 88 % 2.89 C
749 04-01-2019 14:20:00 4.7 C 88 % 2.89 C
750 04-01-2019 14:25:00 4.7 C 88 % 2.89 C
Sensor: Nr:Datum:Temp:Feuchte:Taupunkt:
Aussen-T/F 751 04-01-2019 14:30:00 4.8 C 87 % 2.82 C
752 04-01-2019 14:35:00 4.8 C 87 % 2.82 C
753 04-01-2019 14:40:00 4.8 C 87 % 2.82 C
754 04-01-2019 14:45:00 4.8 C 87 % 2.82 C
755 04-01-2019 14:50:00 4.8 C 88 % 2.99 C
756 04-01-2019 14:55:00 4.7 C 87 % 2.73 C
757 04-01-2019 15:00:00 4.7 C 88 % 2.89 C
758 04-01-2019 15:05:00 4.7 C 87 % 2.73 C
759 04-01-2019 15:10:00 4.7 C 88 % 2.89 C
760 04-01-2019 15:15:00 4.7 C 87 % 2.73 C
761 04-01-2019 15:20:00 4.6 C 87 % 2.63 C
762 04-01-2019 15:25:00 4.7 C 87 % 2.73 C
763 04-01-2019 15:30:00 4.7 C 87 % 2.73 C
764 04-01-2019 15:35:00 4.7 C 87 % 2.73 C
765 04-01-2019 15:40:00 4.7 C 87 % 2.73 C
766 04-01-2019 15:45:00 4.7 C 87 % 2.73 C
767 04-01-2019 15:50:00 4.7 C 87 % 2.73 C
768 04-01-2019 15:55:00 4.7 C 87 % 2.73 C
769 04-01-2019 16:00:00 4.7 C 87 % 2.73 C
770 04-01-2019 16:05:00 4.7 C 87 % 2.73 C
771 04-01-2019 16:10:00 4.7 C 87 % 2.73 C
772 04-01-2019 16:15:00 4.7 C 87 % 2.73 C
773 04-01-2019 16:20:00 4.7 C 87 % 2.73 C
774 04-01-2019 16:25:00 4.7 C 86 % 2.56 C
775 04-01-2019 16:30:00 4.7 C 86 % 2.56 C
Sensor: Nr:Datum:Temp:Feuchte:Taupunkt:
Aussen-T/F 776 04-01-2019 16:35:00 4.7 C 86 % 2.56 C
777 04-01-2019 16:40:00 4.7 C 86 % 2.56 C
778 04-01-2019 16:45:00 4.7 C 86 % 2.56 C
779 04-01-2019 16:50:00 4.7 C 85 % 2.4 C
780 04-01-2019 16:55:00 4.7 C 85 % 2.4 C
781 04-01-2019 17:00:00 4.7 C 85 % 2.4 C
782 04-01-2019 17:05:00 4.6 C 86 % 2.47 C
783 04-01-2019 17:10:00 4.6 C 86 % 2.47 C
784 04-01-2019 17:15:00 4.5 C 87 % 2.53 C
785 04-01-2019 17:20:00 4.4 C 87 % 2.43 C
786 04-01-2019 17:25:00 4.4 C 87 % 2.43 C
787 04-01-2019 17:30:00 4.4 C 87 % 2.43 C
788 04-01-2019 17:35:00 4.4 C 87 % 2.43 C
789 04-01-2019 17:40:00 4.4 C 87 % 2.43 C
790 04-01-2019 17:45:00 4.4 C 87 % 2.43 C
791 04-01-2019 17:50:00 4.4 C 87 % 2.43 C
792 04-01-2019 17:55:00 4.4 C 87 % 2.43 C
793 04-01-2019 18:00:00 4.4 C 87 % 2.43 C
794 04-01-2019 18:05:00 4.4 C 87 % 2.43 C
795 04-01-2019 18:10:00 4.4 C 87 % 2.43 C
796 04-01-2019 18:15:00 4.4 C 88 % 2.59 C
797 04-01-2019 18:20:00 4.4 C 88 % 2.59 C
798 04-01-2019 18:25:00 4.4 C 88 % 2.59 C
799 04-01-2019 18:30:00 4.3 C 88 % 2.49 C
800 04-01-2019 18:35:00 4.3 C 88 % 2.49 C
Sensor: Nr:Datum:Temp:Feuchte:Taupunkt:
Aussen-T/F 801 04-01-2019 18:40:00 4.3 C 88 % 2.49 C
802 04-01-2019 18:45:00 4.3 C 88 % 2.49 C
803 04-01-2019 18:50:00 4.3 C 88 % 2.49 C
804 04-01-2019 18:55:00 4.3 C 88 % 2.49 C
805 04-01-2019 19:00:00 4.3 C 88 % 2.49 C
806 04-01-2019 19:05:00 4.3 C 88 % 2.49 C
807 04-01-2019 19:10:00 4.3 C 88 % 2.49 C
808 04-01-2019 19:15:00 4.3 C 88 % 2.49 C
809 04-01-2019 19:20:00 4.3 C 88 % 2.49 C
810 04-01-2019 19:25:00 4.4 C 88 % 2.59 C
811 04-01-2019 19:30:00 4.4 C 88 % 2.59 C
812 04-01-2019 19:35:00 4.4 C 88 % 2.59 C
813 04-01-2019 19:40:00 4.4 C 88 % 2.59 C
814 04-01-2019 19:45:00 4.4 C 88 % 2.59 C
815 04-01-2019 19:50:00 4.4 C 88 % 2.59 C
816 04-01-2019 19:55:00 4.4 C 88 % 2.59 C
817 04-01-2019 20:00:00 4.4 C 88 % 2.59 C
818 04-01-2019 20:05:00 4.4 C 88 % 2.59 C
819 04-01-2019 20:10:00 4.4 C 88 % 2.59 C
820 04-01-2019 20:15:00 4.4 C 88 % 2.59 C
821 04-01-2019 20:20:00 4.4 C 88 % 2.59 C
822 04-01-2019 20:25:00 4.3 C 88 % 2.49 C
823 04-01-2019 20:30:00 4.3 C 88 % 2.49 C
824 04-01-2019 20:35:00 4.3 C 89 % 2.65 C
825 04-01-2019 20:40:00 4.3 C 89 % 2.65 C
Sensor: Nr:Datum:Temp:Feuchte:Taupunkt:
Aussen-T/F 826 04-01-2019 20:45:00 4.3 C 89 % 2.65 C
827 04-01-2019 20:50:00 4.3 C 89 % 2.65 C
828 04-01-2019 20:55:00 4.3 C 89 % 2.65 C
829 04-01-2019 21:00:00 4.3 C 89 % 2.65 C
830 04-01-2019 21:05:00 4.3 C 89 % 2.65 C
831 04-01-2019 21:10:00 4.3 C 89 % 2.65 C
832 04-01-2019 21:15:00 4.3 C 89 % 2.65 C
833 04-01-2019 21:20:00 4.3 C 89 % 2.65 C
834 04-01-2019 21:25:00 4.3 C 89 % 2.65 C
835 04-01-2019 21:30:00 4.4 C 89 % 2.75 C
836 04-01-2019 21:35:00 4.4 C 89 % 2.75 C
837 04-01-2019 21:40:00 4.4 C 89 % 2.75 C
838 04-01-2019 21:45:00 4.3 C 89 % 2.65 C
839 04-01-2019 21:50:00 4.3 C 90 % 2.81 C
840 04-01-2019 21:55:00 4.3 C 90 % 2.81 C
841 04-01-2019 22:00:00 4.3 C 90 % 2.81 C
842 04-01-2019 22:05:00 4.3 C 90 % 2.81 C
843 04-01-2019 22:10:00 4.3 C 91 % 2.96 C
844 04-01-2019 22:15:00 4.3 C 91 % 2.96 C
845 04-01-2019 22:20:00 4.2 C 91 % 2.87 C
846 04-01-2019 22:25:00 4.2 C 91 % 2.87 C
847 04-01-2019 22:30:00 4.2 C 91 % 2.87 C
848 04-01-2019 22:35:00 4.2 C 92 % 3.02 C
849 04-01-2019 22:40:00 4.2 C 92 % 3.02 C
850 04-01-2019 22:45:00 4.2 C 92 % 3.02 C
Sensor: Nr:Datum:Temp:Feuchte:Taupunkt:
Aussen-T/F 851 04-01-2019 22:50:00 4.2 C 92 % 3.02 C
852 04-01-2019 22:55:00 4.2 C 92 % 3.02 C
853 04-01-2019 23:00:00 4.3 C 92 % 3.12 C
854 04-01-2019 23:05:00 4.3 C 92 % 3.12 C
855 04-01-2019 23:10:00 4.3 C 92 % 3.12 C
856 04-01-2019 23:15:00 4.3 C 92 % 3.12 C
857 04-01-2019 23:20:00 4.3 C 92 % 3.12 C
858 04-01-2019 23:25:00 4.3 C 92 % 3.12 C
859 04-01-2019 23:30:00 4.4 C 92 % 3.22 C
860 04-01-2019 23:35:00 4.4 C 92 % 3.22 C
861 04-01-2019 23:40:00 4.4 C 92 % 3.22 C
862 04-01-2019 23:45:00 4.4 C 92 % 3.22 C
863 04-01-2019 23:50:00 4.4 C 92 % 3.22 C
864 04-01-2019 23:55:00 4.4 C 92 % 3.22 C
865 05-01-2019 00:00:00 4.4 C 92 % 3.22 C
866 05-01-2019 00:05:00 4.4 C 92 % 3.22 C
867 05-01-2019 00:10:00 4.4 C 92 % 3.22 C
868 05-01-2019 00:15:00 4.5 C 92 % 3.32 C
869 05-01-2019 00:20:00 4.5 C 92 % 3.32 C
870 05-01-2019 00:25:00 4.5 C 93 % 3.47 C
871 05-01-2019 00:30:00 4.5 C 93 % 3.47 C
872 05-01-2019 00:35:00 4.5 C 93 % 3.47 C
873 05-01-2019 00:40:00 4.5 C 93 % 3.47 C
874 05-01-2019 00:45:00 4.5 C 93 % 3.47 C
875 05-01-2019 00:50:00 4.4 C 93 % 3.37 C
Sensor: Nr:Datum:Temp:Feuchte:Taupunkt:
Aussen-T/F 876 05-01-2019 00:55:00 4.4 C 93 % 3.37 C
877 05-01-2019 01:00:00 4.4 C 93 % 3.37 C
878 05-01-2019 01:05:00 4.4 C 94 % 3.52 C
879 05-01-2019 01:10:00 4.3 C 94 % 3.42 C
880 05-01-2019 01:15:00 4.3 C 94 % 3.42 C
881 05-01-2019 01:20:00 4.3 C 94 % 3.42 C
882 05-01-2019 01:25:00 4.3 C 94 % 3.42 C
883 05-01-2019 01:30:00 4.2 C 94 % 3.32 C
884 05-01-2019 01:35:00 4.2 C 94 % 3.32 C
885 05-01-2019 01:40:00 4.2 C 94 % 3.32 C
886 05-01-2019 01:45:00 4.2 C 95 % 3.47 C
887 05-01-2019 01:50:00 4.2 C 95 % 3.47 C
888 05-01-2019 01:55:00 4.2 C 95 % 3.47 C
889 05-01-2019 02:00:00 4.2 C 95 % 3.47 C
890 05-01-2019 02:05:00 4.2 C 95 % 3.47 C
891 05-01-2019 02:10:00 4.2 C 95 % 3.47 C
892 05-01-2019 02:15:00 4.2 C 95 % 3.47 C
893 05-01-2019 02:20:00 4.2 C 95 % 3.47 C
894 05-01-2019 02:25:00 4.2 C 95 % 3.47 C
895 05-01-2019 02:30:00 4.2 C 95 % 3.47 C
896 05-01-2019 02:35:00 4.2 C 95 % 3.47 C
897 05-01-2019 02:40:00 4.2 C 95 % 3.47 C
898 05-01-2019 02:45:00 4.3 C 95 % 3.57 C
899 05-01-2019 02:50:00 4.3 C 95 % 3.57 C
900 05-01-2019 02:55:00 4.3 C 95 % 3.57 C
Sensor: Nr:Datum:Temp:Feuchte:Taupunkt:
Aussen-T/F 901 05-01-2019 03:00:00 4.3 C 95 % 3.57 C
902 05-01-2019 03:05:00 4.3 C 96 % 3.72 C
903 05-01-2019 03:10:00 4.4 C 96 % 3.82 C
904 05-01-2019 03:15:00 4.4 C 96 % 3.82 C
905 05-01-2019 03:20:00 4.4 C 96 % 3.82 C
906 05-01-2019 03:25:00 4.4 C 96 % 3.82 C
907 05-01-2019 03:30:00 4.4 C 96 % 3.82 C
908 05-01-2019 03:35:00 4.4 C 96 % 3.82 C
909 05-01-2019 03:40:00 4.4 C 96 % 3.82 C
910 05-01-2019 03:45:00 4.4 C 96 % 3.82 C
911 05-01-2019 03:50:00 4.3 C 96 % 3.72 C
912 05-01-2019 03:55:00 4.3 C 96 % 3.72 C
913 05-01-2019 04:00:00 4.4 C 96 % 3.82 C
914 05-01-2019 04:05:00 4.4 C 96 % 3.82 C
915 05-01-2019 04:10:00 4.4 C 96 % 3.82 C
916 05-01-2019 04:15:00 4.4 C 96 % 3.82 C
917 05-01-2019 04:20:00 4.5 C 96 % 3.92 C
918 05-01-2019 04:25:00 4.5 C 96 % 3.92 C
919 05-01-2019 04:30:00 4.5 C 96 % 3.92 C
920 05-01-2019 04:35:00 4.6 C 96 % 4.02 C
921 05-01-2019 04:40:00 4.6 C 96 % 4.02 C
922 05-01-2019 04:45:00 4.5 C 96 % 3.92 C
923 05-01-2019 04:50:00 4.5 C 96 % 3.92 C
924 05-01-2019 04:55:00 4.5 C 96 % 3.92 C
925 05-01-2019 05:00:00 4.5 C 96 % 3.92 C
Sensor: Nr:Datum:Temp:Feuchte:Taupunkt:
Aussen-T/F 926 05-01-2019 05:05:00 4.5 C 96 % 3.92 C
927 05-01-2019 05:10:00 4.5 C 96 % 3.92 C
928 05-01-2019 05:15:00 4.5 C 96 % 3.92 C
929 05-01-2019 05:20:00 4.5 C 96 % 3.92 C
930 05-01-2019 05:25:00 4.5 C 96 % 3.92 C
931 05-01-2019 05:30:00 4.5 C 96 % 3.92 C
932 05-01-2019 05:35:00 4.5 C 96 % 3.92 C
933 05-01-2019 05:40:00 4.5 C 96 % 3.92 C
934 05-01-2019 05:45:00 4.4 C 96 % 3.82 C
935 05-01-2019 05:50:00 4.4 C 96 % 3.82 C
936 05-01-2019 05:55:00 4.4 C 96 % 3.82 C
937 05-01-2019 06:00:00 4.4 C 96 % 3.82 C
938 05-01-2019 06:05:00 4.4 C 96 % 3.82 C
939 05-01-2019 06:10:00 4.4 C 96 % 3.82 C
940 05-01-2019 06:15:00 4.4 C 96 % 3.82 C
941 05-01-2019 06:20:00 4.4 C 95 % 3.67 C
942 05-01-2019 06:25:00 4.4 C 95 % 3.67 C
943 05-01-2019 06:30:00 4.4 C 96 % 3.82 C
944 05-01-2019 06:35:00 4.4 C 96 % 3.82 C
945 05-01-2019 06:40:00 4.4 C 96 % 3.82 C
946 05-01-2019 06:45:00 4.4 C 95 % 3.67 C
947 05-01-2019 06:50:00 4.5 C 96 % 3.92 C
948 05-01-2019 06:55:00 4.5 C 96 % 3.92 C
949 05-01-2019 07:00:00 4.6 C 96 % 4.02 C
950 05-01-2019 07:05:00 4.6 C 96 % 4.02 C
Sensor: Nr:Datum:Temp:Feuchte:Taupunkt:
Aussen-T/F 951 05-01-2019 07:10:00 4.6 C 96 % 4.02 C
952 05-01-2019 07:15:00 4.7 C 96 % 4.12 C
953 05-01-2019 07:20:00 4.7 C 96 % 4.12 C
954 05-01-2019 07:25:00 4.8 C 96 % 4.22 C
955 05-01-2019 07:30:00 4.8 C 96 % 4.22 C
956 05-01-2019 07:35:00 4.9 C 96 % 4.32 C
957 05-01-2019 07:40:00 5.1 C 96 % 4.52 C
958 05-01-2019 07:45:00 5.1 C 96 % 4.52 C
959 05-01-2019 07:50:00 5.2 C 96 % 4.62 C
960 05-01-2019 07:55:00 5.3 C 96 % 4.72 C
961 05-01-2019 08:00:00 5.3 C 96 % 4.72 C
962 05-01-2019 08:05:00 5.4 C 96 % 4.81 C
963 05-01-2019 08:10:00 5.6 C 96 % 5.01 C
964 05-01-2019 08:15:00 5.7 C 97 % 5.26 C
965 05-01-2019 08:20:00 5.9 C 96 % 5.31 C
966 05-01-2019 08:25:00 6 C 96 % 5.41 C
967 05-01-2019 08:30:00 6.1 C 96 % 5.51 C
968 05-01-2019 08:35:00 6.2 C 96 % 5.61 C
969 05-01-2019 08:40:00 6.3 C 96 % 5.71 C
970 05-01-2019 08:45:00 6.3 C 96 % 5.71 C
971 05-01-2019 08:50:00 6.4 C 96 % 5.81 C
972 05-01-2019 08:55:00 6.4 C 95 % 5.66 C
973 05-01-2019 09:00:00 6.5 C 95 % 5.76 C
974 05-01-2019 09:05:00 6.6 C 95 % 5.86 C
975 05-01-2019 09:10:00 6.6 C 95 % 5.86 C
Sensor: Nr:Datum:Temp:Feuchte:Taupunkt:
Aussen-T/F 976 05-01-2019 09:15:00 6.7 C 94 % 5.8 C
977 05-01-2019 09:20:00 6.7 C 94 % 5.8 C
978 05-01-2019 09:25:00 6.7 C 94 % 5.8 C
979 05-01-2019 09:30:00 6.8 C 94 % 5.9 C
980 05-01-2019 09:35:00 6.8 C 93 % 5.75 C
981 05-01-2019 09:40:00 6.8 C 93 % 5.75 C
982 05-01-2019 09:45:00 6.8 C 93 % 5.75 C
983 05-01-2019 09:50:00 6.8 C 93 % 5.75 C
984 05-01-2019 09:55:00 6.8 C 93 % 5.75 C
985 05-01-2019 10:00:00 6.8 C 93 % 5.75 C
986 05-01-2019 10:05:00 6.8 C 94 % 5.9 C
987 05-01-2019 10:10:00 6.8 C 94 % 5.9 C
988 05-01-2019 10:15:00 6.7 C 94 % 5.8 C
989 05-01-2019 10:20:00 6.8 C 94 % 5.9 C
990 05-01-2019 10:25:00 6.8 C 94 % 5.9 C
991 05-01-2019 10:30:00 6.8 C 94 % 5.9 C
992 05-01-2019 10:35:00 6.8 C 94 % 5.9 C
993 05-01-2019 10:40:00 6.8 C 94 % 5.9 C
994 05-01-2019 10:45:00 6.8 C 94 % 5.9 C
995 05-01-2019 10:50:00 6.8 C 94 % 5.9 C
996 05-01-2019 10:55:00 6.8 C 94 % 5.9 C
997 05-01-2019 11:00:00 6.8 C 94 % 5.9 C
998 05-01-2019 11:05:00 6.8 C 94 % 5.9 C
999 05-01-2019 11:10:00 6.8 C 94 % 5.9 C
1000 05-01-2019 11:15:00 6.9 C 94 % 6 C
Sensor: Nr:Datum:Temp:Feuchte:Taupunkt:
Aussen-T/F 1001 05-01-2019 11:20:00 6.9 C 94 % 6 C
1002 05-01-2019 11:25:00 6.9 C 93 % 5.85 C
1003 05-01-2019 11:30:00 7 C 93 % 5.95 C
1004 05-01-2019 11:50:00 7 C 93 % 5.95 C
1005 05-01-2019 11:55:00 7 C 93 % 5.95 C
1006 05-01-2019 12:00:00 7 C 93 % 5.95 C
1007 05-01-2019 12:05:00 7 C 93 % 5.95 C
1008 05-01-2019 12:10:00 6.9 C 93 % 5.85 C
1009 05-01-2019 12:15:00 6.9 C 93 % 5.85 C
1010 05-01-2019 12:20:00 6.9 C 93 % 5.85 C
1011 05-01-2019 12:25:00 6.9 C 93 % 5.85 C
1012 05-01-2019 12:30:00 6.9 C 93 % 5.85 C
1013 05-01-2019 12:35:00 7 C 93 % 5.95 C
1014 05-01-2019 12:40:00 7 C 93 % 5.95 C
1015 05-01-2019 12:45:00 7 C 93 % 5.95 C
1016 05-01-2019 12:50:00 7 C 93 % 5.95 C
1017 05-01-2019 12:55:00 6.9 C 93 % 5.85 C
1018 05-01-2019 13:00:00 7 C 93 % 5.95 C
1019 05-01-2019 13:05:00 7 C 93 % 5.95 C
1020 05-01-2019 13:10:00 7 C 93 % 5.95 C
1021 05-01-2019 13:15:00 7.1 C 93 % 6.05 C
1022 05-01-2019 13:20:00 7.1 C 93 % 6.05 C
1023 05-01-2019 13:25:00 7.1 C 93 % 6.05 C
1024 05-01-2019 13:30:00 7 C 93 % 5.95 C
1025 05-01-2019 13:35:00 7 C 93 % 5.95 C
Sensor: Nr:Datum:Temp:Feuchte:Taupunkt:
Aussen-T/F 1026 05-01-2019 13:40:00 7 C 93 % 5.95 C
1027 05-01-2019 13:45:00 7 C 93 % 5.95 C
1028 05-01-2019 13:50:00 6.9 C 93 % 5.85 C
1029 05-01-2019 13:55:00 7 C 93 % 5.95 C
1030 05-01-2019 14:00:00 7 C 93 % 5.95 C
1031 05-01-2019 14:05:00 7.1 C 93 % 6.05 C
1032 05-01-2019 14:10:00 7.1 C 93 % 6.05 C
1033 05-01-2019 14:15:00 7.1 C 93 % 6.05 C
1034 05-01-2019 14:20:00 7.1 C 93 % 6.05 C
1035 05-01-2019 14:25:00 7 C 93 % 5.95 C
1036 05-01-2019 14:30:00 7.1 C 93 % 6.05 C
1037 05-01-2019 14:35:00 7 C 93 % 5.95 C
1038 05-01-2019 14:40:00 7 C 93 % 5.95 C
1039 05-01-2019 14:45:00 7.1 C 93 % 6.05 C
1040 05-01-2019 14:50:00 7.1 C 93 % 6.05 C
1041 05-01-2019 14:55:00 7.1 C 93 % 6.05 C
1042 05-01-2019 15:00:00 7.1 C 93 % 6.05 C
1043 05-01-2019 15:05:00 7.1 C 93 % 6.05 C
1044 05-01-2019 15:10:00 7 C 93 % 5.95 C
1045 05-01-2019 15:15:00 7 C 93 % 5.95 C
1046 05-01-2019 15:20:00 7 C 93 % 5.95 C
1047 05-01-2019 15:25:00 7 C 93 % 5.95 C
1048 05-01-2019 15:30:00 7 C 93 % 5.95 C
1049 05-01-2019 15:35:00 7 C 93 % 5.95 C
1050 05-01-2019 15:40:00 7 C 93 % 5.95 C
Sensor: Nr:Datum:Temp:Feuchte:Taupunkt:
Aussen-T/F 1051 05-01-2019 15:45:00 6.9 C 92 % 5.69 C
1052 05-01-2019 15:50:00 6.9 C 92 % 5.69 C
1053 05-01-2019 15:55:00 7 C 92 % 5.79 C
1054 05-01-2019 16:00:00 6.9 C 92 % 5.69 C
1055 05-01-2019 16:05:00 6.9 C 92 % 5.69 C
1056 05-01-2019 16:10:00 6.9 C 92 % 5.69 C
1057 05-01-2019 16:15:00 6.9 C 92 % 5.69 C
1058 05-01-2019 16:20:00 6.9 C 92 % 5.69 C
1059 05-01-2019 16:25:00 6.9 C 92 % 5.69 C
1060 05-01-2019 16:30:00 6.9 C 91 % 5.54 C
1061 05-01-2019 16:35:00 6.9 C 91 % 5.54 C
1062 05-01-2019 16:40:00 6.9 C 91 % 5.54 C
1063 05-01-2019 16:45:00 6.9 C 91 % 5.54 C
1064 05-01-2019 16:50:00 6.9 C 91 % 5.54 C
1065 05-01-2019 16:55:00 6.9 C 90 % 5.38 C
1066 05-01-2019 17:00:00 6.9 C 90 % 5.38 C
1067 05-01-2019 17:05:00 6.9 C 90 % 5.38 C
1068 05-01-2019 17:10:00 6.8 C 91 % 5.44 C
1069 05-01-2019 17:15:00 6.8 C 90 % 5.28 C
1070 05-01-2019 17:20:00 6.8 C 91 % 5.44 C
1071 05-01-2019 17:25:00 6.8 C 90 % 5.28 C
1072 05-01-2019 17:30:00 6.8 C 91 % 5.44 C
1073 05-01-2019 17:35:00 6.8 C 91 % 5.44 C
1074 05-01-2019 17:40:00 6.7 C 91 % 5.34 C
1075 05-01-2019 17:45:00 6.7 C 91 % 5.34 C
Sensor: Nr:Datum:Temp:Feuchte:Taupunkt:
Aussen-T/F 1076 05-01-2019 17:50:00 6.7 C 92 % 5.49 C
1077 05-01-2019 17:55:00 6.6 C 92 % 5.4 C
1078 05-01-2019 18:00:00 6.6 C 92 % 5.4 C
1079 05-01-2019 18:05:00 6.6 C 92 % 5.4 C
1080 05-01-2019 18:10:00 6.6 C 92 % 5.4 C
1081 05-01-2019 18:15:00 6.6 C 92 % 5.4 C
1082 05-01-2019 18:20:00 6.6 C 91 % 5.24 C
1083 05-01-2019 18:25:00 6.6 C 91 % 5.24 C
1084 05-01-2019 18:30:00 6.7 C 91 % 5.34 C
1085 05-01-2019 18:35:00 6.7 C 91 % 5.34 C
1086 05-01-2019 18:40:00 6.6 C 91 % 5.24 C
1087 05-01-2019 18:45:00 6.6 C 91 % 5.24 C
1088 05-01-2019 18:50:00 6.6 C 91 % 5.24 C
1089 05-01-2019 18:55:00 6.6 C 92 % 5.4 C
1090 05-01-2019 19:00:00 6.6 C 92 % 5.4 C
1091 05-01-2019 19:05:00 6.6 C 92 % 5.4 C
1092 05-01-2019 19:10:00 6.6 C 92 % 5.4 C
1093 05-01-2019 19:15:00 6.6 C 91 % 5.24 C
1094 05-01-2019 19:20:00 6.6 C 91 % 5.24 C
1095 05-01-2019 19:25:00 6.5 C 91 % 5.14 C
1096 05-01-2019 19:30:00 6.6 C 91 % 5.24 C
1097 05-01-2019 19:35:00 6.6 C 91 % 5.24 C
1098 05-01-2019 19:40:00 6.6 C 91 % 5.24 C
1099 05-01-2019 19:45:00 6.5 C 91 % 5.14 C
1100 05-01-2019 19:50:00 6.6 C 91 % 5.24 C
Sensor: Nr:Datum:Temp:Feuchte:Taupunkt:
Aussen-T/F 1101 05-01-2019 19:55:00 6.6 C 91 % 5.24 C
1102 05-01-2019 20:00:00 6.6 C 91 % 5.24 C
1103 05-01-2019 20:05:00 6.6 C 91 % 5.24 C
1104 05-01-2019 20:10:00 6.6 C 91 % 5.24 C
1105 05-01-2019 20:15:00 6.6 C 91 % 5.24 C
1106 05-01-2019 20:20:00 6.6 C 91 % 5.24 C
1107 05-01-2019 20:25:00 6.6 C 91 % 5.24 C
1108 05-01-2019 20:30:00 6.6 C 91 % 5.24 C
1109 05-01-2019 20:35:00 6.6 C 91 % 5.24 C
1110 05-01-2019 20:40:00 6.5 C 91 % 5.14 C
1111 05-01-2019 20:45:00 6.5 C 91 % 5.14 C
1112 05-01-2019 20:50:00 6.4 C 92 % 5.2 C
1113 05-01-2019 20:55:00 6.4 C 92 % 5.2 C
1114 05-01-2019 21:00:00 6.4 C 91 % 5.04 C
1115 05-01-2019 21:05:00 6.4 C 91 % 5.04 C
1116 05-01-2019 21:10:00 6.4 C 91 % 5.04 C
1117 05-01-2019 21:15:00 6.4 C 91 % 5.04 C
1118 05-01-2019 21:20:00 6.4 C 91 % 5.04 C
1119 05-01-2019 21:25:00 6.4 C 91 % 5.04 C
1120 05-01-2019 21:30:00 6.4 C 91 % 5.04 C
1121 05-01-2019 21:35:00 6.4 C 91 % 5.04 C
1122 05-01-2019 21:40:00 6.4 C 91 % 5.04 C
1123 05-01-2019 21:45:00 6.4 C 91 % 5.04 C
1124 05-01-2019 21:50:00 6.4 C 92 % 5.2 C
1125 05-01-2019 21:55:00 6.4 C 92 % 5.2 C
Sensor: Nr:Datum:Temp:Feuchte:Taupunkt:
Aussen-T/F 1126 05-01-2019 22:00:00 6.4 C 92 % 5.2 C
1127 05-01-2019 22:05:00 6.3 C 92 % 5.1 C
1128 05-01-2019 22:10:00 6.3 C 92 % 5.1 C
1129 05-01-2019 22:15:00 6.4 C 92 % 5.2 C
1130 05-01-2019 22:20:00 6.4 C 91 % 5.04 C
1131 05-01-2019 22:25:00 6.4 C 91 % 5.04 C
1132 05-01-2019 22:30:00 6.4 C 91 % 5.04 C
1133 05-01-2019 22:35:00 6.4 C 91 % 5.04 C
1134 05-01-2019 22:40:00 6.4 C 91 % 5.04 C
1135 05-01-2019 22:45:00 6.4 C 91 % 5.04 C
1136 05-01-2019 22:50:00 6.4 C 91 % 5.04 C
1137 05-01-2019 22:55:00 6.4 C 91 % 5.04 C
1138 05-01-2019 23:00:00 6.4 C 91 % 5.04 C
1139 05-01-2019 23:05:00 6.4 C 92 % 5.2 C
1140 05-01-2019 23:10:00 6.4 C 92 % 5.2 C
1141 05-01-2019 23:15:00 6.3 C 92 % 5.1 C
1142 05-01-2019 23:20:00 6.3 C 92 % 5.1 C
1143 05-01-2019 23:25:00 6.3 C 92 % 5.1 C
1144 05-01-2019 23:30:00 6.3 C 92 % 5.1 C
1145 05-01-2019 23:35:00 6.3 C 92 % 5.1 C
1146 05-01-2019 23:40:00 6.3 C 92 % 5.1 C
1147 05-01-2019 23:45:00 6.2 C 93 % 5.15 C
1148 05-01-2019 23:50:00 6.2 C 93 % 5.15 C
1149 05-01-2019 23:55:00 6.2 C 93 % 5.15 C
1150 06-01-2019 00:00:00 6.2 C 93 % 5.15 C
Sensor: Nr:Datum:Temp:Feuchte:Taupunkt:
Aussen-T/F 1151 06-01-2019 00:05:00 6.2 C 93 % 5.15 C
1152 06-01-2019 00:10:00 6.2 C 93 % 5.15 C
1153 06-01-2019 00:15:00 6.2 C 93 % 5.15 C
1154 06-01-2019 00:20:00 6.2 C 93 % 5.15 C
1155 06-01-2019 00:25:00 6.1 C 93 % 5.06 C
1156 06-01-2019 00:30:00 6.1 C 93 % 5.06 C
1157 06-01-2019 00:35:00 6.1 C 93 % 5.06 C
1158 06-01-2019 00:40:00 6.1 C 93 % 5.06 C
1159 06-01-2019 00:45:00 6.1 C 94 % 5.21 C
1160 06-01-2019 00:50:00 6 C 94 % 5.11 C
1161 06-01-2019 00:55:00 6 C 94 % 5.11 C
1162 06-01-2019 01:00:00 6 C 94 % 5.11 C
1163 06-01-2019 01:05:00 6 C 94 % 5.11 C
1164 06-01-2019 01:10:00 6 C 94 % 5.11 C
1165 06-01-2019 01:15:00 5.9 C 94 % 5.01 C
1166 06-01-2019 01:20:00 5.9 C 94 % 5.01 C
1167 06-01-2019 01:25:00 5.9 C 94 % 5.01 C
1168 06-01-2019 01:30:00 5.9 C 94 % 5.01 C
1169 06-01-2019 01:35:00 5.9 C 94 % 5.01 C
1170 06-01-2019 01:40:00 5.9 C 94 % 5.01 C
1171 06-01-2019 01:45:00 5.8 C 94 % 4.91 C
1172 06-01-2019 01:50:00 5.8 C 94 % 4.91 C
1173 06-01-2019 01:55:00 5.8 C 94 % 4.91 C
1174 06-01-2019 02:00:00 5.8 C 94 % 4.91 C
1175 06-01-2019 02:05:00 5.8 C 94 % 4.91 C
Sensor: Nr:Datum:Temp:Feuchte:Taupunkt:
Aussen-T/F 1176 06-01-2019 02:10:00 5.7 C 94 % 4.81 C
1177 06-01-2019 02:15:00 5.7 C 94 % 4.81 C
1178 06-01-2019 02:20:00 5.7 C 94 % 4.81 C
1179 06-01-2019 02:25:00 5.7 C 94 % 4.81 C
1180 06-01-2019 02:30:00 5.7 C 94 % 4.81 C
1181 06-01-2019 02:35:00 5.7 C 94 % 4.81 C
1182 06-01-2019 02:40:00 5.7 C 93 % 4.66 C
1183 06-01-2019 02:45:00 5.7 C 93 % 4.66 C
1184 06-01-2019 02:50:00 5.7 C 93 % 4.66 C
1185 06-01-2019 02:55:00 5.7 C 93 % 4.66 C
1186 06-01-2019 03:00:00 5.7 C 93 % 4.66 C
1187 06-01-2019 03:05:00 5.7 C 93 % 4.66 C
1188 06-01-2019 03:10:00 5.7 C 93 % 4.66 C
1189 06-01-2019 03:15:00 5.7 C 93 % 4.66 C
1190 06-01-2019 03:20:00 5.7 C 93 % 4.66 C
1191 06-01-2019 03:25:00 5.7 C 93 % 4.66 C
1192 06-01-2019 03:30:00 5.7 C 93 % 4.66 C
1193 06-01-2019 03:35:00 5.7 C 93 % 4.66 C
1194 06-01-2019 03:40:00 5.7 C 93 % 4.66 C
1195 06-01-2019 03:45:00 5.7 C 93 % 4.66 C
1196 06-01-2019 03:50:00 5.7 C 93 % 4.66 C
1197 06-01-2019 03:55:00 5.7 C 93 % 4.66 C
1198 06-01-2019 04:00:00 5.7 C 93 % 4.66 C
1199 06-01-2019 04:05:00 5.7 C 93 % 4.66 C
1200 06-01-2019 04:10:00 5.7 C 93 % 4.66 C
Sensor: Nr:Datum:Temp:Feuchte:Taupunkt:
Aussen-T/F 1201 06-01-2019 04:15:00 5.7 C 93 % 4.66 C
1202 06-01-2019 04:20:00 5.7 C 93 % 4.66 C
1203 06-01-2019 04:25:00 5.7 C 93 % 4.66 C
1204 06-01-2019 04:30:00 5.7 C 93 % 4.66 C
1205 06-01-2019 04:35:00 5.7 C 93 % 4.66 C
1206 06-01-2019 04:40:00 5.7 C 93 % 4.66 C
1207 06-01-2019 04:45:00 5.8 C 93 % 4.76 C
1208 06-01-2019 04:50:00 5.8 C 93 % 4.76 C
1209 06-01-2019 04:55:00 5.8 C 93 % 4.76 C
1210 06-01-2019 05:00:00 5.8 C 93 % 4.76 C
1211 06-01-2019 05:05:00 5.8 C 93 % 4.76 C
1212 06-01-2019 05:10:00 5.8 C 93 % 4.76 C
1213 06-01-2019 05:15:00 5.8 C 93 % 4.76 C
1214 06-01-2019 05:20:00 5.8 C 93 % 4.76 C
1215 06-01-2019 05:25:00 5.7 C 93 % 4.66 C
1216 06-01-2019 05:30:00 5.7 C 93 % 4.66 C
1217 06-01-2019 05:35:00 5.7 C 93 % 4.66 C
1218 06-01-2019 05:40:00 5.7 C 93 % 4.66 C
1219 06-01-2019 05:45:00 5.7 C 93 % 4.66 C
1220 06-01-2019 05:50:00 5.7 C 93 % 4.66 C
1221 06-01-2019 05:55:00 5.7 C 93 % 4.66 C
1222 06-01-2019 06:00:00 5.7 C 93 % 4.66 C
1223 06-01-2019 06:05:00 5.7 C 93 % 4.66 C
1224 06-01-2019 06:10:00 5.7 C 93 % 4.66 C
1225 06-01-2019 06:15:00 5.7 C 93 % 4.66 C
Sensor: Nr:Datum:Temp:Feuchte:Taupunkt:
Aussen-T/F 1226 06-01-2019 06:20:00 5.7 C 93 % 4.66 C
1227 06-01-2019 06:25:00 5.7 C 93 % 4.66 C
1228 06-01-2019 06:30:00 5.7 C 93 % 4.66 C
1229 06-01-2019 06:35:00 5.7 C 93 % 4.66 C
1230 06-01-2019 06:40:00 5.7 C 93 % 4.66 C
1231 06-01-2019 06:45:00 5.7 C 93 % 4.66 C
1232 06-01-2019 06:50:00 5.7 C 93 % 4.66 C
1233 06-01-2019 06:55:00 5.7 C 93 % 4.66 C
1234 06-01-2019 07:00:00 5.7 C 93 % 4.66 C
1235 06-01-2019 07:05:00 5.7 C 93 % 4.66 C
1236 06-01-2019 07:10:00 5.7 C 93 % 4.66 C
1237 06-01-2019 07:15:00 5.7 C 93 % 4.66 C
1238 06-01-2019 07:20:00 5.7 C 93 % 4.66 C
1239 06-01-2019 07:25:00 5.7 C 93 % 4.66 C
1240 06-01-2019 07:30:00 5.7 C 93 % 4.66 C
1241 06-01-2019 07:35:00 5.7 C 93 % 4.66 C
1242 06-01-2019 07:40:00 5.7 C 93 % 4.66 C
1243 06-01-2019 07:45:00 5.7 C 93 % 4.66 C
1244 06-01-2019 07:50:00 5.7 C 93 % 4.66 C
1245 06-01-2019 07:55:00 5.7 C 93 % 4.66 C
1246 06-01-2019 08:00:00 5.7 C 93 % 4.66 C
1247 06-01-2019 08:05:00 5.7 C 93 % 4.66 C
1248 06-01-2019 08:10:00 5.7 C 93 % 4.66 C
1249 06-01-2019 08:15:00 5.7 C 93 % 4.66 C
1250 06-01-2019 08:20:00 5.7 C 93 % 4.66 C
Sensor: Nr:Datum:Temp:Feuchte:Taupunkt:
Aussen-T/F 1251 06-01-2019 08:25:00 5.7 C 93 % 4.66 C
1252 06-01-2019 08:30:00 5.6 C 93 % 4.56 C
1253 06-01-2019 08:35:00 5.7 C 93 % 4.66 C
1254 06-01-2019 08:40:00 5.7 C 92 % 4.5 C
1255 06-01-2019 08:45:00 5.7 C 93 % 4.66 C
1256 06-01-2019 08:50:00 5.7 C 92 % 4.5 C
1257 06-01-2019 08:55:00 5.7 C 93 % 4.66 C
1258 06-01-2019 09:00:00 5.7 C 92 % 4.5 C
1259 06-01-2019 09:05:00 5.7 C 92 % 4.5 C
1260 06-01-2019 09:10:00 5.7 C 92 % 4.5 C
1261 06-01-2019 09:15:00 5.7 C 92 % 4.5 C
1262 06-01-2019 09:20:00 5.7 C 92 % 4.5 C
1263 06-01-2019 09:25:00 5.7 C 92 % 4.5 C
1264 06-01-2019 09:30:00 5.7 C 92 % 4.5 C
1265 06-01-2019 09:35:00 5.7 C 92 % 4.5 C
1266 06-01-2019 09:40:00 5.7 C 92 % 4.5 C
1267 06-01-2019 09:45:00 5.7 C 92 % 4.5 C
1268 06-01-2019 09:50:00 5.7 C 92 % 4.5 C
1269 06-01-2019 09:55:00 5.7 C 92 % 4.5 C
1270 06-01-2019 10:00:00 5.7 C 92 % 4.5 C
1271 06-01-2019 10:05:00 5.8 C 92 % 4.6 C
1272 06-01-2019 10:10:00 5.8 C 92 % 4.6 C
1273 06-01-2019 10:15:00 5.8 C 92 % 4.6 C
1274 06-01-2019 10:20:00 5.8 C 92 % 4.6 C
1275 06-01-2019 10:25:00 5.8 C 92 % 4.6 C
Sensor: Nr:Datum:Temp:Feuchte:Taupunkt:
Aussen-T/F 1276 06-01-2019 10:30:00 5.8 C 92 % 4.6 C
1277 06-01-2019 10:35:00 5.8 C 92 % 4.6 C
1278 06-01-2019 10:40:00 5.8 C 92 % 4.6 C
1279 06-01-2019 10:45:00 5.8 C 92 % 4.6 C
1280 06-01-2019 10:50:00 5.8 C 92 % 4.6 C
1281 06-01-2019 10:55:00 5.8 C 92 % 4.6 C
1282 06-01-2019 11:00:00 5.9 C 92 % 4.7 C
1283 06-01-2019 11:05:00 5.9 C 92 % 4.7 C
1284 06-01-2019 11:10:00 5.9 C 91 % 4.55 C
1285 06-01-2019 11:15:00 5.9 C 91 % 4.55 C
1286 06-01-2019 11:20:00 5.9 C 91 % 4.55 C
1287 06-01-2019 11:25:00 5.9 C 91 % 4.55 C
1288 06-01-2019 11:30:00 5.9 C 91 % 4.55 C
1289 06-01-2019 11:35:00 6 C 91 % 4.65 C
1290 06-01-2019 11:40:00 6.1 C 91 % 4.74 C
1291 06-01-2019 11:45:00 6.1 C 91 % 4.74 C
1292 06-01-2019 11:50:00 6.1 C 91 % 4.74 C
1293 06-01-2019 11:55:00 6.1 C 91 % 4.74 C
1294 06-01-2019 12:00:00 6.2 C 91 % 4.84 C
1295 06-01-2019 12:05:00 6.2 C 91 % 4.84 C
1296 06-01-2019 12:10:00 6.2 C 91 % 4.84 C
1297 06-01-2019 12:15:00 6.2 C 90 % 4.69 C
1298 06-01-2019 12:20:00 6.3 C 90 % 4.78 C
1299 06-01-2019 12:25:00 6.3 C 90 % 4.78 C
1300 06-01-2019 12:30:00 6.3 C 90 % 4.78 C
Sensor: Nr:Datum:Temp:Feuchte:Taupunkt:
Aussen-T/F 1301 06-01-2019 12:35:00 6.3 C 90 % 4.78 C
1302 06-01-2019 12:40:00 6.3 C 90 % 4.78 C
1303 06-01-2019 12:45:00 6.4 C 90 % 4.88 C
1304 06-01-2019 12:50:00 6.3 C 90 % 4.78 C
1305 06-01-2019 12:55:00 6.3 C 90 % 4.78 C
1306 06-01-2019 13:00:00 6.3 C 90 % 4.78 C
1307 06-01-2019 13:05:00 6.3 C 90 % 4.78 C
1308 06-01-2019 13:10:00 6.3 C 90 % 4.78 C
1309 06-01-2019 13:15:00 6.3 C 90 % 4.78 C
1310 06-01-2019 13:20:00 6.3 C 90 % 4.78 C
1311 06-01-2019 13:25:00 6.3 C 90 % 4.78 C
1312 06-01-2019 13:30:00 6.3 C 90 % 4.78 C
1313 06-01-2019 13:35:00 6.4 C 90 % 4.88 C
1314 06-01-2019 13:40:00 6.4 C 90 % 4.88 C
1315 06-01-2019 13:45:00 6.4 C 90 % 4.88 C
1316 06-01-2019 13:50:00 6.3 C 90 % 4.78 C
1317 06-01-2019 13:55:00 6.3 C 90 % 4.78 C
1318 06-01-2019 14:00:00 6.3 C 90 % 4.78 C
1319 06-01-2019 14:05:00 6.3 C 91 % 4.94 C
1320 06-01-2019 14:10:00 6.3 C 90 % 4.78 C
1321 06-01-2019 14:15:00 6.3 C 91 % 4.94 C
1322 06-01-2019 14:20:00 6.2 C 90 % 4.69 C
1323 06-01-2019 14:25:00 6.2 C 91 % 4.84 C
1324 06-01-2019 14:30:00 6.2 C 91 % 4.84 C
1325 06-01-2019 14:35:00 6.2 C 91 % 4.84 C
Sensor: Nr:Datum:Temp:Feuchte:Taupunkt:
Aussen-T/F 1326 06-01-2019 14:40:00 6.2 C 91 % 4.84 C
1327 06-01-2019 14:45:00 6.2 C 91 % 4.84 C
1328 06-01-2019 14:50:00 6.2 C 91 % 4.84 C
1329 06-01-2019 14:55:00 6.2 C 91 % 4.84 C
1330 06-01-2019 15:00:00 6.2 C 91 % 4.84 C
1331 06-01-2019 15:05:00 6.2 C 91 % 4.84 C
1332 06-01-2019 15:10:00 6.2 C 91 % 4.84 C
1333 06-01-2019 15:15:00 6.1 C 90 % 4.59 C
1334 06-01-2019 15:20:00 6.1 C 90 % 4.59 C
1335 06-01-2019 15:25:00 6.1 C 90 % 4.59 C
1336 06-01-2019 15:30:00 6.1 C 90 % 4.59 C
1337 06-01-2019 15:35:00 6.1 C 90 % 4.59 C
1338 06-01-2019 15:40:00 6.1 C 90 % 4.59 C
1339 06-01-2019 15:45:00 6.1 C 90 % 4.59 C
1340 06-01-2019 15:50:00 6.1 C 90 % 4.59 C
1341 06-01-2019 15:55:00 6.1 C 90 % 4.59 C
1342 06-01-2019 16:00:00 6.1 C 90 % 4.59 C
1343 06-01-2019 16:05:00 6.1 C 90 % 4.59 C
1344 06-01-2019 16:10:00 6.1 C 90 % 4.59 C
1345 06-01-2019 16:15:00 6.1 C 90 % 4.59 C
1346 06-01-2019 16:20:00 6 C 90 % 4.49 C
1347 06-01-2019 16:25:00 6 C 90 % 4.49 C
1348 06-01-2019 16:30:00 6 C 90 % 4.49 C
1349 06-01-2019 16:35:00 6 C 90 % 4.49 C
1350 06-01-2019 16:40:00 6 C 90 % 4.49 C
Sensor: Nr:Datum:Temp:Feuchte:Taupunkt:
Aussen-T/F 1351 06-01-2019 16:45:00 6 C 90 % 4.49 C
1352 06-01-2019 16:50:00 6 C 91 % 4.65 C
1353 06-01-2019 16:55:00 5.9 C 91 % 4.55 C
1354 06-01-2019 17:00:00 5.9 C 91 % 4.55 C
1355 06-01-2019 17:05:00 5.9 C 91 % 4.55 C
1356 06-01-2019 17:10:00 5.9 C 91 % 4.55 C
1357 06-01-2019 17:15:00 5.9 C 91 % 4.55 C
1358 06-01-2019 17:20:00 5.8 C 91 % 4.45 C
1359 06-01-2019 17:25:00 5.8 C 90 % 4.29 C
1360 06-01-2019 17:30:00 5.8 C 90 % 4.29 C
1361 06-01-2019 17:35:00 5.8 C 90 % 4.29 C
1362 06-01-2019 17:40:00 5.8 C 91 % 4.45 C
1363 06-01-2019 17:45:00 5.8 C 91 % 4.45 C
1364 06-01-2019 17:50:00 5.7 C 91 % 4.35 C
1365 06-01-2019 17:55:00 5.7 C 91 % 4.35 C
1366 06-01-2019 18:00:00 5.7 C 91 % 4.35 C
1367 06-01-2019 18:05:00 5.7 C 91 % 4.35 C
1368 06-01-2019 18:10:00 5.6 C 91 % 4.25 C
1369 06-01-2019 18:15:00 5.6 C 91 % 4.25 C
1370 06-01-2019 18:20:00 5.6 C 91 % 4.25 C
1371 06-01-2019 18:25:00 5.6 C 91 % 4.25 C
1372 06-01-2019 18:30:00 5.6 C 91 % 4.25 C
1373 06-01-2019 18:35:00 5.5 C 91 % 4.15 C
1374 06-01-2019 18:40:00 5.5 C 91 % 4.15 C
1375 06-01-2019 18:45:00 5.5 C 91 % 4.15 C
Sensor: Nr:Datum:Temp:Feuchte:Taupunkt:
Aussen-T/F 1376 06-01-2019 18:50:00 5.5 C 91 % 4.15 C
1377 06-01-2019 18:55:00 5.4 C 91 % 4.05 C
1378 06-01-2019 19:00:00 5.4 C 91 % 4.05 C
1379 06-01-2019 19:05:00 5.4 C 91 % 4.05 C
1380 06-01-2019 19:10:00 5.4 C 91 % 4.05 C
1381 06-01-2019 19:15:00 5.3 C 91 % 3.95 C
1382 06-01-2019 19:20:00 5.3 C 91 % 3.95 C
1383 06-01-2019 19:25:00 5.3 C 91 % 3.95 C
1384 06-01-2019 19:30:00 5.3 C 91 % 3.95 C
1385 06-01-2019 19:35:00 5.3 C 91 % 3.95 C
1386 06-01-2019 19:40:00 5.2 C 91 % 3.85 C
1387 06-01-2019 19:45:00 5.2 C 92 % 4.01 C
1388 06-01-2019 19:50:00 5.2 C 91 % 3.85 C
1389 06-01-2019 19:55:00 5.2 C 91 % 3.85 C
1390 06-01-2019 20:00:00 5.2 C 92 % 4.01 C
1391 06-01-2019 20:05:00 5.2 C 92 % 4.01 C
1392 06-01-2019 20:10:00 5.2 C 91 % 3.85 C
1393 06-01-2019 20:15:00 5.2 C 91 % 3.85 C
1394 06-01-2019 20:20:00 5.2 C 91 % 3.85 C
1395 06-01-2019 20:25:00 5.2 C 91 % 3.85 C
1396 06-01-2019 20:30:00 5.3 C 91 % 3.95 C
1397 06-01-2019 20:35:00 5.3 C 91 % 3.95 C
1398 06-01-2019 20:40:00 5.3 C 91 % 3.95 C
1399 06-01-2019 20:45:00 5.3 C 91 % 3.95 C
1400 06-01-2019 20:50:00 5.3 C 91 % 3.95 C
Sensor: Nr:Datum:Temp:Feuchte:Taupunkt:
Aussen-T/F 1401 06-01-2019 20:55:00 5.3 C 91 % 3.95 C
1402 06-01-2019 21:00:00 5.3 C 91 % 3.95 C
1403 06-01-2019 21:05:00 5.3 C 91 % 3.95 C
1404 06-01-2019 21:10:00 5.3 C 91 % 3.95 C
1405 06-01-2019 21:15:00 5.3 C 91 % 3.95 C
1406 06-01-2019 21:20:00 5.3 C 91 % 3.95 C
1407 06-01-2019 21:25:00 5.3 C 91 % 3.95 C
1408 06-01-2019 21:30:00 5.4 C 91 % 4.05 C
1409 06-01-2019 21:35:00 5.4 C 91 % 4.05 C
1410 06-01-2019 21:40:00 5.4 C 91 % 4.05 C
1411 06-01-2019 21:45:00 5.4 C 91 % 4.05 C
1412 06-01-2019 21:50:00 5.4 C 91 % 4.05 C
1413 06-01-2019 21:55:00 5.5 C 91 % 4.15 C
1414 06-01-2019 22:00:00 5.4 C 91 % 4.05 C
1415 06-01-2019 22:05:00 5.4 C 91 % 4.05 C
1416 06-01-2019 22:10:00 5.4 C 91 % 4.05 C
1417 06-01-2019 22:15:00 5.4 C 91 % 4.05 C
1418 06-01-2019 22:20:00 5.4 C 91 % 4.05 C
1419 06-01-2019 22:25:00 5.4 C 91 % 4.05 C
1420 06-01-2019 22:30:00 5.4 C 91 % 4.05 C
1421 06-01-2019 22:35:00 5.4 C 91 % 4.05 C
1422 06-01-2019 22:40:00 5.4 C 91 % 4.05 C
1423 06-01-2019 22:45:00 5.4 C 91 % 4.05 C
1424 06-01-2019 22:50:00 5.3 C 91 % 3.95 C
1425 06-01-2019 22:55:00 5.3 C 91 % 3.95 C
Sensor: Nr:Datum:Temp:Feuchte:Taupunkt:
Aussen-T/F 1426 06-01-2019 23:00:00 5.3 C 91 % 3.95 C
1427 06-01-2019 23:05:00 5.3 C 91 % 3.95 C
1428 06-01-2019 23:10:00 5.3 C 91 % 3.95 C
1429 06-01-2019 23:15:00 5.3 C 91 % 3.95 C
1430 06-01-2019 23:20:00 5.3 C 91 % 3.95 C
1431 06-01-2019 23:25:00 5.3 C 91 % 3.95 C
1432 06-01-2019 23:30:00 5.4 C 91 % 4.05 C
1433 06-01-2019 23:35:00 5.4 C 92 % 4.21 C
1434 06-01-2019 23:40:00 5.4 C 91 % 4.05 C
1435 06-01-2019 23:45:00 5.4 C 91 % 4.05 C
1436 06-01-2019 23:50:00 5.4 C 91 % 4.05 C
1437 06-01-2019 23:55:00 5.4 C 91 % 4.05 C
1438 07-01-2019 00:00:00 5.4 C 91 % 4.05 C
1439 07-01-2019 00:05:00 5.4 C 91 % 4.05 C
1440 07-01-2019 00:10:00 5.4 C 91 % 4.05 C
1441 07-01-2019 00:15:00 5.4 C 91 % 4.05 C
1442 07-01-2019 00:20:00 5.4 C 91 % 4.05 C
1443 07-01-2019 00:25:00 5.4 C 91 % 4.05 C
1444 07-01-2019 00:30:00 5.4 C 91 % 4.05 C
1445 07-01-2019 00:35:00 5.4 C 91 % 4.05 C
1446 07-01-2019 00:40:00 5.4 C 91 % 4.05 C
1447 07-01-2019 00:45:00 5.4 C 91 % 4.05 C
1448 07-01-2019 00:50:00 5.3 C 91 % 3.95 C
1449 07-01-2019 00:55:00 5.3 C 91 % 3.95 C
1450 07-01-2019 01:00:00 5.3 C 91 % 3.95 C
Sensor: Nr:Datum:Temp:Feuchte:Taupunkt:
Aussen-T/F 1451 07-01-2019 01:05:00 5.3 C 91 % 3.95 C
1452 07-01-2019 01:10:00 5.3 C 91 % 3.95 C
1453 07-01-2019 01:15:00 5.3 C 91 % 3.95 C
1454 07-01-2019 01:20:00 5.3 C 91 % 3.95 C
1455 07-01-2019 01:25:00 5.3 C 91 % 3.95 C
1456 07-01-2019 01:30:00 5.3 C 91 % 3.95 C
1457 07-01-2019 01:35:00 5.2 C 91 % 3.85 C
1458 07-01-2019 01:40:00 5.2 C 91 % 3.85 C
1459 07-01-2019 01:45:00 5.2 C 91 % 3.85 C
1460 07-01-2019 01:50:00 5.2 C 91 % 3.85 C
1461 07-01-2019 01:55:00 5.2 C 91 % 3.85 C
1462 07-01-2019 02:00:00 5.2 C 91 % 3.85 C
1463 07-01-2019 02:05:00 5.2 C 91 % 3.85 C
1464 07-01-2019 02:10:00 5.2 C 91 % 3.85 C
1465 07-01-2019 02:15:00 5.2 C 91 % 3.85 C
1466 07-01-2019 02:20:00 5.2 C 91 % 3.85 C
1467 07-01-2019 02:25:00 5.2 C 91 % 3.85 C
1468 07-01-2019 02:30:00 5.2 C 91 % 3.85 C
1469 07-01-2019 02:35:00 5.2 C 91 % 3.85 C
1470 07-01-2019 02:40:00 5.2 C 91 % 3.85 C
1471 07-01-2019 02:45:00 5.2 C 91 % 3.85 C
1472 07-01-2019 02:50:00 5.2 C 91 % 3.85 C
1473 07-01-2019 02:55:00 5.2 C 91 % 3.85 C
1474 07-01-2019 03:00:00 5.2 C 91 % 3.85 C
1475 07-01-2019 03:05:00 5.2 C 91 % 3.85 C
Sensor: Nr:Datum:Temp:Feuchte:Taupunkt:
Aussen-T/F 1476 07-01-2019 03:10:00 5.2 C 91 % 3.85 C
1477 07-01-2019 03:15:00 5.2 C 91 % 3.85 C
1478 07-01-2019 03:20:00 5.2 C 91 % 3.85 C
1479 07-01-2019 03:25:00 5.2 C 91 % 3.85 C
1480 07-01-2019 03:30:00 5.2 C 91 % 3.85 C
1481 07-01-2019 03:35:00 5.2 C 91 % 3.85 C
1482 07-01-2019 03:40:00 5.2 C 92 % 4.01 C
1483 07-01-2019 03:45:00 5.2 C 92 % 4.01 C
1484 07-01-2019 03:50:00 5.2 C 92 % 4.01 C
1485 07-01-2019 03:55:00 5.2 C 92 % 4.01 C
1486 07-01-2019 04:00:00 5.2 C 92 % 4.01 C
1487 07-01-2019 04:05:00 5.1 C 92 % 3.91 C
1488 07-01-2019 04:10:00 5.1 C 92 % 3.91 C
1489 07-01-2019 04:15:00 5.1 C 92 % 3.91 C
1490 07-01-2019 04:20:00 5.1 C 92 % 3.91 C
1491 07-01-2019 04:25:00 5.1 C 92 % 3.91 C
1492 07-01-2019 04:30:00 5.1 C 91 % 3.76 C
1493 07-01-2019 04:35:00 5.1 C 91 % 3.76 C
1494 07-01-2019 04:40:00 5.1 C 91 % 3.76 C
1495 07-01-2019 04:45:00 5.1 C 91 % 3.76 C
1496 07-01-2019 04:50:00 5.1 C 91 % 3.76 C
1497 07-01-2019 04:55:00 5.1 C 91 % 3.76 C
1498 07-01-2019 05:00:00 5.1 C 91 % 3.76 C
1499 07-01-2019 05:05:00 5.1 C 91 % 3.76 C
1500 07-01-2019 05:10:00 5 C 91 % 3.66 C
Sensor: Nr:Datum:Temp:Feuchte:Taupunkt:
Aussen-T/F 1501 07-01-2019 05:15:00 5 C 91 % 3.66 C
1502 07-01-2019 05:20:00 5 C 91 % 3.66 C
1503 07-01-2019 05:25:00 5 C 91 % 3.66 C
1504 07-01-2019 05:30:00 4.9 C 91 % 3.56 C
1505 07-01-2019 05:35:00 4.9 C 91 % 3.56 C
1506 07-01-2019 05:40:00 4.9 C 91 % 3.56 C
1507 07-01-2019 05:45:00 4.9 C 91 % 3.56 C
1508 07-01-2019 05:50:00 4.9 C 91 % 3.56 C
1509 07-01-2019 05:55:00 4.9 C 92 % 3.71 C
1510 07-01-2019 06:00:00 4.9 C 92 % 3.71 C
1511 07-01-2019 06:05:00 4.9 C 92 % 3.71 C
1512 07-01-2019 06:10:00 4.9 C 92 % 3.71 C
1513 07-01-2019 06:15:00 4.8 C 92 % 3.61 C
1514 07-01-2019 06:20:00 4.8 C 92 % 3.61 C
1515 07-01-2019 06:25:00 4.8 C 92 % 3.61 C
1516 07-01-2019 06:30:00 4.8 C 92 % 3.61 C
1517 07-01-2019 06:35:00 4.8 C 92 % 3.61 C
1518 07-01-2019 06:40:00 4.8 C 92 % 3.61 C
1519 07-01-2019 06:45:00 4.8 C 92 % 3.61 C
1520 07-01-2019 06:50:00 4.8 C 92 % 3.61 C
1521 07-01-2019 06:55:00 4.8 C 92 % 3.61 C
1522 07-01-2019 07:00:00 4.7 C 92 % 3.51 C
1523 07-01-2019 07:05:00 4.7 C 92 % 3.51 C
1524 07-01-2019 07:10:00 4.7 C 92 % 3.51 C
1525 07-01-2019 07:15:00 4.7 C 91 % 3.36 C
Sensor: Nr:Datum:Temp:Feuchte:Taupunkt:
Aussen-T/F 1526 07-01-2019 07:20:00 4.7 C 91 % 3.36 C
1527 07-01-2019 07:25:00 4.6 C 91 % 3.26 C
1528 07-01-2019 07:30:00 4.6 C 91 % 3.26 C
1529 07-01-2019 07:35:00 4.6 C 92 % 3.42 C
1530 07-01-2019 07:40:00 4.6 C 92 % 3.42 C
1531 07-01-2019 07:45:00 4.6 C 92 % 3.42 C
1532 07-01-2019 07:50:00 4.6 C 92 % 3.42 C
1533 07-01-2019 07:55:00 4.6 C 92 % 3.42 C
1534 07-01-2019 08:00:00 4.5 C 92 % 3.32 C
1535 07-01-2019 08:05:00 4.5 C 92 % 3.32 C
1536 07-01-2019 08:10:00 4.5 C 92 % 3.32 C
1537 07-01-2019 08:15:00 4.4 C 92 % 3.22 C
1538 07-01-2019 08:20:00 4.4 C 92 % 3.22 C
1539 07-01-2019 08:25:00 4.4 C 92 % 3.22 C
1540 07-01-2019 08:30:00 4.4 C 92 % 3.22 C
1541 07-01-2019 08:35:00 4.3 C 93 % 3.27 C
1542 07-01-2019 08:40:00 4.3 C 93 % 3.27 C
1543 07-01-2019 08:45:00 4.3 C 93 % 3.27 C
1544 07-01-2019 08:50:00 4.3 C 93 % 3.27 C
1545 07-01-2019 08:55:00 4.3 C 93 % 3.27 C
1546 07-01-2019 09:00:00 4.3 C 93 % 3.27 C
1547 07-01-2019 09:05:00 4.3 C 93 % 3.27 C
1548 07-01-2019 09:10:00 4.3 C 93 % 3.27 C
1549 07-01-2019 09:15:00 4.4 C 93 % 3.37 C
1550 07-01-2019 09:20:00 4.4 C 93 % 3.37 C
Sensor: Nr:Datum:Temp:Feuchte:Taupunkt:
Aussen-T/F 1551 07-01-2019 09:25:00 4.4 C 93 % 3.37 C
1552 07-01-2019 09:30:00 4.4 C 93 % 3.37 C
1553 07-01-2019 09:35:00 4.4 C 93 % 3.37 C
1554 07-01-2019 09:40:00 4.4 C 93 % 3.37 C
1555 07-01-2019 09:45:00 4.4 C 93 % 3.37 C
1556 07-01-2019 09:50:00 4.5 C 93 % 3.47 C
1557 07-01-2019 09:55:00 4.5 C 93 % 3.47 C
1558 07-01-2019 10:00:00 4.5 C 93 % 3.47 C
1559 07-01-2019 10:05:00 4.5 C 93 % 3.47 C
1560 07-01-2019 10:10:00 4.5 C 93 % 3.47 C
1561 07-01-2019 10:15:00 4.5 C 93 % 3.47 C
1562 07-01-2019 10:20:00 4.5 C 93 % 3.47 C
1563 07-01-2019 10:25:00 4.4 C 93 % 3.37 C
1564 07-01-2019 10:30:00 4.4 C 93 % 3.37 C
1565 07-01-2019 10:35:00 4.6 C 93 % 3.57 C
1566 07-01-2019 10:40:00 4.6 C 94 % 3.72 C
1567 07-01-2019 10:45:00 4.7 C 93 % 3.67 C
1568 07-01-2019 10:50:00 4.7 C 93 % 3.67 C
1569 07-01-2019 10:55:00 4.8 C 93 % 3.77 C
1570 07-01-2019 11:00:00 4.8 C 92 % 3.61 C
1571 07-01-2019 11:05:00 4.9 C 92 % 3.71 C
1572 07-01-2019 11:10:00 4.9 C 92 % 3.71 C
1573 07-01-2019 11:15:00 5 C 92 % 3.81 C
1574 07-01-2019 11:20:00 5 C 91 % 3.66 C
1575 07-01-2019 11:25:00 5 C 91 % 3.66 C
Sensor: Nr:Datum:Temp:Feuchte:Taupunkt:
Aussen-T/F 1576 07-01-2019 11:30:00 5 C 91 % 3.66 C
1577 07-01-2019 11:35:00 4.9 C 91 % 3.56 C
1578 07-01-2019 11:40:00 5 C 91 % 3.66 C
1579 07-01-2019 11:45:00 5.1 C 92 % 3.91 C
1580 07-01-2019 11:50:00 5.1 C 91 % 3.76 C
1581 07-01-2019 11:55:00 5.2 C 91 % 3.85 C
1582 07-01-2019 12:00:00 5.3 C 91 % 3.95 C
1583 07-01-2019 12:05:00 5.5 C 90 % 3.99 C
1584 07-01-2019 12:10:00 5.7 C 88 % 3.87 C
1585 07-01-2019 12:15:00 5.8 C 88 % 3.97 C
1586 07-01-2019 12:20:00 5.9 C 86 % 3.74 C
1587 07-01-2019 12:25:00 6 C 85 % 3.67 C
1588 07-01-2019 12:30:00 6.1 C 85 % 3.77 C
1589 07-01-2019 12:35:00 6.2 C 85 % 3.87 C
1590 07-01-2019 12:40:00 6.2 C 85 % 3.87 C
1591 07-01-2019 12:45:00 6.3 C 85 % 3.97 C
1592 07-01-2019 12:50:00 6.3 C 85 % 3.97 C
1593 07-01-2019 12:55:00 6.4 C 85 % 4.07 C
1594 07-01-2019 13:00:00 6.4 C 84 % 3.9 C
1595 07-01-2019 13:05:00 6.5 C 84 % 4 C
1596 07-01-2019 13:10:00 6.6 C 84 % 4.1 C
1597 07-01-2019 13:15:00 6.6 C 83 % 3.92 C
1598 07-01-2019 13:20:00 6.7 C 84 % 4.19 C
1599 07-01-2019 13:25:00 6.7 C 84 % 4.19 C
1600 07-01-2019 13:30:00 6.8 C 83 % 4.12 C
Sensor: Nr:Datum:Temp:Feuchte:Taupunkt:
Aussen-T/F 1601 07-01-2019 13:35:00 6.8 C 83 % 4.12 C
1602 07-01-2019 13:40:00 6.8 C 83 % 4.12 C
1603 07-01-2019 13:45:00 6.8 C 83 % 4.12 C
1604 07-01-2019 13:50:00 6.9 C 83 % 4.22 C
1605 07-01-2019 13:55:00 6.9 C 83 % 4.22 C
1606 07-01-2019 14:00:00 6.9 C 82 % 4.05 C
1607 07-01-2019 14:05:00 6.9 C 83 % 4.22 C
1608 07-01-2019 14:10:00 6.9 C 82 % 4.05 C
1609 07-01-2019 14:15:00 6.9 C 83 % 4.22 C
1610 07-01-2019 14:20:00 6.9 C 82 % 4.05 C
1611 07-01-2019 14:25:00 6.9 C 83 % 4.22 C
1612 07-01-2019 14:30:00 7 C 83 % 4.32 C
1613 07-01-2019 14:35:00 7 C 83 % 4.32 C
1614 07-01-2019 14:40:00 7 C 83 % 4.32 C
1615 07-01-2019 14:45:00 7 C 83 % 4.32 C
1616 07-01-2019 14:50:00 7 C 82 % 4.14 C
1617 07-01-2019 14:55:00 7 C 83 % 4.32 C
1618 07-01-2019 15:00:00 7 C 83 % 4.32 C
1619 07-01-2019 15:05:00 7 C 82 % 4.14 C
1620 07-01-2019 15:10:00 6.9 C 81 % 3.87 C
1621 07-01-2019 15:15:00 6.9 C 82 % 4.05 C
1622 07-01-2019 15:20:00 6.9 C 82 % 4.05 C
1623 07-01-2019 15:25:00 6.9 C 82 % 4.05 C
1624 07-01-2019 15:30:00 6.9 C 83 % 4.22 C
1625 07-01-2019 15:35:00 6.9 C 84 % 4.39 C
Sensor: Nr:Datum:Temp:Feuchte:Taupunkt:
Aussen-T/F 1626 07-01-2019 15:40:00 6.8 C 84 % 4.29 C
1627 07-01-2019 15:45:00 6.7 C 85 % 4.36 C
1628 07-01-2019 15:50:00 6.7 C 85 % 4.36 C
1629 07-01-2019 15:55:00 6.6 C 85 % 4.26 C
1630 07-01-2019 16:00:00 6.5 C 86 % 4.33 C
1631 07-01-2019 16:05:00 6.4 C 86 % 4.23 C
1632 07-01-2019 16:10:00 6.4 C 86 % 4.23 C
1633 07-01-2019 16:15:00 6.3 C 86 % 4.14 C
1634 07-01-2019 16:20:00 6.3 C 85 % 3.97 C
1635 07-01-2019 16:25:00 6.3 C 85 % 3.97 C
1636 07-01-2019 16:30:00 6.3 C 86 % 4.14 C
1637 07-01-2019 16:35:00 6.3 C 86 % 4.14 C
1638 07-01-2019 16:40:00 6.2 C 86 % 4.04 C
1639 07-01-2019 16:45:00 6.2 C 88 % 4.36 C
1640 07-01-2019 16:50:00 6 C 88 % 4.17 C
1641 07-01-2019 16:55:00 5.9 C 88 % 4.07 C
1642 07-01-2019 17:00:00 5.8 C 89 % 4.13 C
1643 07-01-2019 17:05:00 5.8 C 89 % 4.13 C
1644 07-01-2019 17:10:00 5.7 C 89 % 4.03 C
1645 07-01-2019 17:15:00 5.7 C 89 % 4.03 C
1646 07-01-2019 17:20:00 5.7 C 89 % 4.03 C
1647 07-01-2019 17:25:00 5.7 C 89 % 4.03 C
1648 07-01-2019 17:30:00 5.7 C 88 % 3.87 C
1649 07-01-2019 17:35:00 5.8 C 88 % 3.97 C
1650 07-01-2019 17:40:00 5.8 C 87 % 3.81 C
Sensor: Nr:Datum:Temp:Feuchte:Taupunkt:
Aussen-T/F 1651 07-01-2019 17:45:00 5.8 C 87 % 3.81 C
1652 07-01-2019 17:50:00 5.8 C 87 % 3.81 C
1653 07-01-2019 17:55:00 5.7 C 87 % 3.71 C
1654 07-01-2019 18:00:00 5.7 C 88 % 3.87 C
1655 07-01-2019 18:05:00 5.7 C 88 % 3.87 C
1656 07-01-2019 18:10:00 5.6 C 88 % 3.77 C
1657 07-01-2019 18:15:00 5.5 C 89 % 3.84 C
1658 07-01-2019 18:20:00 5.5 C 89 % 3.84 C
1659 07-01-2019 18:25:00 5.4 C 89 % 3.74 C
1660 07-01-2019 18:30:00 5.4 C 89 % 3.74 C
1661 07-01-2019 18:35:00 5.4 C 89 % 3.74 C
1662 07-01-2019 18:40:00 5.4 C 89 % 3.74 C
1663 07-01-2019 18:45:00 5.4 C 89 % 3.74 C
1664 07-01-2019 18:50:00 5.4 C 89 % 3.74 C
1665 07-01-2019 18:55:00 5.4 C 89 % 3.74 C
1666 07-01-2019 19:00:00 5.4 C 89 % 3.74 C
1667 07-01-2019 19:05:00 5.4 C 89 % 3.74 C
1668 07-01-2019 19:10:00 5.4 C 89 % 3.74 C
1669 07-01-2019 19:15:00 5.4 C 89 % 3.74 C
1670 07-01-2019 19:20:00 5.5 C 89 % 3.84 C
1671 07-01-2019 19:25:00 5.6 C 89 % 3.93 C
1672 07-01-2019 19:30:00 5.6 C 89 % 3.93 C
1673 07-01-2019 19:35:00 5.6 C 89 % 3.93 C
1674 07-01-2019 19:40:00 5.7 C 89 % 4.03 C
1675 07-01-2019 19:45:00 5.7 C 89 % 4.03 C
Sensor: Nr:Datum:Temp:Feuchte:Taupunkt:
Aussen-T/F 1676 07-01-2019 19:50:00 5.7 C 89 % 4.03 C
1677 07-01-2019 19:55:00 5.7 C 89 % 4.03 C
1678 07-01-2019 20:00:00 5.8 C 89 % 4.13 C
1679 07-01-2019 20:05:00 5.8 C 89 % 4.13 C
1680 07-01-2019 20:10:00 5.8 C 89 % 4.13 C
1681 07-01-2019 20:15:00 5.8 C 90 % 4.29 C
1682 07-01-2019 20:20:00 5.8 C 90 % 4.29 C
1683 07-01-2019 20:25:00 5.9 C 90 % 4.39 C
1684 07-01-2019 20:30:00 5.9 C 90 % 4.39 C
1685 07-01-2019 20:35:00 6.1 C 90 % 4.59 C
1686 07-01-2019 20:40:00 6.1 C 90 % 4.59 C
1687 07-01-2019 20:45:00 6.1 C 90 % 4.59 C
1688 07-01-2019 20:50:00 6.1 C 90 % 4.59 C
1689 07-01-2019 20:55:00 6.1 C 90 % 4.59 C
1690 07-01-2019 21:00:00 6.1 C 90 % 4.59 C
1691 07-01-2019 21:05:00 6 C 91 % 4.65 C
1692 07-01-2019 21:10:00 5.9 C 91 % 4.55 C
1693 07-01-2019 21:15:00 5.9 C 92 % 4.7 C
1694 07-01-2019 21:20:00 5.9 C 92 % 4.7 C
1695 07-01-2019 21:25:00 5.8 C 92 % 4.6 C
1696 07-01-2019 21:30:00 5.8 C 92 % 4.6 C
1697 07-01-2019 21:35:00 5.8 C 93 % 4.76 C
1698 07-01-2019 21:40:00 5.8 C 93 % 4.76 C
1699 07-01-2019 21:45:00 5.8 C 93 % 4.76 C
1700 07-01-2019 21:50:00 5.8 C 93 % 4.76 C
Sensor: Nr:Datum:Temp:Feuchte:Taupunkt:
Aussen-T/F 1701 07-01-2019 21:55:00 5.8 C 93 % 4.76 C
1702 07-01-2019 22:00:00 5.8 C 93 % 4.76 C
1703 07-01-2019 22:05:00 5.8 C 93 % 4.76 C
1704 07-01-2019 22:10:00 5.8 C 93 % 4.76 C
1705 07-01-2019 22:15:00 5.8 C 93 % 4.76 C
1706 07-01-2019 22:20:00 5.8 C 93 % 4.76 C
1707 07-01-2019 22:25:00 5.8 C 93 % 4.76 C
1708 07-01-2019 22:30:00 5.8 C 93 % 4.76 C
1709 07-01-2019 22:35:00 5.8 C 93 % 4.76 C
1710 07-01-2019 22:40:00 5.9 C 94 % 5.01 C
1711 07-01-2019 22:45:00 5.9 C 94 % 5.01 C
1712 07-01-2019 22:50:00 5.9 C 94 % 5.01 C
1713 07-01-2019 22:55:00 5.9 C 94 % 5.01 C
1714 07-01-2019 23:00:00 5.9 C 94 % 5.01 C
1715 07-01-2019 23:05:00 5.9 C 94 % 5.01 C
1716 07-01-2019 23:10:00 5.9 C 94 % 5.01 C
1717 07-01-2019 23:15:00 5.9 C 94 % 5.01 C
1718 07-01-2019 23:20:00 6 C 94 % 5.11 C
1719 07-01-2019 23:25:00 6 C 94 % 5.11 C
1720 07-01-2019 23:30:00 6.1 C 93 % 5.06 C
1721 07-01-2019 23:35:00 6.1 C 93 % 5.06 C
1722 07-01-2019 23:40:00 6.1 C 93 % 5.06 C
1723 07-01-2019 23:45:00 6.1 C 93 % 5.06 C
1724 07-01-2019 23:50:00 6.1 C 93 % 5.06 C
1725 07-01-2019 23:55:00 6.1 C 93 % 5.06 C
Sensor: Nr:Datum:Temp:Feuchte:Taupunkt:
Aussen-T/F 1726 08-01-2019 00:00:00 6.2 C 93 % 5.15 C
1727 08-01-2019 00:05:00 6.2 C 93 % 5.15 C
1728 08-01-2019 00:10:00 6.2 C 93 % 5.15 C
1729 08-01-2019 00:15:00 6.2 C 94 % 5.31 C
1730 08-01-2019 00:20:00 6.2 C 93 % 5.15 C
1731 08-01-2019 00:25:00 6.3 C 93 % 5.25 C
1732 08-01-2019 00:30:00 6.3 C 93 % 5.25 C
1733 08-01-2019 00:35:00 6.3 C 93 % 5.25 C
1734 08-01-2019 00:40:00 6.3 C 93 % 5.25 C
1735 08-01-2019 00:45:00 6.4 C 93 % 5.35 C
1736 08-01-2019 00:50:00 6.4 C 93 % 5.35 C
1737 08-01-2019 00:55:00 6.4 C 93 % 5.35 C
1738 08-01-2019 01:00:00 6.5 C 93 % 5.45 C
1739 08-01-2019 01:05:00 6.6 C 92 % 5.4 C
1740 08-01-2019 01:10:00 6.6 C 92 % 5.4 C
1741 08-01-2019 01:15:00 6.6 C 92 % 5.4 C
1742 08-01-2019 01:20:00 6.7 C 92 % 5.49 C
1743 08-01-2019 01:25:00 6.7 C 92 % 5.49 C
1744 08-01-2019 01:30:00 6.7 C 93 % 5.65 C
1745 08-01-2019 01:35:00 6.6 C 93 % 5.55 C
1746 08-01-2019 01:40:00 6.6 C 93 % 5.55 C
1747 08-01-2019 01:45:00 6.6 C 93 % 5.55 C
1748 08-01-2019 01:50:00 6.6 C 93 % 5.55 C
1749 08-01-2019 01:55:00 6.6 C 93 % 5.55 C
1750 08-01-2019 02:00:00 6.6 C 94 % 5.71 C
Sensor: Nr:Datum:Temp:Feuchte:Taupunkt:
Aussen-T/F 1751 08-01-2019 02:05:00 6.7 C 94 % 5.8 C
1752 08-01-2019 02:10:00 6.7 C 94 % 5.8 C
1753 08-01-2019 02:15:00 6.7 C 94 % 5.8 C
1754 08-01-2019 02:20:00 6.7 C 94 % 5.8 C
1755 08-01-2019 02:25:00 6.7 C 94 % 5.8 C
1756 08-01-2019 02:30:00 6.7 C 94 % 5.8 C
1757 08-01-2019 02:35:00 6.8 C 94 % 5.9 C
1758 08-01-2019 02:40:00 6.8 C 94 % 5.9 C
1759 08-01-2019 02:45:00 6.8 C 94 % 5.9 C
1760 08-01-2019 02:50:00 6.8 C 94 % 5.9 C
1761 08-01-2019 02:55:00 6.8 C 95 % 6.06 C
1762 08-01-2019 03:00:00 6.8 C 95 % 6.06 C
1763 08-01-2019 03:05:00 6.8 C 95 % 6.06 C
1764 08-01-2019 03:10:00 6.8 C 95 % 6.06 C
1765 08-01-2019 03:15:00 6.8 C 95 % 6.06 C
1766 08-01-2019 03:20:00 6.8 C 95 % 6.06 C
1767 08-01-2019 03:25:00 6.8 C 95 % 6.06 C
1768 08-01-2019 03:30:00 6.8 C 95 % 6.06 C
1769 08-01-2019 03:35:00 6.9 C 95 % 6.16 C
1770 08-01-2019 03:40:00 6.9 C 95 % 6.16 C
1771 08-01-2019 03:45:00 7 C 95 % 6.26 C
1772 08-01-2019 03:50:00 7 C 95 % 6.26 C
1773 08-01-2019 03:55:00 7.1 C 95 % 6.35 C
1774 08-01-2019 04:00:00 7.1 C 94 % 6.2 C
1775 08-01-2019 04:05:00 7.1 C 94 % 6.2 C
Sensor: Nr:Datum:Temp:Feuchte:Taupunkt:
Aussen-T/F 1776 08-01-2019 04:10:00 7 C 94 % 6.1 C
1777 08-01-2019 04:15:00 6.9 C 93 % 5.85 C
1778 08-01-2019 04:20:00 6.9 C 93 % 5.85 C
1779 08-01-2019 04:25:00 6.9 C 93 % 5.85 C
1780 08-01-2019 04:30:00 6.9 C 93 % 5.85 C
1781 08-01-2019 04:35:00 6.9 C 92 % 5.69 C
1782 08-01-2019 04:40:00 7 C 92 % 5.79 C
1783 08-01-2019 04:45:00 7.1 C 92 % 5.89 C
1784 08-01-2019 04:50:00 7.1 C 91 % 5.73 C
1785 08-01-2019 04:55:00 7.1 C 90 % 5.57 C
1786 08-01-2019 05:00:00 7.1 C 90 % 5.57 C
1787 08-01-2019 05:05:00 7 C 89 % 5.31 C
1788 08-01-2019 05:10:00 7.1 C 88 % 5.25 C
1789 08-01-2019 05:15:00 7.1 C 88 % 5.25 C
1790 08-01-2019 05:20:00 7.2 C 88 % 5.35 C
1791 08-01-2019 05:25:00 7.1 C 88 % 5.25 C
1792 08-01-2019 05:30:00 7 C 88 % 5.15 C
1793 08-01-2019 05:35:00 7 C 88 % 5.15 C
1794 08-01-2019 05:40:00 7.1 C 87 % 5.09 C
1795 08-01-2019 05:45:00 7.1 C 86 % 4.92 C
1796 08-01-2019 05:50:00 7.2 C 86 % 5.02 C
1797 08-01-2019 05:55:00 7.2 C 85 % 4.85 C
1798 08-01-2019 06:00:00 7.3 C 84 % 4.78 C
1799 08-01-2019 06:05:00 7.3 C 84 % 4.78 C
1800 08-01-2019 06:10:00 7.3 C 84 % 4.78 C
Sensor: Nr:Datum:Temp:Feuchte:Taupunkt:
Aussen-T/F 1801 08-01-2019 06:15:00 7.3 C 83 % 4.61 C
1802 08-01-2019 06:20:00 7.3 C 83 % 4.61 C
1803 08-01-2019 06:25:00 7.3 C 83 % 4.61 C
1804 08-01-2019 06:30:00 7.3 C 83 % 4.61 C
1805 08-01-2019 06:35:00 7.3 C 84 % 4.78 C
1806 08-01-2019 06:40:00 7.3 C 83 % 4.61 C
1807 08-01-2019 06:45:00 7.3 C 84 % 4.78 C
1808 08-01-2019 06:50:00 7.3 C 83 % 4.61 C
1809 08-01-2019 06:55:00 7.3 C 83 % 4.61 C
1810 08-01-2019 07:00:00 7.3 C 83 % 4.61 C
1811 08-01-2019 07:05:00 7.3 C 83 % 4.61 C
1812 08-01-2019 07:10:00 7.2 C 83 % 4.51 C
1813 08-01-2019 07:15:00 7.2 C 83 % 4.51 C
1814 08-01-2019 07:20:00 7.2 C 82 % 4.34 C
1815 08-01-2019 07:25:00 7.2 C 82 % 4.34 C
1816 08-01-2019 07:30:00 7.2 C 82 % 4.34 C
1817 08-01-2019 07:35:00 7.2 C 82 % 4.34 C
1818 08-01-2019 07:40:00 7.2 C 82 % 4.34 C
1819 08-01-2019 07:45:00 7.2 C 82 % 4.34 C
1820 08-01-2019 07:50:00 7.1 C 82 % 4.24 C
1821 08-01-2019 07:55:00 7.1 C 82 % 4.24 C
1822 08-01-2019 08:00:00 7.1 C 82 % 4.24 C
1823 08-01-2019 08:05:00 7.1 C 81 % 4.07 C
1824 08-01-2019 08:10:00 7 C 82 % 4.14 C
1825 08-01-2019 08:15:00 6.9 C 81 % 3.87 C
Sensor: Nr:Datum:Temp:Feuchte:Taupunkt:
Aussen-T/F 1826 08-01-2019 08:20:00 6.8 C 81 % 3.77 C
1827 08-01-2019 08:25:00 6.8 C 81 % 3.77 C
1828 08-01-2019 08:30:00 6.7 C 81 % 3.68 C
1829 08-01-2019 08:35:00 6.8 C 81 % 3.77 C
1830 08-01-2019 08:40:00 6.8 C 81 % 3.77 C
1831 08-01-2019 08:45:00 6.8 C 81 % 3.77 C
1832 08-01-2019 08:50:00 6.8 C 81 % 3.77 C
1833 08-01-2019 08:55:00 6.8 C 80 % 3.6 C
1834 08-01-2019 09:00:00 6.8 C 80 % 3.6 C
1835 08-01-2019 09:05:00 6.8 C 80 % 3.6 C
1836 08-01-2019 09:10:00 6.9 C 80 % 3.7 C
1837 08-01-2019 09:15:00 6.9 C 80 % 3.7 C
1838 08-01-2019 09:20:00 6.8 C 81 % 3.77 C
1839 08-01-2019 09:25:00 6.8 C 81 % 3.77 C
1840 08-01-2019 09:30:00 6.8 C 82 % 3.95 C
1841 08-01-2019 09:35:00 6.8 C 82 % 3.95 C
1842 08-01-2019 09:40:00 6.8 C 82 % 3.95 C
1843 08-01-2019 09:45:00 6.7 C 83 % 4.02 C
1844 08-01-2019 09:50:00 6.7 C 84 % 4.19 C
1845 08-01-2019 09:55:00 6.6 C 85 % 4.26 C
1846 08-01-2019 10:00:00 6.5 C 86 % 4.33 C
1847 08-01-2019 10:05:00 6.4 C 86 % 4.23 C
1848 08-01-2019 10:10:00 6.3 C 87 % 4.3 C
1849 08-01-2019 10:15:00 6.3 C 87 % 4.3 C
1850 08-01-2019 10:20:00 6.2 C 88 % 4.36 C
Sensor: Nr:Datum:Temp:Feuchte:Taupunkt:
Aussen-T/F 1851 08-01-2019 10:25:00 6.2 C 89 % 4.53 C
1852 08-01-2019 10:30:00 6.2 C 89 % 4.53 C
1853 08-01-2019 10:35:00 6.2 C 90 % 4.69 C
1854 08-01-2019 10:40:00 6.2 C 90 % 4.69 C
1855 08-01-2019 10:45:00 6.2 C 90 % 4.69 C
1856 08-01-2019 10:50:00 6.2 C 90 % 4.69 C
1857 08-01-2019 10:55:00 6.2 C 89 % 4.53 C
1858 08-01-2019 11:00:00 6.3 C 88 % 4.46 C
1859 08-01-2019 11:05:00 6.4 C 87 % 4.4 C
1860 08-01-2019 11:10:00 6.6 C 85 % 4.26 C
1861 08-01-2019 11:15:00 6.7 C 85 % 4.36 C
1862 08-01-2019 11:20:00 6.9 C 84 % 4.39 C
1863 08-01-2019 11:25:00 7 C 83 % 4.32 C
1864 08-01-2019 11:30:00 7.1 C 84 % 4.58 C
1865 08-01-2019 11:35:00 7.1 C 84 % 4.58 C
1866 08-01-2019 11:40:00 7 C 84 % 4.49 C
1867 08-01-2019 11:45:00 7 C 85 % 4.66 C
1868 08-01-2019 11:50:00 7 C 84 % 4.49 C
1869 08-01-2019 11:55:00 7.1 C 85 % 4.75 C
1870 08-01-2019 12:00:00 7 C 85 % 4.66 C
1871 08-01-2019 12:05:00 6.9 C 86 % 4.72 C
1872 08-01-2019 12:10:00 6.8 C 86 % 4.63 C
1873 08-01-2019 12:15:00 6.8 C 86 % 4.63 C
1874 08-01-2019 12:20:00 6.8 C 85 % 4.46 C
1875 08-01-2019 12:25:00 6.9 C 86 % 4.72 C
Sensor: Nr:Datum:Temp:Feuchte:Taupunkt:
Aussen-T/F 1876 08-01-2019 12:30:00 6.9 C 85 % 4.56 C
1877 08-01-2019 12:35:00 7 C 85 % 4.66 C
1878 08-01-2019 12:40:00 7.1 C 84 % 4.58 C
1879 08-01-2019 12:45:00 7.2 C 84 % 4.68 C
1880 08-01-2019 12:50:00 7.2 C 83 % 4.51 C
1881 08-01-2019 12:55:00 7.3 C 83 % 4.61 C
1882 08-01-2019 13:00:00 7.3 C 83 % 4.61 C
1883 08-01-2019 13:05:00 7.3 C 83 % 4.61 C
1884 08-01-2019 13:10:00 7.3 C 83 % 4.61 C
1885 08-01-2019 13:15:00 7.4 C 83 % 4.71 C
1886 08-01-2019 13:20:00 7.4 C 82 % 4.53 C
1887 08-01-2019 13:25:00 7.4 C 82 % 4.53 C
1888 08-01-2019 13:30:00 7.4 C 82 % 4.53 C
1889 08-01-2019 13:35:00 7.5 C 81 % 4.46 C
1890 08-01-2019 13:40:00 7.6 C 81 % 4.55 C
1891 08-01-2019 13:45:00 7.6 C 81 % 4.55 C
1892 08-01-2019 13:50:00 7.7 C 80 % 4.47 C
1893 08-01-2019 13:55:00 7.8 C 79 % 4.39 C
1894 08-01-2019 14:00:00 7.8 C 79 % 4.39 C
1895 08-01-2019 14:05:00 7.8 C 79 % 4.39 C
1896 08-01-2019 14:10:00 7.8 C 79 % 4.39 C
1897 08-01-2019 14:15:00 7.8 C 79 % 4.39 C
1898 08-01-2019 14:20:00 7.8 C 80 % 4.57 C
1899 08-01-2019 14:25:00 7.6 C 81 % 4.55 C
1900 08-01-2019 14:30:00 7.3 C 82 % 4.44 C
Sensor: Nr:Datum:Temp:Feuchte:Taupunkt:
Aussen-T/F 1901 08-01-2019 14:35:00 7.2 C 82 % 4.34 C
1902 08-01-2019 14:40:00 7.1 C 82 % 4.24 C
1903 08-01-2019 14:45:00 7.1 C 82 % 4.24 C
1904 08-01-2019 14:50:00 7.1 C 83 % 4.41 C
1905 08-01-2019 14:55:00 7.1 C 83 % 4.41 C
1906 08-01-2019 15:00:00 7.2 C 83 % 4.51 C
1907 08-01-2019 15:05:00 7.2 C 83 % 4.51 C
1908 08-01-2019 15:10:00 7.2 C 84 % 4.68 C
1909 08-01-2019 15:15:00 7.2 C 83 % 4.51 C
1910 08-01-2019 15:20:00 7.2 C 84 % 4.68 C
1911 08-01-2019 15:25:00 7.2 C 83 % 4.51 C
1912 08-01-2019 15:30:00 7.1 C 84 % 4.58 C
1913 08-01-2019 15:35:00 7.1 C 85 % 4.75 C
1914 08-01-2019 15:40:00 7 C 85 % 4.66 C
1915 08-01-2019 15:45:00 6.9 C 86 % 4.72 C
1916 08-01-2019 15:50:00 6.8 C 86 % 4.63 C
1917 08-01-2019 15:55:00 6.8 C 86 % 4.63 C
1918 08-01-2019 16:00:00 6.8 C 86 % 4.63 C
1919 08-01-2019 16:05:00 6.8 C 87 % 4.79 C
1920 08-01-2019 16:10:00 6.6 C 88 % 4.76 C
1921 08-01-2019 16:15:00 6.2 C 88 % 4.36 C
1922 08-01-2019 16:20:00 5.9 C 89 % 4.23 C
1923 08-01-2019 16:25:00 5.7 C 90 % 4.19 C
1924 08-01-2019 16:30:00 5.5 C 91 % 4.15 C
1925 08-01-2019 16:35:00 5.4 C 91 % 4.05 C
Sensor: Nr:Datum:Temp:Feuchte:Taupunkt:
Aussen-T/F 1926 08-01-2019 16:40:00 5.3 C 91 % 3.95 C
1927 08-01-2019 16:45:00 5.3 C 92 % 4.11 C
1928 08-01-2019 16:50:00 5.5 C 92 % 4.31 C
1929 08-01-2019 16:55:00 5.6 C 91 % 4.25 C
1930 08-01-2019 17:00:00 5.7 C 91 % 4.35 C
1931 08-01-2019 17:05:00 5.8 C 90 % 4.29 C
1932 08-01-2019 17:10:00 5.9 C 90 % 4.39 C
1933 08-01-2019 17:15:00 6 C 89 % 4.33 C
1934 08-01-2019 17:20:00 6.1 C 88 % 4.27 C
1935 08-01-2019 17:25:00 6.1 C 88 % 4.27 C
1936 08-01-2019 17:30:00 6.1 C 87 % 4.1 C
1937 08-01-2019 17:35:00 6.1 C 88 % 4.27 C
1938 08-01-2019 17:40:00 6.1 C 88 % 4.27 C
1939 08-01-2019 17:45:00 6.1 C 87 % 4.1 C
1940 08-01-2019 17:50:00 6.2 C 88 % 4.36 C
1941 08-01-2019 17:55:00 6.2 C 88 % 4.36 C
1942 08-01-2019 18:00:00 6.2 C 87 % 4.2 C
1943 08-01-2019 18:05:00 6.2 C 87 % 4.2 C
1944 08-01-2019 18:10:00 6.2 C 87 % 4.2 C
1945 08-01-2019 18:15:00 6.2 C 86 % 4.04 C
1946 08-01-2019 18:20:00 6.2 C 86 % 4.04 C
1947 08-01-2019 18:25:00 6.2 C 86 % 4.04 C
1948 08-01-2019 18:30:00 6.2 C 86 % 4.04 C
1949 08-01-2019 18:35:00 6.1 C 85 % 3.77 C
1950 08-01-2019 18:40:00 6.1 C 86 % 3.94 C
Sensor: Nr:Datum:Temp:Feuchte:Taupunkt:
Aussen-T/F 1951 08-01-2019 18:45:00 6.1 C 85 % 3.77 C
1952 08-01-2019 18:50:00 6.1 C 85 % 3.77 C
1953 08-01-2019 18:55:00 6.2 C 84 % 3.7 C
1954 08-01-2019 19:00:00 6.2 C 84 % 3.7 C
1955 08-01-2019 19:05:00 6.2 C 84 % 3.7 C
1956 08-01-2019 19:10:00 6.2 C 84 % 3.7 C
1957 08-01-2019 19:15:00 6.3 C 83 % 3.63 C
1958 08-01-2019 19:20:00 6.3 C 82 % 3.46 C
1959 08-01-2019 19:25:00 6.3 C 82 % 3.46 C
1960 08-01-2019 19:30:00 6.4 C 82 % 3.56 C
1961 08-01-2019 19:35:00 6.4 C 82 % 3.56 C
1962 08-01-2019 19:40:00 6.4 C 82 % 3.56 C
1963 08-01-2019 19:45:00 6.4 C 81 % 3.38 C
1964 08-01-2019 19:50:00 6.4 C 82 % 3.56 C
1965 08-01-2019 19:55:00 6.5 C 81 % 3.48 C
1966 08-01-2019 20:00:00 6.4 C 81 % 3.38 C
1967 08-01-2019 20:05:00 6.4 C 81 % 3.38 C
1968 08-01-2019 20:10:00 6.4 C 81 % 3.38 C
1969 08-01-2019 20:15:00 6.4 C 81 % 3.38 C
1970 08-01-2019 20:20:00 6.4 C 79 % 3.03 C
1971 08-01-2019 20:25:00 6.4 C 79 % 3.03 C
1972 08-01-2019 20:30:00 6.4 C 79 % 3.03 C
1973 08-01-2019 20:35:00 6.4 C 80 % 3.21 C
1974 08-01-2019 20:40:00 6.3 C 80 % 3.11 C
1975 08-01-2019 20:45:00 6.1 C 81 % 3.09 C
Sensor: Nr:Datum:Temp:Feuchte:Taupunkt:
Aussen-T/F 1976 08-01-2019 20:50:00 5.9 C 81 % 2.9 C
1977 08-01-2019 20:55:00 5.9 C 82 % 3.07 C
1978 08-01-2019 21:00:00 5.9 C 82 % 3.07 C
1979 08-01-2019 21:05:00 5.9 C 83 % 3.24 C
1980 08-01-2019 21:10:00 5.8 C 85 % 3.48 C
1981 08-01-2019 21:15:00 5.7 C 86 % 3.55 C
1982 08-01-2019 21:20:00 5.6 C 87 % 3.61 C
1983 08-01-2019 21:25:00 5.6 C 86 % 3.45 C
1984 08-01-2019 21:30:00 5.6 C 85 % 3.28 C
1985 08-01-2019 21:35:00 5.7 C 84 % 3.21 C
1986 08-01-2019 21:40:00 5.7 C 83 % 3.04 C
1987 08-01-2019 21:45:00 5.8 C 82 % 2.97 C
1988 08-01-2019 21:50:00 5.9 C 81 % 2.9 C
1989 08-01-2019 21:55:00 6.1 C 80 % 2.92 C
1990 08-01-2019 22:00:00 6.1 C 80 % 2.92 C
1991 08-01-2019 22:05:00 6.2 C 80 % 3.01 C
1992 08-01-2019 22:10:00 6.2 C 80 % 3.01 C
1993 08-01-2019 22:15:00 6.2 C 80 % 3.01 C
1994 08-01-2019 22:20:00 6.2 C 80 % 3.01 C
1995 08-01-2019 22:25:00 6.1 C 81 % 3.09 C
1996 08-01-2019 22:30:00 6.1 C 81 % 3.09 C
1997 08-01-2019 22:35:00 6 C 81 % 2.99 C
1998 08-01-2019 22:40:00 6.1 C 81 % 3.09 C
1999 08-01-2019 22:45:00 6 C 81 % 2.99 C
2000 08-01-2019 22:50:00 5.9 C 82 % 3.07 C
Sensor: Nr:Datum:Temp:Feuchte:Taupunkt:
Aussen-T/F 2001 08-01-2019 22:55:00 5.9 C 82 % 3.07 C
2002 08-01-2019 23:00:00 5.8 C 82 % 2.97 C
2003 08-01-2019 23:05:00 5.7 C 82 % 2.87 C
2004 08-01-2019 23:10:00 5.7 C 83 % 3.04 C
2005 08-01-2019 23:15:00 5.6 C 83 % 2.95 C
2006 08-01-2019 23:20:00 5.5 C 83 % 2.85 C
2007 08-01-2019 23:25:00 5.4 C 84 % 2.92 C
2008 08-01-2019 23:30:00 5.4 C 84 % 2.92 C
2009 08-01-2019 23:35:00 5.4 C 84 % 2.92 C
2010 08-01-2019 23:40:00 5.4 C 84 % 2.92 C
2011 08-01-2019 23:45:00 5.4 C 84 % 2.92 C
2012 08-01-2019 23:50:00 5.4 C 85 % 3.09 C
2013 08-01-2019 23:55:00 5.4 C 85 % 3.09 C
2014 09-01-2019 00:00:00 5.4 C 85 % 3.09 C
2015 09-01-2019 00:05:00 5.3 C 85 % 2.99 C
2016 09-01-2019 00:10:00 5.3 C 85 % 2.99 C
2017 09-01-2019 00:15:00 5.2 C 85 % 2.89 C
2018 09-01-2019 00:20:00 5.2 C 86 % 3.05 C
2019 09-01-2019 00:25:00 5.1 C 87 % 3.12 C
2020 09-01-2019 00:30:00 5 C 88 % 3.18 C
2021 09-01-2019 00:35:00 4.9 C 89 % 3.24 C
2022 09-01-2019 00:40:00 4.9 C 88 % 3.08 C
2023 09-01-2019 00:45:00 5 C 88 % 3.18 C
2024 09-01-2019 00:50:00 5.1 C 87 % 3.12 C
2025 09-01-2019 00:55:00 5 C 88 % 3.18 C
Sensor: Nr:Datum:Temp:Feuchte:Taupunkt:
Aussen-T/F 2026 09-01-2019 01:00:00 5 C 88 % 3.18 C
2027 09-01-2019 01:05:00 5 C 88 % 3.18 C
2028 09-01-2019 01:10:00 4.9 C 88 % 3.08 C
2029 09-01-2019 01:15:00 4.9 C 88 % 3.08 C
2030 09-01-2019 01:20:00 5 C 88 % 3.18 C
2031 09-01-2019 01:25:00 5.1 C 87 % 3.12 C
2032 09-01-2019 01:30:00 5.1 C 88 % 3.28 C
2033 09-01-2019 01:35:00 4.9 C 87 % 2.92 C
2034 09-01-2019 01:40:00 4.8 C 88 % 2.99 C
2035 09-01-2019 01:45:00 4.7 C 89 % 3.05 C
2036 09-01-2019 01:50:00 4.7 C 90 % 3.2 C
2037 09-01-2019 01:55:00 4.7 C 90 % 3.2 C
2038 09-01-2019 02:00:00 4.7 C 90 % 3.2 C
2039 09-01-2019 02:05:00 4.7 C 90 % 3.2 C
2040 09-01-2019 02:10:00 4.7 C 90 % 3.2 C
2041 09-01-2019 02:15:00 4.6 C 90 % 3.1 C
2042 09-01-2019 02:20:00 4.6 C 91 % 3.26 C
2043 09-01-2019 02:25:00 4.4 C 91 % 3.06 C
2044 09-01-2019 02:30:00 4.3 C 91 % 2.96 C
2045 09-01-2019 02:35:00 4.3 C 91 % 2.96 C
2046 09-01-2019 02:40:00 4.2 C 91 % 2.87 C
2047 09-01-2019 02:45:00 4 C 91 % 2.67 C
2048 09-01-2019 02:50:00 3.8 C 91 % 2.47 C
2049 09-01-2019 02:55:00 3.7 C 91 % 2.37 C
2050 09-01-2019 03:00:00 3.7 C 92 % 2.52 C
Sensor: Nr:Datum:Temp:Feuchte:Taupunkt:
Aussen-T/F 2051 09-01-2019 03:05:00 3.7 C 92 % 2.52 C
2052 09-01-2019 03:10:00 3.7 C 93 % 2.68 C
2053 09-01-2019 03:15:00 3.7 C 93 % 2.68 C
2054 09-01-2019 03:20:00 3.7 C 93 % 2.68 C
2055 09-01-2019 03:25:00 3.7 C 93 % 2.68 C
2056 09-01-2019 03:30:00 3.8 C 93 % 2.77 C
2057 09-01-2019 03:35:00 3.7 C 93 % 2.68 C
2058 09-01-2019 03:40:00 3.8 C 93 % 2.77 C
2059 09-01-2019 03:45:00 3.8 C 93 % 2.77 C
2060 09-01-2019 03:50:00 3.8 C 93 % 2.77 C
2061 09-01-2019 03:55:00 3.9 C 93 % 2.87 C
2062 09-01-2019 04:00:00 3.9 C 93 % 2.87 C
2063 09-01-2019 04:05:00 3.8 C 93 % 2.77 C
2064 09-01-2019 04:10:00 3.8 C 93 % 2.77 C
2065 09-01-2019 04:15:00 3.9 C 92 % 2.72 C
2066 09-01-2019 04:20:00 4 C 92 % 2.82 C
2067 09-01-2019 04:25:00 4.1 C 92 % 2.92 C
2068 09-01-2019 04:30:00 4.2 C 91 % 2.87 C
2069 09-01-2019 04:35:00 4.2 C 91 % 2.87 C
2070 09-01-2019 04:40:00 4.2 C 91 % 2.87 C
2071 09-01-2019 04:45:00 4.2 C 90 % 2.71 C
2072 09-01-2019 04:50:00 4.2 C 90 % 2.71 C
2073 09-01-2019 04:55:00 4.2 C 90 % 2.71 C
2074 09-01-2019 05:00:00 4.1 C 91 % 2.77 C
2075 09-01-2019 05:05:00 4.1 C 91 % 2.77 C
Sensor: Nr:Datum:Temp:Feuchte:Taupunkt:
Aussen-T/F 2076 09-01-2019 05:10:00 4.1 C 91 % 2.77 C
2077 09-01-2019 05:15:00 4 C 91 % 2.67 C
2078 09-01-2019 05:20:00 3.8 C 91 % 2.47 C
2079 09-01-2019 05:25:00 3.6 C 91 % 2.27 C
2080 09-01-2019 05:30:00 3.1 C 91 % 1.78 C
2081 09-01-2019 05:35:00 2.8 C 91 % 1.48 C
2082 09-01-2019 05:40:00 2.8 C 92 % 1.63 C
2083 09-01-2019 05:45:00 2.8 C 93 % 1.78 C
2084 09-01-2019 05:50:00 2.8 C 93 % 1.78 C
2085 09-01-2019 05:55:00 2.8 C 93 % 1.78 C
2086 09-01-2019 06:00:00 2.8 C 93 % 1.78 C
2087 09-01-2019 06:05:00 2.8 C 94 % 1.93 C
2088 09-01-2019 06:10:00 2.8 C 94 % 1.93 C
2089 09-01-2019 06:15:00 2.9 C 94 % 2.03 C
2090 09-01-2019 06:20:00 3 C 94 % 2.13 C
2091 09-01-2019 06:25:00 3.1 C 94 % 2.23 C
2092 09-01-2019 06:30:00 3.2 C 94 % 2.33 C
2093 09-01-2019 06:35:00 3.2 C 95 % 2.48 C
2094 09-01-2019 06:40:00 3.3 C 94 % 2.43 C
2095 09-01-2019 06:45:00 3.4 C 94 % 2.53 C
2096 09-01-2019 06:50:00 3.4 C 94 % 2.53 C
2097 09-01-2019 06:55:00 3.4 C 94 % 2.53 C
2098 09-01-2019 07:00:00 3.3 C 93 % 2.28 C
2099 09-01-2019 07:05:00 3.3 C 93 % 2.28 C
2100 09-01-2019 07:10:00 3.2 C 93 % 2.18 C
Sensor: Nr:Datum:Temp:Feuchte:Taupunkt:
Aussen-T/F 2101 09-01-2019 07:15:00 3.1 C 93 % 2.08 C
2102 09-01-2019 07:20:00 3.1 C 93 % 2.08 C
2103 09-01-2019 07:25:00 3.1 C 93 % 2.08 C
2104 09-01-2019 07:30:00 3 C 93 % 1.98 C
2105 09-01-2019 07:35:00 3 C 93 % 1.98 C
2106 09-01-2019 07:40:00 3 C 93 % 1.98 C
2107 09-01-2019 07:45:00 2.9 C 93 % 1.88 C
2108 09-01-2019 07:50:00 2.9 C 93 % 1.88 C
2109 09-01-2019 07:55:00 2.8 C 93 % 1.78 C
2110 09-01-2019 08:00:00 2.7 C 93 % 1.68 C
2111 09-01-2019 08:05:00 2.7 C 93 % 1.68 C
2112 09-01-2019 08:10:00 2.7 C 94 % 1.83 C
2113 09-01-2019 08:15:00 2.7 C 94 % 1.83 C
2114 09-01-2019 08:20:00 2.7 C 94 % 1.83 C
2115 09-01-2019 08:25:00 2.8 C 94 % 1.93 C
2116 09-01-2019 08:30:00 2.7 C 93 % 1.68 C
2117 09-01-2019 08:35:00 2.7 C 93 % 1.68 C
2118 09-01-2019 08:40:00 2.7 C 93 % 1.68 C
2119 09-01-2019 08:45:00 2.6 C 93 % 1.59 C
2120 09-01-2019 08:50:00 2.6 C 94 % 1.73 C
2121 09-01-2019 08:55:00 2.6 C 94 % 1.73 C
2122 09-01-2019 09:00:00 2.5 C 94 % 1.63 C
2123 09-01-2019 09:05:00 2.5 C 94 % 1.63 C
2124 09-01-2019 09:10:00 2.4 C 94 % 1.54 C
2125 09-01-2019 09:15:00 2.4 C 93 % 1.39 C
Sensor: Nr:Datum:Temp:Feuchte:Taupunkt:
Aussen-T/F 2126 09-01-2019 09:20:00 2.3 C 93 % 1.29 C
2127 09-01-2019 09:25:00 2.2 C 94 % 1.34 C
2128 09-01-2019 09:30:00 2.2 C 94 % 1.34 C
2129 09-01-2019 09:35:00 2.2 C 94 % 1.34 C
2130 09-01-2019 09:40:00 2.3 C 94 % 1.44 C
2131 09-01-2019 09:45:00 2.4 C 94 % 1.54 C
2132 09-01-2019 09:50:00 2.5 C 94 % 1.63 C
2133 09-01-2019 09:55:00 2.6 C 94 % 1.73 C
2134 09-01-2019 10:00:00 2.7 C 94 % 1.83 C
2135 09-01-2019 10:05:00 2.8 C 94 % 1.93 C
2136 09-01-2019 10:10:00 2.8 C 94 % 1.93 C
2137 09-01-2019 10:15:00 2.8 C 94 % 1.93 C
2138 09-01-2019 10:20:00 2.9 C 94 % 2.03 C
2139 09-01-2019 10:25:00 3 C 94 % 2.13 C
2140 09-01-2019 10:30:00 3.1 C 94 % 2.23 C
2141 09-01-2019 10:35:00 3.2 C 94 % 2.33 C
2142 09-01-2019 10:40:00 3.3 C 93 % 2.28 C
2143 09-01-2019 10:45:00 3.4 C 93 % 2.38 C
2144 09-01-2019 10:50:00 3.5 C 92 % 2.33 C
2145 09-01-2019 10:55:00 3.6 C 92 % 2.42 C
2146 09-01-2019 11:00:00 3.7 C 91 % 2.37 C
2147 09-01-2019 11:05:00 3.7 C 91 % 2.37 C
2148 09-01-2019 11:10:00 3.7 C 91 % 2.37 C
2149 09-01-2019 11:15:00 3.8 C 90 % 2.31 C
2150 09-01-2019 11:20:00 3.9 C 89 % 2.26 C
Sensor: Nr:Datum:Temp:Feuchte:Taupunkt:
Aussen-T/F 2151 09-01-2019 11:25:00 4 C 89 % 2.36 C
2152 09-01-2019 11:30:00 4.1 C 87 % 2.14 C
2153 09-01-2019 11:35:00 4.2 C 87 % 2.23 C
2154 09-01-2019 11:40:00 4.2 C 86 % 2.07 C
2155 09-01-2019 11:45:00 4.2 C 85 % 1.91 C
2156 09-01-2019 11:50:00 4.2 C 83 % 1.58 C
2157 09-01-2019 11:55:00 4.3 C 84 % 1.84 C
2158 09-01-2019 12:00:00 4.3 C 83 % 1.67 C
2159 09-01-2019 12:05:00 4.4 C 83 % 1.77 C
2160 09-01-2019 12:10:00 4.4 C 84 % 1.94 C
2161 09-01-2019 12:15:00 4.4 C 84 % 1.94 C
2162 09-01-2019 12:20:00 4.4 C 84 % 1.94 C
2163 09-01-2019 12:25:00 4.4 C 84 % 1.94 C
2164 09-01-2019 12:30:00 4.4 C 84 % 1.94 C
2165 09-01-2019 12:35:00 4.4 C 84 % 1.94 C
2166 09-01-2019 12:40:00 4.4 C 85 % 2.11 C
2167 09-01-2019 12:45:00 4.4 C 84 % 1.94 C
2168 09-01-2019 12:50:00 4.4 C 84 % 1.94 C
2169 09-01-2019 12:55:00 4.5 C 84 % 2.04 C
2170 09-01-2019 13:00:00 4.5 C 84 % 2.04 C
2171 09-01-2019 13:05:00 4.5 C 83 % 1.87 C
2172 09-01-2019 13:10:00 4.5 C 82 % 1.7 C
2173 09-01-2019 13:15:00 4.6 C 81 % 1.63 C
2174 09-01-2019 13:20:00 4.6 C 81 % 1.63 C
2175 09-01-2019 13:25:00 4.5 C 80 % 1.36 C
Sensor: Nr:Datum:Temp:Feuchte:Taupunkt:
Aussen-T/F 2176 09-01-2019 13:30:00 4.6 C 79 % 1.28 C
2177 09-01-2019 13:35:00 4.7 C 78 % 1.2 C
2178 09-01-2019 13:40:00 4.8 C 79 % 1.47 C
2179 09-01-2019 13:45:00 4.8 C 79 % 1.47 C
2180 09-01-2019 13:50:00 4.8 C 79 % 1.47 C
2181 09-01-2019 13:55:00 4.8 C 79 % 1.47 C
2182 09-01-2019 14:00:00 4.8 C 79 % 1.47 C
2183 09-01-2019 14:05:00 4.8 C 79 % 1.47 C
2184 09-01-2019 14:10:00 4.8 C 78 % 1.3 C
2185 09-01-2019 14:15:00 4.8 C 78 % 1.3 C
2186 09-01-2019 14:20:00 4.8 C 78 % 1.3 C
2187 09-01-2019 14:25:00 4.7 C 77 % 1.02 C
2188 09-01-2019 14:30:00 4.7 C 77 % 1.02 C
2189 09-01-2019 14:35:00 4.7 C 76 % 0.84 C
2190 09-01-2019 14:40:00 4.8 C 76 % 0.94 C
2191 09-01-2019 14:45:00 4.8 C 76 % 0.94 C
2192 09-01-2019 14:50:00 4.8 C 75 % 0.75 C
2193 09-01-2019 14:55:00 4.8 C 76 % 0.94 C
2194 09-01-2019 15:00:00 4.8 C 75 % 0.75 C
2195 09-01-2019 15:05:00 4.8 C 75 % 0.75 C
2196 09-01-2019 15:10:00 4.8 C 76 % 0.94 C
2197 09-01-2019 15:15:00 4.8 C 75 % 0.75 C
2198 09-01-2019 15:20:00 4.8 C 75 % 0.75 C
2199 09-01-2019 15:25:00 4.8 C 75 % 0.75 C
2200 09-01-2019 15:30:00 4.8 C 74 % 0.57 C
Sensor: Nr:Datum:Temp:Feuchte:Taupunkt:
Aussen-T/F 2201 09-01-2019 15:35:00 4.8 C 73 % 0.38 C
2202 09-01-2019 15:40:00 4.8 C 74 % 0.57 C
2203 09-01-2019 15:45:00 4.8 C 73 % 0.38 C
2204 09-01-2019 15:50:00 4.8 C 73 % 0.38 C
2205 09-01-2019 15:55:00 4.8 C 74 % 0.57 C
2206 09-01-2019 16:00:00 4.8 C 73 % 0.38 C
2207 09-01-2019 16:05:00 4.7 C 73 % 0.28 C
2208 09-01-2019 16:10:00 4.7 C 74 % 0.47 C
2209 09-01-2019 16:15:00 4.6 C 74 % 0.38 C
2210 09-01-2019 16:20:00 4.6 C 74 % 0.38 C
2211 09-01-2019 16:25:00 4.6 C 74 % 0.38 C
2212 09-01-2019 16:30:00 4.6 C 74 % 0.38 C
2213 09-01-2019 16:35:00 4.5 C 74 % 0.28 C
2214 09-01-2019 16:40:00 4.4 C 75 % 0.37 C
2215 09-01-2019 16:45:00 4.4 C 75 % 0.37 C
2216 09-01-2019 16:50:00 4.4 C 74 % 0.18 C
2217 09-01-2019 16:55:00 4.4 C 74 % 0.18 C
2218 09-01-2019 17:00:00 4.4 C 74 % 0.18 C
2219 09-01-2019 17:05:00 4.3 C 75 % 0.27 C
2220 09-01-2019 17:10:00 4.3 C 75 % 0.27 C
2221 09-01-2019 17:15:00 4.3 C 74 % 0.09 C
2222 09-01-2019 17:20:00 4.3 C 74 % 0.09 C
2223 09-01-2019 17:25:00 4.3 C 74 % 0.09 C
2224 09-01-2019 17:30:00 4.3 C 74 % 0.09 C
2225 09-01-2019 17:35:00 4.3 C 75 % 0.27 C
Sensor: Nr:Datum:Temp:Feuchte:Taupunkt:
Aussen-T/F 2226 09-01-2019 17:40:00 4.3 C 75 % 0.27 C
2227 09-01-2019 17:45:00 4.3 C 76 % 0.45 C
2228 09-01-2019 17:50:00 4.2 C 75 % 0.17 C
2229 09-01-2019 17:55:00 4.3 C 74 % 0.09 C
2230 09-01-2019 18:00:00 4.3 C 75 % 0.27 C
2231 09-01-2019 18:05:00 4.3 C 74 % 0.09 C
2232 09-01-2019 18:10:00 4.3 C 73 % -0.1 C
2233 09-01-2019 18:15:00 4.3 C 73 % -0.1 C
2234 09-01-2019 18:20:00 4.3 C 72 % -0.29 C
2235 09-01-2019 18:25:00 4.3 C 72 % -0.29 C
2236 09-01-2019 18:30:00 4.3 C 73 % -0.1 C
2237 09-01-2019 18:35:00 4.3 C 73 % -0.1 C
2238 09-01-2019 18:40:00 4.3 C 73 % -0.1 C
2239 09-01-2019 18:45:00 4.2 C 74 % -0.01 C
2240 09-01-2019 18:50:00 4.2 C 74 % -0.01 C
2241 09-01-2019 18:55:00 4.2 C 74 % -0.01 C
2242 09-01-2019 19:00:00 4.2 C 74 % -0.01 C
2243 09-01-2019 19:05:00 4.2 C 74 % -0.01 C
2244 09-01-2019 19:10:00 4.2 C 74 % -0.01 C
2245 09-01-2019 19:15:00 4.2 C 74 % -0.01 C
2246 09-01-2019 19:20:00 4.2 C 74 % -0.01 C
2247 09-01-2019 19:25:00 4.2 C 75 % 0.17 C
2248 09-01-2019 19:30:00 4.1 C 75 % 0.08 C
2249 09-01-2019 19:35:00 4.1 C 75 % 0.08 C
2250 09-01-2019 19:40:00 4.1 C 76 % 0.26 C
Sensor: Nr:Datum:Temp:Feuchte:Taupunkt:
Aussen-T/F 2251 09-01-2019 19:45:00 4.1 C 75 % 0.08 C
2252 09-01-2019 19:50:00 4.1 C 76 % 0.26 C
2253 09-01-2019 19:55:00 4.1 C 76 % 0.26 C
2254 09-01-2019 20:00:00 4.1 C 77 % 0.44 C
2255 09-01-2019 20:05:00 4 C 76 % 0.16 C
2256 09-01-2019 20:10:00 4 C 77 % 0.34 C
2257 09-01-2019 20:15:00 4 C 77 % 0.34 C
2258 09-01-2019 20:20:00 3.9 C 76 % 0.07 C
2259 09-01-2019 20:25:00 3.9 C 76 % 0.07 C
2260 09-01-2019 20:30:00 3.9 C 76 % 0.07 C
2261 09-01-2019 20:35:00 3.9 C 76 % 0.07 C
2262 09-01-2019 20:40:00 3.9 C 76 % 0.07 C
2263 09-01-2019 20:45:00 3.9 C 75 % -0.12 C
2264 09-01-2019 20:50:00 3.9 C 75 % -0.12 C
2265 09-01-2019 20:55:00 3.8 C 75 % -0.21 C
2266 09-01-2019 21:00:00 3.8 C 75 % -0.21 C
2267 09-01-2019 21:05:00 3.8 C 74 % -0.4 C
2268 09-01-2019 21:10:00 3.7 C 73 % -0.68 C
2269 09-01-2019 21:15:00 3.7 C 74 % -0.49 C
2270 09-01-2019 21:20:00 3.7 C 73 % -0.68 C
2271 09-01-2019 21:25:00 3.7 C 74 % -0.49 C
2272 09-01-2019 21:30:00 3.6 C 74 % -0.59 C
2273 09-01-2019 21:35:00 3.6 C 73 % -0.78 C
2274 09-01-2019 21:40:00 3.6 C 74 % -0.59 C
2275 09-01-2019 21:45:00 3.6 C 74 % -0.59 C
Sensor: Nr:Datum:Temp:Feuchte:Taupunkt:
Aussen-T/F 2276 09-01-2019 21:50:00 3.5 C 74 % -0.69 C
2277 09-01-2019 21:55:00 3.4 C 75 % -0.6 C
2278 09-01-2019 22:00:00 3.4 C 75 % -0.6 C
2279 09-01-2019 22:05:00 3.3 C 75 % -0.7 C
2280 09-01-2019 22:10:00 3.3 C 75 % -0.7 C
2281 09-01-2019 22:15:00 3.3 C 76 % -0.52 C
2282 09-01-2019 22:20:00 3.3 C 76 % -0.52 C
2283 09-01-2019 22:25:00 3.3 C 76 % -0.52 C
2284 09-01-2019 22:30:00 3.3 C 76 % -0.52 C
2285 09-01-2019 22:35:00 3.2 C 76 % -0.61 C
2286 09-01-2019 22:40:00 3.2 C 77 % -0.43 C
2287 09-01-2019 22:45:00 3.2 C 77 % -0.43 C
2288 09-01-2019 22:50:00 3.2 C 77 % -0.43 C
2289 09-01-2019 22:55:00 3.2 C 77 % -0.43 C
2290 09-01-2019 23:00:00 3.1 C 77 % -0.53 C
2291 09-01-2019 23:05:00 3.1 C 77 % -0.53 C
2292 09-01-2019 23:10:00 3.1 C 76 % -0.71 C
2293 09-01-2019 23:15:00 3.1 C 76 % -0.71 C
2294 09-01-2019 23:20:00 3.1 C 77 % -0.53 C
2295 09-01-2019 23:25:00 3.1 C 76 % -0.71 C
2296 09-01-2019 23:30:00 3.1 C 77 % -0.53 C
2297 09-01-2019 23:35:00 3.1 C 77 % -0.53 C
2298 09-01-2019 23:40:00 3.1 C 76 % -0.71 C
2299 09-01-2019 23:45:00 3.1 C 76 % -0.71 C
2300 09-01-2019 23:50:00 3.1 C 76 % -0.71 C
Sensor: Nr:Datum:Temp:Feuchte:Taupunkt:
Aussen-T/F 2301 09-01-2019 23:55:00 3.1 C 77 % -0.53 C
2302 10-01-2019 00:00:00 3.1 C 77 % -0.53 C
2303 10-01-2019 00:05:00 3.1 C 76 % -0.71 C
2304 10-01-2019 00:10:00 3.1 C 77 % -0.53 C
2305 10-01-2019 00:15:00 3.1 C 77 % -0.53 C
2306 10-01-2019 00:20:00 3 C 77 % -0.63 C
2307 10-01-2019 00:25:00 3 C 76 % -0.81 C
2308 10-01-2019 00:30:00 3 C 77 % -0.63 C
2309 10-01-2019 00:35:00 3 C 77 % -0.63 C
2310 10-01-2019 00:40:00 3 C 77 % -0.63 C
2311 10-01-2019 00:45:00 2.9 C 77 % -0.72 C
2312 10-01-2019 00:50:00 2.9 C 77 % -0.72 C
2313 10-01-2019 00:55:00 2.9 C 77 % -0.72 C
2314 10-01-2019 01:00:00 2.9 C 77 % -0.72 C
2315 10-01-2019 01:05:00 2.9 C 77 % -0.72 C
2316 10-01-2019 01:10:00 2.8 C 77 % -0.82 C
2317 10-01-2019 01:15:00 2.8 C 77 % -0.82 C
2318 10-01-2019 01:20:00 2.8 C 77 % -0.82 C
2319 10-01-2019 01:25:00 2.8 C 78 % -0.65 C
2320 10-01-2019 01:30:00 2.8 C 78 % -0.65 C
2321 10-01-2019 01:35:00 2.7 C 78 % -0.74 C
2322 10-01-2019 01:40:00 2.7 C 78 % -0.74 C
2323 10-01-2019 01:45:00 2.7 C 78 % -0.74 C
2324 10-01-2019 01:50:00 2.7 C 78 % -0.74 C
2325 10-01-2019 01:55:00 2.7 C 78 % -0.74 C
Sensor: Nr:Datum:Temp:Feuchte:Taupunkt:
Aussen-T/F 2326 10-01-2019 02:00:00 2.7 C 78 % -0.74 C
2327 10-01-2019 02:05:00 2.7 C 78 % -0.74 C
2328 10-01-2019 02:10:00 2.7 C 78 % -0.74 C
2329 10-01-2019 02:15:00 2.7 C 78 % -0.74 C
2330 10-01-2019 02:20:00 2.7 C 78 % -0.74 C
2331 10-01-2019 02:25:00 2.7 C 78 % -0.74 C
2332 10-01-2019 02:30:00 2.6 C 78 % -0.84 C
2333 10-01-2019 02:35:00 2.6 C 78 % -0.84 C
2334 10-01-2019 02:40:00 2.6 C 78 % -0.84 C
2335 10-01-2019 02:45:00 2.6 C 78 % -0.84 C
2336 10-01-2019 02:50:00 2.6 C 78 % -0.84 C
2337 10-01-2019 02:55:00 2.6 C 78 % -0.84 C
2338 10-01-2019 03:00:00 2.6 C 78 % -0.84 C
2339 10-01-2019 03:05:00 2.6 C 79 % -0.67 C
2340 10-01-2019 03:10:00 2.6 C 79 % -0.67 C
2341 10-01-2019 03:15:00 2.5 C 79 % -0.76 C
2342 10-01-2019 03:20:00 2.5 C 79 % -0.76 C
2343 10-01-2019 03:25:00 2.5 C 79 % -0.76 C
2344 10-01-2019 03:30:00 2.4 C 80 % -0.69 C
2345 10-01-2019 03:35:00 2.4 C 80 % -0.69 C
2346 10-01-2019 03:40:00 2.4 C 80 % -0.69 C
2347 10-01-2019 03:45:00 2.4 C 80 % -0.69 C
2348 10-01-2019 03:50:00 2.4 C 80 % -0.69 C
2349 10-01-2019 03:55:00 2.4 C 80 % -0.69 C
2350 10-01-2019 04:00:00 2.4 C 80 % -0.69 C
Sensor: Nr:Datum:Temp:Feuchte:Taupunkt:
Aussen-T/F 2351 10-01-2019 04:05:00 2.4 C 80 % -0.69 C
2352 10-01-2019 04:10:00 2.4 C 80 % -0.69 C
2353 10-01-2019 04:15:00 2.3 C 80 % -0.79 C
2354 10-01-2019 04:20:00 2.3 C 80 % -0.79 C
2355 10-01-2019 04:25:00 2.3 C 80 % -0.79 C
2356 10-01-2019 04:30:00 2.3 C 80 % -0.79 C
2357 10-01-2019 04:35:00 2.3 C 80 % -0.79 C
2358 10-01-2019 04:40:00 2.3 C 80 % -0.79 C
2359 10-01-2019 04:45:00 2.3 C 80 % -0.79 C
2360 10-01-2019 04:50:00 2.3 C 80 % -0.79 C
2361 10-01-2019 04:55:00 2.3 C 80 % -0.79 C
2362 10-01-2019 05:00:00 2.3 C 80 % -0.79 C
2363 10-01-2019 05:05:00 2.2 C 80 % -0.88 C
2364 10-01-2019 05:10:00 2.2 C 81 % -0.71 C
2365 10-01-2019 05:15:00 2.2 C 81 % -0.71 C
2366 10-01-2019 05:20:00 2.2 C 81 % -0.71 C
2367 10-01-2019 05:25:00 2.2 C 81 % -0.71 C
2368 10-01-2019 05:30:00 2.1 C 81 % -0.81 C
2369 10-01-2019 05:35:00 2.1 C 81 % -0.81 C
2370 10-01-2019 05:40:00 2.1 C 80 % -0.98 C
2371 10-01-2019 05:45:00 2.1 C 81 % -0.81 C
2372 10-01-2019 05:50:00 2.1 C 81 % -0.81 C
2373 10-01-2019 05:55:00 2.1 C 82 % -0.64 C
2374 10-01-2019 06:00:00 2.1 C 82 % -0.64 C
2375 10-01-2019 06:05:00 2.1 C 82 % -0.64 C
Sensor: Nr:Datum:Temp:Feuchte:Taupunkt:
Aussen-T/F 2376 10-01-2019 06:10:00 2.1 C 82 % -0.64 C
2377 10-01-2019 06:15:00 2.1 C 82 % -0.64 C
2378 10-01-2019 06:20:00 2 C 82 % -0.74 C
2379 10-01-2019 06:25:00 2.1 C 82 % -0.64 C
2380 10-01-2019 06:30:00 2 C 82 % -0.74 C
2381 10-01-2019 06:35:00 2 C 83 % -0.58 C
2382 10-01-2019 06:40:00 2 C 83 % -0.58 C
2383 10-01-2019 06:45:00 2 C 83 % -0.58 C
2384 10-01-2019 06:50:00 2 C 83 % -0.58 C
2385 10-01-2019 06:55:00 2 C 83 % -0.58 C
2386 10-01-2019 07:00:00 1.9 C 83 % -0.67 C
2387 10-01-2019 07:05:00 1.9 C 83 % -0.67 C
2388 10-01-2019 07:10:00 1.9 C 83 % -0.67 C
2389 10-01-2019 07:15:00 1.9 C 83 % -0.67 C
2390 10-01-2019 07:20:00 1.9 C 83 % -0.67 C
2391 10-01-2019 07:25:00 1.8 C 84 % -0.61 C
2392 10-01-2019 07:30:00 1.8 C 84 % -0.61 C
2393 10-01-2019 07:35:00 1.7 C 84 % -0.71 C
2394 10-01-2019 07:40:00 1.7 C 85 % -0.54 C
2395 10-01-2019 07:45:00 1.6 C 85 % -0.64 C
2396 10-01-2019 07:50:00 1.5 C 85 % -0.74 C
2397 10-01-2019 07:55:00 1.4 C 86 % -0.68 C
2398 10-01-2019 08:00:00 1.4 C 86 % -0.68 C
2399 10-01-2019 08:05:00 1.4 C 86 % -0.68 C
2400 10-01-2019 08:10:00 1.5 C 87 % -0.42 C
Sensor: Nr:Datum:Temp:Feuchte:Taupunkt:
Aussen-T/F 2401 10-01-2019 08:15:00 1.5 C 86 % -0.58 C
2402 10-01-2019 08:20:00 1.6 C 86 % -0.48 C
2403 10-01-2019 08:25:00 1.6 C 86 % -0.48 C
2404 10-01-2019 08:30:00 1.6 C 86 % -0.48 C
2405 10-01-2019 08:35:00 1.7 C 85 % -0.54 C
2406 10-01-2019 08:40:00 1.7 C 85 % -0.54 C
2407 10-01-2019 08:45:00 1.7 C 85 % -0.54 C
2408 10-01-2019 08:50:00 1.7 C 85 % -0.54 C
2409 10-01-2019 08:55:00 1.7 C 85 % -0.54 C
2410 10-01-2019 09:00:00 1.7 C 85 % -0.54 C
2411 10-01-2019 09:05:00 1.8 C 85 % -0.45 C
2412 10-01-2019 09:10:00 1.8 C 85 % -0.45 C
2413 10-01-2019 09:15:00 1.8 C 85 % -0.45 C
2414 10-01-2019 09:20:00 1.8 C 85 % -0.45 C
2415 10-01-2019 09:25:00 1.8 C 85 % -0.45 C
2416 10-01-2019 09:30:00 1.8 C 85 % -0.45 C
2417 10-01-2019 09:35:00 1.8 C 85 % -0.45 C
2418 10-01-2019 09:40:00 1.8 C 85 % -0.45 C
2419 10-01-2019 09:45:00 1.8 C 86 % -0.29 C
2420 10-01-2019 09:50:00 1.9 C 86 % -0.19 C
2421 10-01-2019 09:55:00 1.9 C 86 % -0.19 C
2422 10-01-2019 10:00:00 1.9 C 86 % -0.19 C
2423 10-01-2019 10:05:00 1.9 C 86 % -0.19 C
2424 10-01-2019 10:10:00 1.9 C 86 % -0.19 C
2425 10-01-2019 10:15:00 1.9 C 86 % -0.19 C
Sensor: Nr:Datum:Temp:Feuchte:Taupunkt:
Aussen-T/F 2426 10-01-2019 10:20:00 1.9 C 86 % -0.19 C
2427 10-01-2019 10:25:00 2 C 87 % 0.07 C
2428 10-01-2019 10:30:00 2 C 87 % 0.07 C
2429 10-01-2019 10:35:00 2 C 86 % -0.09 C
2430 10-01-2019 10:40:00 2.1 C 86 % 0.01 C
2431 10-01-2019 10:45:00 2.1 C 86 % 0.01 C
2432 10-01-2019 10:50:00 2.1 C 86 % 0.01 C
2433 10-01-2019 10:55:00 2.1 C 86 % 0.01 C
2434 10-01-2019 11:00:00 2.1 C 86 % 0.01 C
2435 10-01-2019 11:05:00 2.1 C 86 % 0.01 C
2436 10-01-2019 11:10:00 2.2 C 86 % 0.11 C
2437 10-01-2019 11:15:00 2.2 C 86 % 0.11 C
2438 10-01-2019 11:20:00 2.2 C 86 % 0.11 C
2439 10-01-2019 11:25:00 2.2 C 86 % 0.11 C
2440 10-01-2019 11:30:00 2.2 C 85 % -0.05 C
2441 10-01-2019 11:35:00 2.2 C 86 % 0.11 C
2442 10-01-2019 11:40:00 2.2 C 86 % 0.11 C
2443 10-01-2019 11:45:00 2.2 C 86 % 0.11 C
2444 10-01-2019 11:50:00 2.2 C 86 % 0.11 C
2445 10-01-2019 11:55:00 2.2 C 86 % 0.11 C
2446 10-01-2019 12:00:00 2.2 C 86 % 0.11 C
2447 10-01-2019 12:05:00 2.2 C 86 % 0.11 C
2448 10-01-2019 12:10:00 2.2 C 86 % 0.11 C
2449 10-01-2019 12:15:00 2.2 C 86 % 0.11 C
2450 10-01-2019 12:20:00 2.2 C 86 % 0.11 C
Sensor: Nr:Datum:Temp:Feuchte:Taupunkt:
Aussen-T/F 2451 10-01-2019 12:25:00 2.2 C 86 % 0.11 C
2452 10-01-2019 12:30:00 2.2 C 86 % 0.11 C
2453 10-01-2019 12:35:00 2.2 C 86 % 0.11 C
2454 10-01-2019 12:40:00 2.2 C 86 % 0.11 C
2455 10-01-2019 12:45:00 2.2 C 86 % 0.11 C
2456 10-01-2019 12:50:00 2.2 C 85 % -0.05 C
2457 10-01-2019 12:55:00 2.3 C 84 % -0.12 C
2458 10-01-2019 13:00:00 2.3 C 83 % -0.28 C
2459 10-01-2019 13:05:00 2.3 C 82 % -0.45 C
2460 10-01-2019 13:10:00 2.4 C 82 % -0.35 C
2461 10-01-2019 13:15:00 2.5 C 81 % -0.42 C
2462 10-01-2019 13:20:00 2.5 C 81 % -0.42 C
2463 10-01-2019 13:25:00 2.6 C 80 % -0.49 C
2464 10-01-2019 13:30:00 2.6 C 80 % -0.49 C
2465 10-01-2019 13:35:00 2.6 C 79 % -0.67 C
2466 10-01-2019 13:40:00 2.6 C 79 % -0.67 C
2467 10-01-2019 13:45:00 2.6 C 79 % -0.67 C
2468 10-01-2019 13:50:00 2.7 C 78 % -0.74 C
2469 10-01-2019 13:55:00 2.6 C 78 % -0.84 C
2470 10-01-2019 14:00:00 2.7 C 79 % -0.57 C
2471 10-01-2019 14:05:00 2.7 C 78 % -0.74 C
2472 10-01-2019 14:10:00 2.7 C 79 % -0.57 C
2473 10-01-2019 14:15:00 2.8 C 79 % -0.47 C
2474 10-01-2019 14:20:00 2.8 C 78 % -0.65 C
2475 10-01-2019 14:25:00 2.9 C 78 % -0.55 C
Sensor: Nr:Datum:Temp:Feuchte:Taupunkt:
Aussen-T/F 2476 10-01-2019 14:30:00 2.9 C 78 % -0.55 C
2477 10-01-2019 14:35:00 3 C 78 % -0.45 C
2478 10-01-2019 14:40:00 3 C 78 % -0.45 C
2479 10-01-2019 14:45:00 3 C 78 % -0.45 C
2480 10-01-2019 14:50:00 3 C 78 % -0.45 C
2481 10-01-2019 14:55:00 3 C 77 % -0.63 C
2482 10-01-2019 15:00:00 3 C 78 % -0.45 C
2483 10-01-2019 15:05:00 2.9 C 78 % -0.55 C
2484 10-01-2019 15:10:00 2.9 C 78 % -0.55 C
2485 10-01-2019 15:15:00 2.9 C 78 % -0.55 C
2486 10-01-2019 15:20:00 2.9 C 78 % -0.55 C
2487 10-01-2019 15:25:00 2.9 C 79 % -0.37 C
2488 10-01-2019 15:30:00 2.9 C 79 % -0.37 C
2489 10-01-2019 15:35:00 2.9 C 79 % -0.37 C
2490 10-01-2019 15:40:00 2.8 C 78 % -0.65 C
2491 10-01-2019 15:45:00 2.8 C 79 % -0.47 C
2492 10-01-2019 15:50:00 2.8 C 79 % -0.47 C
2493 10-01-2019 15:55:00 2.8 C 79 % -0.47 C
2494 10-01-2019 16:00:00 2.7 C 79 % -0.57 C
2495 10-01-2019 16:05:00 2.7 C 80 % -0.4 C
2496 10-01-2019 16:10:00 2.7 C 80 % -0.4 C
2497 10-01-2019 16:15:00 2.6 C 80 % -0.49 C
2498 10-01-2019 16:20:00 2.6 C 80 % -0.49 C
2499 10-01-2019 16:25:00 2.6 C 80 % -0.49 C
2500 10-01-2019 16:30:00 2.6 C 80 % -0.49 C
Sensor: Nr:Datum:Temp:Feuchte:Taupunkt:
Aussen-T/F 2501 10-01-2019 16:35:00 2.6 C 80 % -0.49 C
2502 10-01-2019 16:40:00 2.6 C 80 % -0.49 C
2503 10-01-2019 16:45:00 2.5 C 81 % -0.42 C
2504 10-01-2019 16:50:00 2.5 C 81 % -0.42 C
2505 10-01-2019 16:55:00 2.4 C 81 % -0.52 C
2506 10-01-2019 17:00:00 2.4 C 81 % -0.52 C
2507 10-01-2019 17:05:00 2.3 C 82 % -0.45 C
2508 10-01-2019 17:10:00 2.3 C 83 % -0.28 C
2509 10-01-2019 17:15:00 2.2 C 83 % -0.38 C
2510 10-01-2019 17:20:00 2.1 C 83 % -0.48 C
2511 10-01-2019 17:25:00 2.1 C 83 % -0.48 C
2512 10-01-2019 17:30:00 2.1 C 84 % -0.31 C
2513 10-01-2019 17:35:00 2.1 C 84 % -0.31 C
2514 10-01-2019 17:40:00 2.1 C 84 % -0.31 C
2515 10-01-2019 17:45:00 2.1 C 84 % -0.31 C
2516 10-01-2019 17:50:00 2.1 C 85 % -0.15 C
2517 10-01-2019 17:55:00 2 C 85 % -0.25 C
2518 10-01-2019 18:00:00 2 C 85 % -0.25 C
2519 10-01-2019 18:05:00 2 C 85 % -0.25 C
2520 10-01-2019 18:10:00 2 C 85 % -0.25 C
2521 10-01-2019 18:15:00 2 C 86 % -0.09 C
2522 10-01-2019 18:20:00 2 C 86 % -0.09 C
2523 10-01-2019 18:25:00 1.9 C 86 % -0.19 C
2524 10-01-2019 18:30:00 1.9 C 86 % -0.19 C
2525 10-01-2019 18:35:00 1.8 C 86 % -0.29 C
Sensor: Nr:Datum:Temp:Feuchte:Taupunkt:
Aussen-T/F 2526 10-01-2019 18:40:00 1.8 C 87 % -0.13 C
2527 10-01-2019 18:45:00 1.7 C 87 % -0.23 C
2528 10-01-2019 18:50:00 1.6 C 87 % -0.32 C
2529 10-01-2019 18:55:00 1.6 C 88 % -0.17 C
2530 10-01-2019 19:00:00 1.6 C 88 % -0.17 C
2531 10-01-2019 19:05:00 1.5 C 88 % -0.27 C
2532 10-01-2019 19:10:00 1.4 C 88 % -0.36 C
2533 10-01-2019 19:15:00 1.4 C 89 % -0.21 C
2534 10-01-2019 19:20:00 1.4 C 89 % -0.21 C
2535 10-01-2019 19:25:00 1.4 C 89 % -0.21 C
2536 10-01-2019 19:30:00 1.3 C 89 % -0.31 C
2537 10-01-2019 19:35:00 1.2 C 88 % -0.56 C
2538 10-01-2019 19:40:00 1.2 C 89 % -0.41 C
2539 10-01-2019 19:45:00 1.1 C 89 % -0.51 C
2540 10-01-2019 19:50:00 1 C 89 % -0.6 C
2541 10-01-2019 19:55:00 1 C 90 % -0.45 C
2542 10-01-2019 20:00:00 1 C 90 % -0.45 C
2543 10-01-2019 20:05:00 1 C 90 % -0.45 C
2544 10-01-2019 20:10:00 1 C 91 % -0.3 C
2545 10-01-2019 20:15:00 1.1 C 91 % -0.2 C
2546 10-01-2019 20:20:00 1.1 C 91 % -0.2 C
2547 10-01-2019 20:25:00 1.1 C 91 % -0.2 C
2548 10-01-2019 20:30:00 1.1 C 91 % -0.2 C
2549 10-01-2019 20:35:00 1 C 91 % -0.3 C
2550 10-01-2019 20:40:00 1 C 91 % -0.3 C
Sensor: Nr:Datum:Temp:Feuchte:Taupunkt:
Aussen-T/F 2551 10-01-2019 20:45:00 1 C 91 % -0.3 C
2552 10-01-2019 20:50:00 1 C 91 % -0.3 C
2553 10-01-2019 20:55:00 1 C 91 % -0.3 C
2554 10-01-2019 21:00:00 1 C 91 % -0.3 C
2555 10-01-2019 21:05:00 1 C 91 % -0.3 C
2556 10-01-2019 21:10:00 1 C 91 % -0.3 C
2557 10-01-2019 21:15:00 1 C 91 % -0.3 C
2558 10-01-2019 21:20:00 1 C 92 % -0.15 C
2559 10-01-2019 21:25:00 1 C 92 % -0.15 C
2560 10-01-2019 21:30:00 1 C 92 % -0.15 C
2561 10-01-2019 21:35:00 1.1 C 92 % -0.05 C
2562 10-01-2019 21:40:00 1.1 C 92 % -0.05 C
2563 10-01-2019 21:45:00 1.1 C 92 % -0.05 C
2564 10-01-2019 21:50:00 1.1 C 92 % -0.05 C
2565 10-01-2019 21:55:00 1.1 C 92 % -0.05 C
2566 10-01-2019 22:00:00 1.1 C 92 % -0.05 C
2567 10-01-2019 22:05:00 1.1 C 92 % -0.05 C
2568 10-01-2019 22:10:00 1.1 C 92 % -0.05 C
2569 10-01-2019 22:15:00 1.1 C 92 % -0.05 C
2570 10-01-2019 22:20:00 1.1 C 92 % -0.05 C
2571 10-01-2019 22:25:00 1.1 C 92 % -0.05 C
2572 10-01-2019 22:30:00 1.1 C 92 % -0.05 C
2573 10-01-2019 22:35:00 1.1 C 92 % -0.05 C
2574 10-01-2019 22:40:00 1.1 C 92 % -0.05 C
2575 10-01-2019 22:45:00 1.1 C 92 % -0.05 C
Sensor: Nr:Datum:Temp:Feuchte:Taupunkt:
Aussen-T/F 2576 10-01-2019 22:50:00 1.1 C 92 % -0.05 C
2577 10-01-2019 22:55:00 1.1 C 92 % -0.05 C
2578 10-01-2019 23:00:00 1.1 C 92 % -0.05 C
2579 10-01-2019 23:05:00 1.1 C 92 % -0.05 C
2580 10-01-2019 23:10:00 1 C 93 % 0 C
2581 10-01-2019 23:15:00 1 C 93 % 0 C
2582 10-01-2019 23:20:00 1 C 93 % 0 C
2583 10-01-2019 23:25:00 1 C 93 % 0 C
2584 10-01-2019 23:30:00 1 C 93 % 0 C
2585 10-01-2019 23:35:00 1 C 93 % 0 C
2586 10-01-2019 23:40:00 1.1 C 93 % 0.1 C
2587 10-01-2019 23:45:00 1.1 C 93 % 0.1 C
2588 10-01-2019 23:50:00 1.1 C 93 % 0.1 C
2589 10-01-2019 23:55:00 1.1 C 93 % 0.1 C
2590 11-01-2019 00:00:00 1.1 C 93 % 0.1 C
2591 11-01-2019 00:05:00 1.1 C 93 % 0.1 C
2592 11-01-2019 00:10:00 1.1 C 93 % 0.1 C
2593 11-01-2019 00:15:00 1 C 93 % 0 C
2594 11-01-2019 00:20:00 1 C 93 % 0 C
2595 11-01-2019 00:25:00 1 C 93 % 0 C
2596 11-01-2019 00:30:00 1.1 C 93 % 0.1 C
2597 11-01-2019 00:35:00 1.1 C 93 % 0.1 C
2598 11-01-2019 00:40:00 1.1 C 93 % 0.1 C
2599 11-01-2019 00:45:00 1.2 C 93 % 0.2 C
2600 11-01-2019 00:50:00 1.2 C 93 % 0.2 C
Sensor: Nr:Datum:Temp:Feuchte:Taupunkt:
Aussen-T/F 2601 11-01-2019 00:55:00 1.2 C 92 % 0.05 C
2602 11-01-2019 01:00:00 1.2 C 92 % 0.05 C
2603 11-01-2019 01:05:00 1.2 C 92 % 0.05 C
2604 11-01-2019 01:10:00 1.2 C 92 % 0.05 C
2605 11-01-2019 01:15:00 1.2 C 92 % 0.05 C
2606 11-01-2019 01:20:00 1.2 C 92 % 0.05 C
2607 11-01-2019 01:25:00 1.3 C 92 % 0.15 C
2608 11-01-2019 01:30:00 1.3 C 91 % 0 C
2609 11-01-2019 01:35:00 1.3 C 91 % 0 C
2610 11-01-2019 01:40:00 1.3 C 91 % 0 C
2611 11-01-2019 01:45:00 1.2 C 91 % -0.1 C
2612 11-01-2019 01:50:00 1.2 C 91 % -0.1 C
2613 11-01-2019 01:55:00 1.2 C 91 % -0.1 C
2614 11-01-2019 02:00:00 1.2 C 91 % -0.1 C
2615 11-01-2019 02:05:00 1.2 C 91 % -0.1 C
2616 11-01-2019 02:10:00 1.2 C 91 % -0.1 C
2617 11-01-2019 02:15:00 1.2 C 91 % -0.1 C
2618 11-01-2019 02:20:00 1.2 C 91 % -0.1 C
2619 11-01-2019 02:25:00 1.2 C 92 % 0.05 C
2620 11-01-2019 02:30:00 1.1 C 92 % -0.05 C
2621 11-01-2019 02:35:00 1.1 C 92 % -0.05 C
2622 11-01-2019 02:40:00 1.1 C 92 % -0.05 C
2623 11-01-2019 02:45:00 1.1 C 92 % -0.05 C
2624 11-01-2019 02:50:00 1.1 C 92 % -0.05 C
2625 11-01-2019 02:55:00 1 C 92 % -0.15 C
Sensor: Nr:Datum:Temp:Feuchte:Taupunkt:
Aussen-T/F 2626 11-01-2019 03:00:00 1 C 92 % -0.15 C
2627 11-01-2019 03:05:00 0.9 C 92 % -0.25 C
2628 11-01-2019 03:10:00 0.9 C 92 % -0.25 C
2629 11-01-2019 03:15:00 0.9 C 92 % -0.25 C
2630 11-01-2019 03:20:00 0.9 C 92 % -0.25 C
2631 11-01-2019 03:25:00 0.8 C 92 % -0.35 C
2632 11-01-2019 03:30:00 0.8 C 92 % -0.35 C
2633 11-01-2019 03:35:00 0.8 C 93 % -0.2 C
2634 11-01-2019 03:40:00 0.8 C 93 % -0.2 C
2635 11-01-2019 03:45:00 0.8 C 93 % -0.2 C
2636 11-01-2019 03:50:00 0.8 C 93 % -0.2 C
2637 11-01-2019 03:55:00 0.8 C 93 % -0.2 C
2638 11-01-2019 04:00:00 0.8 C 93 % -0.2 C
2639 11-01-2019 04:05:00 0.8 C 93 % -0.2 C
2640 11-01-2019 04:10:00 0.8 C 93 % -0.2 C
2641 11-01-2019 04:15:00 0.8 C 93 % -0.2 C
2642 11-01-2019 04:20:00 0.8 C 93 % -0.2 C
2643 11-01-2019 04:25:00 0.9 C 94 % 0.05 C
2644 11-01-2019 04:30:00 0.9 C 94 % 0.05 C
2645 11-01-2019 04:35:00 0.9 C 94 % 0.05 C
2646 11-01-2019 04:40:00 0.9 C 94 % 0.05 C
2647 11-01-2019 04:45:00 0.9 C 94 % 0.05 C
2648 11-01-2019 04:50:00 0.9 C 94 % 0.05 C
2649 11-01-2019 04:55:00 0.9 C 94 % 0.05 C
2650 11-01-2019 05:00:00 0.9 C 94 % 0.05 C
Sensor: Nr:Datum:Temp:Feuchte:Taupunkt:
Aussen-T/F 2651 11-01-2019 05:05:00 0.9 C 94 % 0.05 C
2652 11-01-2019 05:10:00 0.9 C 94 % 0.05 C
2653 11-01-2019 05:15:00 0.9 C 94 % 0.05 C
2654 11-01-2019 05:20:00 0.9 C 94 % 0.05 C
2655 11-01-2019 05:25:00 0.9 C 94 % 0.05 C
2656 11-01-2019 05:30:00 0.9 C 94 % 0.05 C
2657 11-01-2019 05:35:00 0.9 C 94 % 0.05 C
2658 11-01-2019 05:40:00 0.9 C 94 % 0.05 C
2659 11-01-2019 05:45:00 0.9 C 94 % 0.05 C
2660 11-01-2019 05:50:00 0.9 C 94 % 0.05 C
2661 11-01-2019 05:55:00 0.9 C 94 % 0.05 C
2662 11-01-2019 06:00:00 0.9 C 94 % 0.05 C
2663 11-01-2019 06:05:00 0.9 C 94 % 0.05 C
2664 11-01-2019 06:10:00 0.9 C 94 % 0.05 C
2665 11-01-2019 06:15:00 0.9 C 94 % 0.05 C
2666 11-01-2019 06:20:00 0.9 C 94 % 0.05 C
2667 11-01-2019 06:25:00 0.9 C 95 % 0.19 C
2668 11-01-2019 06:30:00 0.9 C 95 % 0.19 C
2669 11-01-2019 06:35:00 0.9 C 95 % 0.19 C
2670 11-01-2019 06:40:00 0.9 C 95 % 0.19 C
2671 11-01-2019 06:45:00 1 C 95 % 0.29 C
2672 11-01-2019 06:50:00 1 C 95 % 0.29 C
2673 11-01-2019 06:55:00 1.1 C 95 % 0.39 C
2674 11-01-2019 07:00:00 1.1 C 95 % 0.39 C
2675 11-01-2019 07:05:00 1.1 C 95 % 0.39 C
Sensor: Nr:Datum:Temp:Feuchte:Taupunkt:
Aussen-T/F 2676 11-01-2019 07:10:00 1.2 C 95 % 0.49 C
2677 11-01-2019 07:15:00 1.2 C 95 % 0.49 C
2678 11-01-2019 07:20:00 1.2 C 95 % 0.49 C
2679 11-01-2019 07:25:00 1.2 C 95 % 0.49 C
2680 11-01-2019 07:30:00 1.2 C 95 % 0.49 C
2681 11-01-2019 07:35:00 1.2 C 95 % 0.49 C
2682 11-01-2019 07:40:00 1.3 C 95 % 0.59 C
2683 11-01-2019 07:45:00 1.3 C 95 % 0.59 C
2684 11-01-2019 07:50:00 1.3 C 95 % 0.59 C
2685 11-01-2019 07:55:00 1.3 C 95 % 0.59 C
2686 11-01-2019 08:00:00 1.3 C 95 % 0.59 C
2687 11-01-2019 08:05:00 1.3 C 95 % 0.59 C
2688 11-01-2019 08:10:00 1.3 C 95 % 0.59 C
2689 11-01-2019 08:15:00 1.3 C 94 % 0.44 C
2690 11-01-2019 08:20:00 1.4 C 94 % 0.54 C
2691 11-01-2019 08:25:00 1.4 C 94 % 0.54 C
2692 11-01-2019 08:30:00 1.4 C 94 % 0.54 C
2693 11-01-2019 08:35:00 1.4 C 94 % 0.54 C
2694 11-01-2019 08:40:00 1.4 C 94 % 0.54 C
2695 11-01-2019 08:45:00 1.5 C 94 % 0.64 C
2696 11-01-2019 08:50:00 1.5 C 94 % 0.64 C
2697 11-01-2019 08:55:00 1.6 C 94 % 0.74 C
2698 11-01-2019 09:00:00 1.6 C 94 % 0.74 C
2699 11-01-2019 09:05:00 1.7 C 94 % 0.84 C
2700 11-01-2019 09:10:00 1.7 C 94 % 0.84 C
Sensor: Nr:Datum:Temp:Feuchte:Taupunkt:
Aussen-T/F 2701 11-01-2019 09:15:00 1.7 C 94 % 0.84 C
2702 11-01-2019 09:20:00 1.7 C 94 % 0.84 C
2703 11-01-2019 09:25:00 1.7 C 94 % 0.84 C
2704 11-01-2019 09:30:00 1.7 C 94 % 0.84 C
2705 11-01-2019 09:35:00 1.7 C 94 % 0.84 C
2706 11-01-2019 09:40:00 1.7 C 94 % 0.84 C
2707 11-01-2019 09:45:00 1.7 C 94 % 0.84 C
2708 11-01-2019 09:50:00 1.8 C 94 % 0.94 C
2709 11-01-2019 09:55:00 1.8 C 94 % 0.94 C
2710 11-01-2019 10:00:00 1.8 C 94 % 0.94 C
2711 11-01-2019 10:05:00 1.8 C 94 % 0.94 C
2712 11-01-2019 10:10:00 1.8 C 94 % 0.94 C
2713 11-01-2019 10:15:00 1.9 C 94 % 1.04 C
2714 11-01-2019 10:20:00 1.9 C 94 % 1.04 C
2715 11-01-2019 10:25:00 1.9 C 93 % 0.89 C
2716 11-01-2019 10:30:00 1.9 C 93 % 0.89 C
2717 11-01-2019 10:35:00 1.9 C 94 % 1.04 C
2718 11-01-2019 10:40:00 2 C 94 % 1.14 C
2719 11-01-2019 10:45:00 2.1 C 94 % 1.24 C
2720 11-01-2019 10:50:00 2.1 C 94 % 1.24 C
2721 11-01-2019 10:55:00 2.1 C 94 % 1.24 C
2722 11-01-2019 11:00:00 2.1 C 94 % 1.24 C
2723 11-01-2019 11:05:00 2.1 C 94 % 1.24 C
2724 11-01-2019 11:10:00 2.1 C 94 % 1.24 C
2725 11-01-2019 11:15:00 2.1 C 94 % 1.24 C
Sensor: Nr:Datum:Temp:Feuchte:Taupunkt:
Aussen-T/F 2726 11-01-2019 11:20:00 2.2 C 94 % 1.34 C
2727 11-01-2019 11:25:00 2.2 C 94 % 1.34 C
2728 11-01-2019 11:30:00 2.2 C 94 % 1.34 C
2729 11-01-2019 11:35:00 2.3 C 94 % 1.44 C
2730 11-01-2019 11:40:00 2.3 C 94 % 1.44 C
2731 11-01-2019 11:45:00 2.3 C 94 % 1.44 C
2732 11-01-2019 11:50:00 2.3 C 94 % 1.44 C
2733 11-01-2019 11:55:00 2.3 C 94 % 1.44 C
2734 11-01-2019 12:00:00 2.4 C 94 % 1.54 C
2735 11-01-2019 12:05:00 2.4 C 94 % 1.54 C
2736 11-01-2019 12:10:00 2.4 C 94 % 1.54 C
2737 11-01-2019 12:15:00 2.4 C 94 % 1.54 C
2738 11-01-2019 12:20:00 2.4 C 94 % 1.54 C
2739 11-01-2019 12:25:00 2.4 C 94 % 1.54 C
2740 11-01-2019 12:30:00 2.4 C 94 % 1.54 C
2741 11-01-2019 12:35:00 2.4 C 95 % 1.68 C
2742 11-01-2019 12:40:00 2.5 C 95 % 1.78 C
2743 11-01-2019 12:45:00 2.6 C 95 % 1.88 C
2744 11-01-2019 12:50:00 2.6 C 95 % 1.88 C
2745 11-01-2019 12:55:00 2.5 C 95 % 1.78 C
2746 11-01-2019 13:00:00 2.6 C 95 % 1.88 C
2747 11-01-2019 13:05:00 2.6 C 95 % 1.88 C
2748 11-01-2019 13:10:00 2.6 C 95 % 1.88 C
2749 11-01-2019 13:15:00 2.6 C 95 % 1.88 C
2750 11-01-2019 13:20:00 2.6 C 95 % 1.88 C
Sensor: Nr:Datum:Temp:Feuchte:Taupunkt:
Aussen-T/F 2751 11-01-2019 13:25:00 2.7 C 95 % 1.98 C
2752 11-01-2019 13:30:00 2.7 C 95 % 1.98 C
2753 11-01-2019 13:35:00 2.7 C 95 % 1.98 C
2754 11-01-2019 13:40:00 2.7 C 95 % 1.98 C
2755 11-01-2019 13:45:00 2.7 C 95 % 1.98 C
2756 11-01-2019 13:50:00 2.8 C 95 % 2.08 C
2757 11-01-2019 13:55:00 2.8 C 96 % 2.23 C
2758 11-01-2019 14:00:00 2.8 C 96 % 2.23 C
2759 11-01-2019 14:05:00 2.9 C 96 % 2.33 C
2760 11-01-2019 14:10:00 2.9 C 96 % 2.33 C
2761 11-01-2019 14:15:00 2.9 C 96 % 2.33 C
2762 11-01-2019 14:20:00 2.9 C 96 % 2.33 C
2763 11-01-2019 14:25:00 3 C 96 % 2.43 C
2764 11-01-2019 14:30:00 3.1 C 96 % 2.53 C
2765 11-01-2019 14:35:00 3.2 C 96 % 2.63 C
2766 11-01-2019 14:40:00 3.3 C 96 % 2.72 C
2767 11-01-2019 14:45:00 3.3 C 96 % 2.72 C
2768 11-01-2019 14:50:00 3.3 C 96 % 2.72 C
2769 11-01-2019 14:55:00 3.3 C 96 % 2.72 C
2770 11-01-2019 15:00:00 3.3 C 96 % 2.72 C
2771 11-01-2019 15:05:00 3.3 C 96 % 2.72 C
2772 11-01-2019 15:10:00 3.3 C 96 % 2.72 C
2773 11-01-2019 15:15:00 3.3 C 96 % 2.72 C
2774 11-01-2019 15:20:00 3.3 C 96 % 2.72 C
2775 11-01-2019 15:25:00 3.3 C 96 % 2.72 C
Sensor: Nr:Datum:Temp:Feuchte:Taupunkt:
Aussen-T/F 2776 11-01-2019 15:30:00 3.3 C 95 % 2.58 C
2777 11-01-2019 15:35:00 3.3 C 96 % 2.72 C
2778 11-01-2019 15:40:00 3.4 C 96 % 2.82 C
2779 11-01-2019 15:45:00 3.4 C 96 % 2.82 C
2780 11-01-2019 15:50:00 3.5 C 96 % 2.92 C
2781 11-01-2019 15:55:00 3.5 C 96 % 2.92 C
2782 11-01-2019 16:00:00 3.5 C 96 % 2.92 C
2783 11-01-2019 16:05:00 3.6 C 96 % 3.02 C
2784 11-01-2019 16:10:00 3.6 C 96 % 3.02 C
2785 11-01-2019 16:15:00 3.6 C 96 % 3.02 C
2786 11-01-2019 16:20:00 3.6 C 96 % 3.02 C
2787 11-01-2019 16:25:00 3.6 C 96 % 3.02 C
2788 11-01-2019 16:30:00 3.6 C 96 % 3.02 C
2789 11-01-2019 16:35:00 3.6 C 96 % 3.02 C
2790 11-01-2019 16:40:00 3.6 C 96 % 3.02 C
2791 11-01-2019 16:45:00 3.7 C 96 % 3.12 C
2792 11-01-2019 16:50:00 3.7 C 96 % 3.12 C
2793 11-01-2019 16:55:00 3.7 C 96 % 3.12 C
2794 11-01-2019 17:00:00 3.7 C 96 % 3.12 C
2795 11-01-2019 17:05:00 3.7 C 96 % 3.12 C
2796 11-01-2019 17:10:00 3.8 C 96 % 3.22 C
2797 11-01-2019 17:15:00 3.8 C 96 % 3.22 C
2798 11-01-2019 17:20:00 3.8 C 96 % 3.22 C
2799 11-01-2019 17:25:00 3.8 C 96 % 3.22 C
2800 11-01-2019 17:30:00 3.8 C 96 % 3.22 C
Sensor: Nr:Datum:Temp:Feuchte:Taupunkt:
Aussen-T/F 2801 11-01-2019 17:35:00 3.8 C 96 % 3.22 C
2802 11-01-2019 17:40:00 3.9 C 96 % 3.32 C
2803 11-01-2019 17:45:00 3.9 C 96 % 3.32 C
2804 11-01-2019 17:50:00 3.9 C 96 % 3.32 C
2805 11-01-2019 17:55:00 3.9 C 96 % 3.32 C
2806 11-01-2019 18:00:00 4 C 96 % 3.42 C
2807 11-01-2019 18:05:00 4 C 96 % 3.42 C
2808 11-01-2019 18:10:00 4.1 C 97 % 3.67 C
2809 11-01-2019 18:15:00 4.1 C 97 % 3.67 C
2810 11-01-2019 18:20:00 4.2 C 97 % 3.77 C
2811 11-01-2019 18:25:00 4.2 C 97 % 3.77 C
2812 11-01-2019 18:30:00 4.2 C 97 % 3.77 C
2813 11-01-2019 18:35:00 4.2 C 96 % 3.62 C
2814 11-01-2019 18:40:00 4.3 C 96 % 3.72 C
2815 11-01-2019 18:45:00 4.3 C 96 % 3.72 C
2816 11-01-2019 18:50:00 4.3 C 96 % 3.72 C
2817 11-01-2019 18:55:00 4.3 C 96 % 3.72 C
2818 11-01-2019 19:00:00 4.3 C 96 % 3.72 C
2819 11-01-2019 19:05:00 4.4 C 97 % 3.97 C
2820 11-01-2019 19:10:00 4.4 C 97 % 3.97 C
2821 11-01-2019 19:15:00 4.4 C 97 % 3.97 C
2822 11-01-2019 19:20:00 4.5 C 97 % 4.07 C
2823 11-01-2019 19:25:00 4.5 C 97 % 4.07 C
2824 11-01-2019 19:30:00 4.6 C 97 % 4.17 C
2825 11-01-2019 19:35:00 4.6 C 97 % 4.17 C
Sensor: Nr:Datum:Temp:Feuchte:Taupunkt:
Aussen-T/F 2826 11-01-2019 19:40:00 4.7 C 97 % 4.27 C
2827 11-01-2019 19:45:00 4.7 C 97 % 4.27 C
2828 11-01-2019 19:50:00 4.8 C 97 % 4.37 C
2829 11-01-2019 19:55:00 5 C 97 % 4.56 C
2830 11-01-2019 20:00:00 5.1 C 97 % 4.66 C
2831 11-01-2019 20:05:00 5.2 C 97 % 4.76 C
2832 11-01-2019 20:10:00 5.2 C 97 % 4.76 C
2833 11-01-2019 20:15:00 5.1 C 97 % 4.66 C
2834 11-01-2019 20:20:00 5.1 C 97 % 4.66 C
2835 11-01-2019 20:25:00 5.2 C 97 % 4.76 C
2836 11-01-2019 20:30:00 5.2 C 97 % 4.76 C
2837 11-01-2019 20:35:00 5.2 C 97 % 4.76 C
2838 11-01-2019 20:40:00 5.1 C 97 % 4.66 C
2839 11-01-2019 20:45:00 5.2 C 97 % 4.76 C
2840 11-01-2019 20:50:00 5.4 C 97 % 4.96 C
2841 11-01-2019 20:55:00 5.7 C 97 % 5.26 C
2842 11-01-2019 21:00:00 5.9 C 97 % 5.46 C
2843 11-01-2019 21:05:00 6.1 C 97 % 5.66 C
2844 11-01-2019 21:10:00 6.1 C 97 % 5.66 C
2845 11-01-2019 21:15:00 6.2 C 97 % 5.76 C
2846 11-01-2019 21:20:00 6.3 C 97 % 5.86 C
2847 11-01-2019 21:25:00 6.3 C 97 % 5.86 C
2848 11-01-2019 21:30:00 6.3 C 97 % 5.86 C
2849 11-01-2019 21:35:00 6.4 C 97 % 5.96 C
2850 11-01-2019 21:40:00 6.4 C 97 % 5.96 C
Sensor: Nr:Datum:Temp:Feuchte:Taupunkt:
Aussen-T/F 2851 11-01-2019 21:45:00 6.5 C 97 % 6.06 C
2852 11-01-2019 21:50:00 6.5 C 97 % 6.06 C
2853 11-01-2019 21:55:00 6.4 C 97 % 5.96 C
2854 11-01-2019 22:00:00 6.5 C 97 % 6.06 C
2855 11-01-2019 22:05:00 6.5 C 97 % 6.06 C
2856 11-01-2019 22:10:00 6.4 C 97 % 5.96 C
2857 11-01-2019 22:15:00 6.4 C 97 % 5.96 C
2858 11-01-2019 22:20:00 6.4 C 97 % 5.96 C
2859 11-01-2019 22:25:00 6.5 C 97 % 6.06 C
2860 11-01-2019 22:30:00 6.5 C 96 % 5.91 C
2861 11-01-2019 22:35:00 6.5 C 96 % 5.91 C
2862 11-01-2019 22:40:00 6.5 C 96 % 5.91 C
2863 11-01-2019 22:45:00 6.5 C 96 % 5.91 C
2864 11-01-2019 22:50:00 6.5 C 96 % 5.91 C
2865 11-01-2019 22:55:00 6.6 C 96 % 6.01 C
2866 11-01-2019 23:00:00 6.6 C 96 % 6.01 C
2867 11-01-2019 23:05:00 6.6 C 96 % 6.01 C
2868 11-01-2019 23:10:00 6.6 C 96 % 6.01 C
2869 11-01-2019 23:15:00 6.7 C 96 % 6.11 C
2870 11-01-2019 23:20:00 6.7 C 96 % 6.11 C
2871 11-01-2019 23:25:00 6.7 C 96 % 6.11 C
2872 11-01-2019 23:30:00 6.7 C 96 % 6.11 C
2873 11-01-2019 23:35:00 6.7 C 96 % 6.11 C
2874 11-01-2019 23:40:00 6.7 C 96 % 6.11 C
2875 11-01-2019 23:45:00 6.7 C 96 % 6.11 C
Sensor: Nr:Datum:Temp:Feuchte:Taupunkt:
Aussen-T/F 2876 11-01-2019 23:50:00 6.7 C 96 % 6.11 C
2877 11-01-2019 23:55:00 6.6 C 96 % 6.01 C
2878 12-01-2019 00:00:00 6.6 C 96 % 6.01 C
2879 12-01-2019 00:05:00 6.6 C 96 % 6.01 C
2880 12-01-2019 00:10:00 6.6 C 96 % 6.01 C
2881 12-01-2019 00:15:00 6.6 C 96 % 6.01 C
2882 12-01-2019 00:20:00 6.6 C 96 % 6.01 C
2883 12-01-2019 00:25:00 6.6 C 96 % 6.01 C
2884 12-01-2019 00:30:00 6.6 C 96 % 6.01 C
2885 12-01-2019 00:35:00 6.6 C 96 % 6.01 C
2886 12-01-2019 00:40:00 6.6 C 96 % 6.01 C
2887 12-01-2019 00:45:00 6.6 C 96 % 6.01 C
2888 12-01-2019 00:50:00 6.7 C 96 % 6.11 C
2889 12-01-2019 00:55:00 6.6 C 96 % 6.01 C
2890 12-01-2019 01:00:00 6.7 C 96 % 6.11 C
2891 12-01-2019 01:05:00 6.6 C 96 % 6.01 C
2892 12-01-2019 01:10:00 6.6 C 96 % 6.01 C
2893 12-01-2019 01:15:00 6.6 C 96 % 6.01 C
2894 12-01-2019 01:20:00 6.6 C 96 % 6.01 C
2895 12-01-2019 01:25:00 6.6 C 96 % 6.01 C
2896 12-01-2019 01:30:00 6.6 C 96 % 6.01 C
2897 12-01-2019 01:35:00 6.6 C 96 % 6.01 C
2898 12-01-2019 01:40:00 6.5 C 96 % 5.91 C
2899 12-01-2019 01:45:00 6.4 C 96 % 5.81 C
2900 12-01-2019 01:50:00 6.4 C 96 % 5.81 C
Sensor: Nr:Datum:Temp:Feuchte:Taupunkt:
Aussen-T/F 2901 12-01-2019 07:55:00 5.1 C 94 % 4.22 C
2902 12-01-2019 08:00:00 5.1 C 94 % 4.22 C
2903 12-01-2019 08:05:00 5.1 C 94 % 4.22 C
2904 12-01-2019 08:10:00 5.1 C 94 % 4.22 C
2905 12-01-2019 08:15:00 5 C 94 % 4.12 C
2906 12-01-2019 08:20:00 5 C 94 % 4.12 C
2907 12-01-2019 08:25:00 5 C 95 % 4.27 C
2908 12-01-2019 08:30:00 5 C 95 % 4.27 C
2909 12-01-2019 08:35:00 4.9 C 95 % 4.17 C
2910 12-01-2019 08:40:00 4.9 C 95 % 4.17 C
2911 12-01-2019 08:45:00 4.9 C 95 % 4.17 C
2912 12-01-2019 08:50:00 4.9 C 95 % 4.17 C
2913 12-01-2019 08:55:00 4.9 C 95 % 4.17 C
2914 12-01-2019 09:00:00 4.9 C 95 % 4.17 C
2915 12-01-2019 09:05:00 4.9 C 95 % 4.17 C
2916 12-01-2019 09:10:00 4.9 C 95 % 4.17 C
2917 12-01-2019 09:15:00 4.9 C 95 % 4.17 C
2918 12-01-2019 09:20:00 4.9 C 95 % 4.17 C
2919 12-01-2019 09:25:00 4.9 C 95 % 4.17 C
2920 12-01-2019 11:50:00 5.9 C 89 % 4.23 C
2921 12-01-2019 11:55:00 5.9 C 89 % 4.23 C
2922 12-01-2019 12:00:00 5.9 C 88 % 4.07 C
2923 12-01-2019 12:05:00 5.9 C 88 % 4.07 C
2924 12-01-2019 12:10:00 5.9 C 88 % 4.07 C
2925 12-01-2019 12:15:00 5.9 C 88 % 4.07 C
Sensor: Nr:Datum:Temp:Feuchte:Taupunkt:
Aussen-T/F 2926 12-01-2019 12:20:00 5.9 C 88 % 4.07 C
2927 12-01-2019 12:25:00 5.8 C 89 % 4.13 C
2928 12-01-2019 12:30:00 5.9 C 89 % 4.23 C
2929 12-01-2019 12:35:00 5.8 C 88 % 3.97 C
2930 12-01-2019 12:40:00 5.9 C 88 % 4.07 C
2931 12-01-2019 12:45:00 5.8 C 88 % 3.97 C
2932 12-01-2019 12:50:00 5.9 C 88 % 4.07 C
2933 12-01-2019 12:55:00 5.9 C 87 % 3.91 C
2934 12-01-2019 13:00:00 5.9 C 87 % 3.91 C
2935 12-01-2019 13:05:00 5.9 C 87 % 3.91 C
2936 12-01-2019 13:10:00 5.9 C 87 % 3.91 C
2937 12-01-2019 13:15:00 5.9 C 87 % 3.91 C
2938 12-01-2019 13:20:00 5.9 C 87 % 3.91 C
2939 12-01-2019 13:25:00 5.9 C 87 % 3.91 C
2940 12-01-2019 13:30:00 5.9 C 88 % 4.07 C
2941 12-01-2019 13:35:00 5.9 C 88 % 4.07 C
2942 12-01-2019 13:40:00 5.9 C 88 % 4.07 C
2943 12-01-2019 13:45:00 5.9 C 88 % 4.07 C
2944 12-01-2019 13:50:00 5.9 C 88 % 4.07 C
2945 12-01-2019 13:55:00 5.9 C 89 % 4.23 C
2946 12-01-2019 14:00:00 5.9 C 89 % 4.23 C
2947 12-01-2019 14:05:00 5.9 C 89 % 4.23 C
2948 12-01-2019 14:10:00 5.9 C 89 % 4.23 C
2949 12-01-2019 14:15:00 5.9 C 88 % 4.07 C
2950 12-01-2019 14:20:00 6 C 88 % 4.17 C
Sensor: Nr:Datum:Temp:Feuchte:Taupunkt:
Aussen-T/F 2951 12-01-2019 14:25:00 6.1 C 88 % 4.27 C
2952 12-01-2019 14:30:00 6.1 C 88 % 4.27 C
2953 12-01-2019 14:35:00 6.1 C 88 % 4.27 C
2954 12-01-2019 14:40:00 6.2 C 88 % 4.36 C
2955 12-01-2019 14:45:00 6.2 C 88 % 4.36 C
2956 12-01-2019 14:50:00 6.2 C 88 % 4.36 C
2957 12-01-2019 14:55:00 6.3 C 89 % 4.62 C
2958 12-01-2019 15:00:00 6.2 C 89 % 4.53 C
2959 12-01-2019 15:05:00 6.2 C 89 % 4.53 C
2960 12-01-2019 15:10:00 6.2 C 89 % 4.53 C
2961 12-01-2019 15:15:00 6.2 C 89 % 4.53 C
2962 12-01-2019 15:20:00 6.2 C 89 % 4.53 C
2963 12-01-2019 15:25:00 6.2 C 90 % 4.69 C
2964 12-01-2019 15:30:00 6.2 C 90 % 4.69 C
2965 12-01-2019 15:35:00 6.2 C 90 % 4.69 C
2966 12-01-2019 15:40:00 6.2 C 90 % 4.69 C
2967 12-01-2019 15:45:00 6.3 C 90 % 4.78 C
2968 12-01-2019 15:50:00 6.2 C 91 % 4.84 C
2969 12-01-2019 15:55:00 6.2 C 91 % 4.84 C
2970 12-01-2019 16:00:00 6.1 C 91 % 4.74 C
2971 12-01-2019 16:05:00 6.1 C 91 % 4.74 C
2972 12-01-2019 16:10:00 6.1 C 91 % 4.74 C
2973 12-01-2019 16:15:00 6.1 C 91 % 4.74 C
2974 12-01-2019 16:20:00 6.1 C 91 % 4.74 C
2975 12-01-2019 16:25:00 6.1 C 91 % 4.74 C
Sensor: Nr:Datum:Temp:Feuchte:Taupunkt:
Aussen-T/F 2976 12-01-2019 16:30:00 6.1 C 91 % 4.74 C
2977 12-01-2019 16:35:00 6.1 C 91 % 4.74 C
2978 12-01-2019 16:40:00 6 C 91 % 4.65 C
2979 12-01-2019 16:45:00 6 C 91 % 4.65 C
2980 12-01-2019 16:50:00 6 C 92 % 4.8 C
2981 12-01-2019 16:55:00 5.9 C 92 % 4.7 C
2982 12-01-2019 17:00:00 5.9 C 92 % 4.7 C
2983 12-01-2019 17:05:00 5.9 C 92 % 4.7 C
2984 12-01-2019 17:10:00 5.9 C 92 % 4.7 C
2985 12-01-2019 17:15:00 5.9 C 92 % 4.7 C
2986 12-01-2019 17:20:00 5.9 C 92 % 4.7 C
2987 12-01-2019 17:25:00 5.9 C 92 % 4.7 C
2988 12-01-2019 17:30:00 5.9 C 92 % 4.7 C
2989 12-01-2019 17:35:00 5.9 C 92 % 4.7 C
2990 12-01-2019 17:40:00 5.9 C 93 % 4.86 C
2991 12-01-2019 17:45:00 5.9 C 93 % 4.86 C
2992 12-01-2019 17:50:00 5.9 C 93 % 4.86 C
2993 12-01-2019 17:55:00 5.8 C 93 % 4.76 C
2994 12-01-2019 18:00:00 5.8 C 93 % 4.76 C
2995 12-01-2019 18:05:00 5.8 C 93 % 4.76 C
2996 12-01-2019 18:10:00 5.8 C 93 % 4.76 C
2997 12-01-2019 18:15:00 5.8 C 93 % 4.76 C
2998 12-01-2019 18:20:00 5.8 C 93 % 4.76 C
2999 12-01-2019 18:25:00 5.8 C 93 % 4.76 C
3000 12-01-2019 18:30:00 5.9 C 93 % 4.86 C
Sensor: Nr:Datum:Temp:Feuchte:Taupunkt:
Aussen-T/F 3001 12-01-2019 18:35:00 5.9 C 93 % 4.86 C
3002 12-01-2019 18:40:00 6 C 93 % 4.96 C
3003 12-01-2019 18:45:00 6 C 93 % 4.96 C
3004 12-01-2019 18:50:00 6 C 93 % 4.96 C
3005 12-01-2019 18:55:00 6 C 94 % 5.11 C
3006 12-01-2019 19:00:00 6 C 94 % 5.11 C
3007 12-01-2019 19:05:00 5.9 C 94 % 5.01 C
3008 12-01-2019 19:10:00 5.9 C 94 % 5.01 C
3009 12-01-2019 19:15:00 5.9 C 94 % 5.01 C
3010 12-01-2019 19:20:00 5.9 C 94 % 5.01 C
3011 12-01-2019 19:25:00 5.9 C 95 % 5.16 C
3012 12-01-2019 19:30:00 5.9 C 95 % 5.16 C
3013 12-01-2019 19:35:00 5.9 C 95 % 5.16 C
3014 12-01-2019 19:40:00 5.9 C 95 % 5.16 C
3015 12-01-2019 19:45:00 5.9 C 95 % 5.16 C
3016 12-01-2019 19:50:00 5.9 C 95 % 5.16 C
3017 12-01-2019 19:55:00 5.9 C 95 % 5.16 C
3018 12-01-2019 20:00:00 5.9 C 95 % 5.16 C
3019 12-01-2019 20:05:00 5.9 C 95 % 5.16 C
3020 12-01-2019 20:10:00 5.9 C 95 % 5.16 C
3021 12-01-2019 20:15:00 5.9 C 95 % 5.16 C
3022 12-01-2019 20:20:00 5.9 C 95 % 5.16 C
3023 12-01-2019 20:25:00 5.9 C 95 % 5.16 C
3024 12-01-2019 20:30:00 5.9 C 96 % 5.31 C
3025 12-01-2019 20:35:00 5.9 C 96 % 5.31 C
Sensor: Nr:Datum:Temp:Feuchte:Taupunkt:
Aussen-T/F 3026 12-01-2019 20:40:00 5.9 C 96 % 5.31 C
3027 12-01-2019 20:45:00 5.9 C 96 % 5.31 C
3028 12-01-2019 20:50:00 5.9 C 96 % 5.31 C
3029 12-01-2019 20:55:00 5.9 C 96 % 5.31 C
3030 12-01-2019 21:00:00 5.9 C 96 % 5.31 C
3031 12-01-2019 21:05:00 5.9 C 96 % 5.31 C
3032 12-01-2019 21:10:00 5.9 C 96 % 5.31 C
3033 12-01-2019 21:15:00 5.9 C 96 % 5.31 C
3034 12-01-2019 21:20:00 5.8 C 96 % 5.21 C
3035 12-01-2019 21:25:00 5.9 C 96 % 5.31 C
3036 12-01-2019 21:30:00 5.9 C 96 % 5.31 C
3037 12-01-2019 21:35:00 5.9 C 96 % 5.31 C
3038 12-01-2019 21:40:00 6 C 96 % 5.41 C
3039 12-01-2019 21:45:00 6 C 96 % 5.41 C
3040 12-01-2019 21:50:00 6.1 C 96 % 5.51 C
3041 12-01-2019 21:55:00 6.1 C 96 % 5.51 C
3042 12-01-2019 22:00:00 6.1 C 96 % 5.51 C
3043 12-01-2019 22:05:00 6.1 C 96 % 5.51 C
3044 12-01-2019 22:10:00 6.2 C 96 % 5.61 C
3045 12-01-2019 22:15:00 6.2 C 96 % 5.61 C
3046 12-01-2019 22:20:00 6.2 C 96 % 5.61 C
3047 12-01-2019 22:25:00 6.2 C 96 % 5.61 C
3048 12-01-2019 22:30:00 6.2 C 96 % 5.61 C
3049 12-01-2019 22:35:00 6.2 C 95 % 5.46 C
3050 12-01-2019 22:40:00 6.2 C 95 % 5.46 C
Sensor: Nr:Datum:Temp:Feuchte:Taupunkt:
Aussen-T/F 3051 12-01-2019 22:45:00 6.2 C 95 % 5.46 C
3052 12-01-2019 22:50:00 6.2 C 95 % 5.46 C
3053 12-01-2019 22:55:00 6.2 C 95 % 5.46 C
3054 12-01-2019 23:00:00 6.2 C 95 % 5.46 C
3055 12-01-2019 23:05:00 6.2 C 95 % 5.46 C
3056 12-01-2019 23:10:00 6.2 C 96 % 5.61 C
3057 12-01-2019 23:15:00 6.2 C 96 % 5.61 C
3058 12-01-2019 23:20:00 6.2 C 96 % 5.61 C
3059 12-01-2019 23:25:00 6.2 C 96 % 5.61 C
3060 12-01-2019 23:30:00 6.2 C 96 % 5.61 C
3061 12-01-2019 23:35:00 6.2 C 96 % 5.61 C
3062 12-01-2019 23:40:00 6.2 C 96 % 5.61 C
3063 12-01-2019 23:45:00 6.2 C 96 % 5.61 C
3064 12-01-2019 23:50:00 6.2 C 96 % 5.61 C
3065 12-01-2019 23:55:00 6.2 C 96 % 5.61 C
3066 13-01-2019 00:00:00 6.2 C 96 % 5.61 C
3067 13-01-2019 00:05:00 6.2 C 96 % 5.61 C
3068 13-01-2019 00:10:00 6.2 C 96 % 5.61 C
3069 13-01-2019 00:15:00 6.2 C 96 % 5.61 C
3070 13-01-2019 00:20:00 6.2 C 96 % 5.61 C
3071 13-01-2019 00:25:00 6.2 C 96 % 5.61 C
3072 13-01-2019 00:30:00 6.2 C 96 % 5.61 C
3073 13-01-2019 00:35:00 6.2 C 96 % 5.61 C
3074 13-01-2019 00:40:00 6.1 C 96 % 5.51 C
3075 13-01-2019 00:45:00 6.1 C 96 % 5.51 C
Sensor: Nr:Datum:Temp:Feuchte:Taupunkt:
Aussen-T/F 3076 13-01-2019 00:50:00 6.1 C 96 % 5.51 C
3077 13-01-2019 00:55:00 6.1 C 96 % 5.51 C
3078 13-01-2019 01:00:00 6.1 C 96 % 5.51 C
3079 13-01-2019 01:05:00 6.1 C 96 % 5.51 C
3080 13-01-2019 01:10:00 6.2 C 96 % 5.61 C
3081 13-01-2019 01:15:00 6.2 C 96 % 5.61 C
3082 13-01-2019 01:20:00 6.2 C 96 % 5.61 C
3083 13-01-2019 01:25:00 6.2 C 96 % 5.61 C
3084 13-01-2019 01:30:00 6.1 C 96 % 5.51 C
3085 13-01-2019 01:35:00 6.1 C 96 % 5.51 C
3086 13-01-2019 01:40:00 6.1 C 96 % 5.51 C
3087 13-01-2019 01:45:00 6.1 C 96 % 5.51 C
3088 13-01-2019 01:50:00 6.1 C 96 % 5.51 C
3089 13-01-2019 01:55:00 6.1 C 96 % 5.51 C
3090 13-01-2019 02:00:00 6.1 C 96 % 5.51 C
3091 13-01-2019 02:05:00 6.1 C 96 % 5.51 C
3092 13-01-2019 02:10:00 6.1 C 96 % 5.51 C
3093 13-01-2019 02:15:00 6.1 C 96 % 5.51 C
3094 13-01-2019 02:20:00 6.1 C 96 % 5.51 C
3095 13-01-2019 02:25:00 6.1 C 96 % 5.51 C
3096 13-01-2019 02:30:00 6.1 C 96 % 5.51 C
3097 13-01-2019 02:35:00 6 C 96 % 5.41 C
3098 13-01-2019 02:40:00 6 C 96 % 5.41 C
3099 13-01-2019 02:45:00 6 C 96 % 5.41 C
3100 13-01-2019 02:50:00 6 C 96 % 5.41 C
Sensor: Nr:Datum:Temp:Feuchte:Taupunkt:
Aussen-T/F 3101 13-01-2019 02:55:00 6 C 96 % 5.41 C
3102 13-01-2019 03:00:00 6 C 96 % 5.41 C
3103 13-01-2019 03:05:00 6 C 96 % 5.41 C
3104 13-01-2019 03:10:00 6 C 96 % 5.41 C
3105 13-01-2019 03:15:00 6 C 96 % 5.41 C
3106 13-01-2019 03:20:00 6 C 96 % 5.41 C
3107 13-01-2019 03:25:00 6 C 96 % 5.41 C
3108 13-01-2019 03:30:00 6.1 C 96 % 5.51 C
3109 13-01-2019 03:35:00 6.1 C 96 % 5.51 C
3110 13-01-2019 03:40:00 6.1 C 96 % 5.51 C
3111 13-01-2019 03:45:00 6.1 C 96 % 5.51 C
3112 13-01-2019 03:50:00 6.2 C 96 % 5.61 C
3113 13-01-2019 03:55:00 6.2 C 96 % 5.61 C
3114 13-01-2019 04:00:00 6.2 C 96 % 5.61 C
3115 13-01-2019 04:05:00 6.2 C 96 % 5.61 C
3116 13-01-2019 04:10:00 6.2 C 96 % 5.61 C
3117 13-01-2019 04:15:00 6.2 C 96 % 5.61 C
3118 13-01-2019 04:20:00 6.2 C 96 % 5.61 C
3119 13-01-2019 04:25:00 6.2 C 96 % 5.61 C
3120 13-01-2019 04:30:00 6.2 C 96 % 5.61 C
3121 13-01-2019 04:35:00 6.2 C 96 % 5.61 C
3122 13-01-2019 04:40:00 6.2 C 96 % 5.61 C
3123 13-01-2019 04:45:00 6.3 C 96 % 5.71 C
3124 13-01-2019 04:50:00 6.3 C 96 % 5.71 C
3125 13-01-2019 04:55:00 6.3 C 96 % 5.71 C
Sensor: Nr:Datum:Temp:Feuchte:Taupunkt:
Aussen-T/F 3126 13-01-2019 05:00:00 6.3 C 96 % 5.71 C
3127 13-01-2019 05:05:00 6.3 C 97 % 5.86 C
3128 13-01-2019 05:10:00 6.3 C 97 % 5.86 C
3129 13-01-2019 05:15:00 6.4 C 97 % 5.96 C
3130 13-01-2019 05:20:00 6.4 C 97 % 5.96 C
3131 13-01-2019 05:25:00 6.4 C 97 % 5.96 C
3132 13-01-2019 05:30:00 6.5 C 96 % 5.91 C
3133 13-01-2019 05:35:00 6.6 C 96 % 6.01 C
3134 13-01-2019 05:40:00 6.6 C 96 % 6.01 C
3135 13-01-2019 05:45:00 6.7 C 97 % 6.26 C
3136 13-01-2019 05:50:00 6.7 C 96 % 6.11 C
3137 13-01-2019 05:55:00 6.7 C 96 % 6.11 C
3138 13-01-2019 06:00:00 6.7 C 96 % 6.11 C
3139 13-01-2019 06:05:00 6.8 C 96 % 6.21 C
3140 13-01-2019 06:10:00 6.8 C 96 % 6.21 C
3141 13-01-2019 06:15:00 6.8 C 96 % 6.21 C
3142 13-01-2019 06:20:00 6.8 C 96 % 6.21 C
3143 13-01-2019 06:25:00 6.8 C 96 % 6.21 C
3144 13-01-2019 06:30:00 6.8 C 96 % 6.21 C
3145 13-01-2019 06:35:00 6.8 C 96 % 6.21 C
3146 13-01-2019 06:40:00 6.8 C 96 % 6.21 C
3147 13-01-2019 06:45:00 6.8 C 96 % 6.21 C
3148 13-01-2019 06:50:00 6.8 C 96 % 6.21 C
3149 13-01-2019 06:55:00 6.9 C 96 % 6.31 C
3150 13-01-2019 07:00:00 6.9 C 96 % 6.31 C
Sensor: Nr:Datum:Temp:Feuchte:Taupunkt:
Aussen-T/F 3151 13-01-2019 07:05:00 6.9 C 95 % 6.16 C
3152 13-01-2019 07:10:00 6.9 C 95 % 6.16 C
3153 13-01-2019 07:15:00 7 C 95 % 6.26 C
3154 13-01-2019 07:20:00 7.1 C 95 % 6.35 C
3155 13-01-2019 07:25:00 7.1 C 95 % 6.35 C
3156 13-01-2019 07:30:00 7.2 C 95 % 6.45 C
3157 13-01-2019 07:35:00 7.2 C 95 % 6.45 C
3158 13-01-2019 07:40:00 7.3 C 95 % 6.55 C
3159 13-01-2019 07:45:00 7.3 C 94 % 6.4 C
3160 13-01-2019 07:50:00 7.4 C 94 % 6.5 C
3161 13-01-2019 07:55:00 7.4 C 94 % 6.5 C
3162 13-01-2019 08:00:00 7.4 C 94 % 6.5 C
3163 13-01-2019 08:05:00 7.4 C 94 % 6.5 C
3164 13-01-2019 08:10:00 7.4 C 94 % 6.5 C
3165 13-01-2019 08:15:00 7.3 C 94 % 6.4 C
3166 13-01-2019 08:20:00 7.3 C 95 % 6.55 C
3167 13-01-2019 08:25:00 7.3 C 95 % 6.55 C
3168 13-01-2019 08:30:00 7.3 C 95 % 6.55 C
3169 13-01-2019 08:35:00 7.3 C 95 % 6.55 C
3170 13-01-2019 08:40:00 7.3 C 95 % 6.55 C
3171 13-01-2019 08:45:00 7.3 C 95 % 6.55 C
3172 13-01-2019 08:50:00 7.3 C 95 % 6.55 C
3173 13-01-2019 08:55:00 7.3 C 95 % 6.55 C
3174 13-01-2019 09:00:00 7.2 C 96 % 6.61 C
3175 13-01-2019 09:05:00 7.3 C 96 % 6.71 C
Sensor: Nr:Datum:Temp:Feuchte:Taupunkt:
Aussen-T/F 3176 13-01-2019 09:10:00 7.3 C 96 % 6.71 C
3177 13-01-2019 09:15:00 7.3 C 96 % 6.71 C
3178 13-01-2019 09:20:00 7.3 C 96 % 6.71 C
3179 13-01-2019 09:25:00 7.4 C 96 % 6.8 C
3180 13-01-2019 09:30:00 7.4 C 96 % 6.8 C
3181 13-01-2019 09:35:00 7.4 C 96 % 6.8 C
3182 13-01-2019 09:40:00 7.4 C 96 % 6.8 C
3183 13-01-2019 09:45:00 7.5 C 96 % 6.9 C
3184 13-01-2019 09:50:00 7.5 C 96 % 6.9 C
3185 13-01-2019 09:55:00 7.6 C 96 % 7 C
3186 13-01-2019 10:00:00 7.6 C 96 % 7 C
3187 13-01-2019 10:05:00 7.6 C 96 % 7 C
3188 13-01-2019 10:10:00 7.6 C 96 % 7 C
3189 13-01-2019 10:15:00 7.6 C 96 % 7 C
3190 13-01-2019 10:20:00 7.6 C 96 % 7 C
3191 13-01-2019 10:25:00 7.6 C 96 % 7 C
3192 13-01-2019 10:30:00 7.7 C 96 % 7.1 C
3193 13-01-2019 10:35:00 7.7 C 96 % 7.1 C
3194 13-01-2019 10:40:00 7.7 C 96 % 7.1 C
3195 13-01-2019 10:45:00 7.8 C 96 % 7.2 C
3196 13-01-2019 10:50:00 7.8 C 96 % 7.2 C
3197 13-01-2019 10:55:00 7.8 C 96 % 7.2 C
3198 13-01-2019 11:00:00 7.9 C 96 % 7.3 C
3199 13-01-2019 11:05:00 7.9 C 96 % 7.3 C
3200 13-01-2019 11:10:00 8 C 96 % 7.4 C
Sensor: Nr:Datum:Temp:Feuchte:Taupunkt:
Aussen-T/F 3201 13-01-2019 11:15:00 8.1 C 96 % 7.5 C
3202 13-01-2019 11:20:00 8.1 C 96 % 7.5 C
3203 13-01-2019 11:25:00 8.1 C 96 % 7.5 C
3204 13-01-2019 11:30:00 8.2 C 96 % 7.6 C
3205 13-01-2019 11:35:00 8.2 C 96 % 7.6 C
3206 13-01-2019 11:40:00 8.2 C 96 % 7.6 C
3207 13-01-2019 11:45:00 8.3 C 96 % 7.7 C
3208 13-01-2019 11:50:00 8.3 C 96 % 7.7 C
3209 13-01-2019 11:55:00 8.3 C 96 % 7.7 C
3210 13-01-2019 12:00:00 8.3 C 96 % 7.7 C
3211 13-01-2019 12:05:00 8.3 C 96 % 7.7 C
3212 13-01-2019 12:10:00 8.3 C 96 % 7.7 C
3213 13-01-2019 12:15:00 8.4 C 96 % 7.8 C
3214 13-01-2019 12:20:00 8.5 C 97 % 8.05 C
3215 13-01-2019 12:25:00 8.6 C 96 % 8 C
3216 13-01-2019 12:30:00 8.6 C 96 % 8 C
3217 13-01-2019 12:35:00 8.7 C 97 % 8.25 C
3218 13-01-2019 12:40:00 8.8 C 97 % 8.35 C
3219 13-01-2019 12:45:00 8.8 C 96 % 8.2 C
3220 13-01-2019 12:50:00 8.9 C 96 % 8.3 C
3221 13-01-2019 12:55:00 8.9 C 96 % 8.3 C
3222 13-01-2019 13:00:00 8.9 C 96 % 8.3 C
3223 13-01-2019 13:05:00 8.9 C 96 % 8.3 C
3224 13-01-2019 13:10:00 8.9 C 96 % 8.3 C
3225 13-01-2019 13:15:00 8.9 C 96 % 8.3 C
Sensor: Nr:Datum:Temp:Feuchte:Taupunkt:
Aussen-T/F 3226 13-01-2019 13:20:00 8.8 C 96 % 8.2 C
3227 13-01-2019 13:25:00 8.8 C 95 % 8.04 C
3228 13-01-2019 13:30:00 8.8 C 96 % 8.2 C
3229 13-01-2019 13:35:00 8.8 C 96 % 8.2 C
3230 13-01-2019 13:40:00 8.8 C 96 % 8.2 C
3231 13-01-2019 13:45:00 8.9 C 96 % 8.3 C
3232 13-01-2019 13:50:00 8.9 C 96 % 8.3 C
3233 13-01-2019 13:55:00 8.9 C 96 % 8.3 C
3234 13-01-2019 14:00:00 8.9 C 96 % 8.3 C
3235 13-01-2019 14:05:00 8.9 C 96 % 8.3 C
3236 13-01-2019 14:10:00 8.9 C 96 % 8.3 C
3237 13-01-2019 14:15:00 8.9 C 96 % 8.3 C
3238 13-01-2019 14:20:00 8.9 C 96 % 8.3 C
3239 13-01-2019 14:25:00 8.9 C 96 % 8.3 C
3240 13-01-2019 14:30:00 8.9 C 96 % 8.3 C
3241 13-01-2019 14:35:00 8.9 C 96 % 8.3 C
3242 13-01-2019 14:40:00 8.9 C 96 % 8.3 C
3243 13-01-2019 14:45:00 8.9 C 96 % 8.3 C
3244 13-01-2019 14:50:00 8.9 C 96 % 8.3 C
3245 13-01-2019 14:55:00 8.8 C 96 % 8.2 C
3246 13-01-2019 15:00:00 8.8 C 96 % 8.2 C
3247 13-01-2019 15:05:00 8.9 C 96 % 8.3 C
3248 13-01-2019 15:10:00 8.8 C 96 % 8.2 C
3249 13-01-2019 15:15:00 8.8 C 96 % 8.2 C
3250 13-01-2019 15:20:00 8.8 C 96 % 8.2 C
Sensor: Nr:Datum:Temp:Feuchte:Taupunkt:
Aussen-T/F 3251 13-01-2019 15:25:00 8.8 C 96 % 8.2 C
3252 13-01-2019 15:30:00 8.8 C 96 % 8.2 C
3253 13-01-2019 15:35:00 8.9 C 96 % 8.3 C
3254 13-01-2019 15:40:00 8.9 C 96 % 8.3 C
3255 13-01-2019 15:45:00 8.9 C 96 % 8.3 C
3256 13-01-2019 15:50:00 8.9 C 96 % 8.3 C
3257 13-01-2019 15:55:00 8.9 C 96 % 8.3 C
3258 13-01-2019 16:00:00 8.9 C 96 % 8.3 C
3259 13-01-2019 16:05:00 8.9 C 96 % 8.3 C
3260 13-01-2019 16:10:00 8.9 C 96 % 8.3 C
3261 13-01-2019 16:15:00 8.9 C 96 % 8.3 C
3262 13-01-2019 16:20:00 8.8 C 96 % 8.2 C
3263 13-01-2019 16:25:00 8.8 C 96 % 8.2 C
3264 13-01-2019 16:30:00 8.9 C 96 % 8.3 C
3265 13-01-2019 16:35:00 8.9 C 96 % 8.3 C
3266 13-01-2019 16:40:00 8.8 C 96 % 8.2 C
3267 13-01-2019 16:45:00 8.8 C 96 % 8.2 C
3268 13-01-2019 16:50:00 8.9 C 96 % 8.3 C
3269 13-01-2019 16:55:00 8.9 C 96 % 8.3 C
3270 13-01-2019 17:00:00 8.9 C 96 % 8.3 C
3271 13-01-2019 17:05:00 8.9 C 96 % 8.3 C
3272 13-01-2019 17:10:00 8.9 C 96 % 8.3 C
3273 13-01-2019 17:15:00 8.9 C 96 % 8.3 C
3274 13-01-2019 17:20:00 8.9 C 96 % 8.3 C
3275 13-01-2019 17:25:00 8.9 C 96 % 8.3 C
Sensor: Nr:Datum:Temp:Feuchte:Taupunkt:
Aussen-T/F 3276 13-01-2019 17:30:00 9 C 95 % 8.24 C
3277 13-01-2019 17:35:00 9.1 C 95 % 8.34 C
3278 13-01-2019 17:40:00 9.1 C 95 % 8.34 C
3279 13-01-2019 17:45:00 9.1 C 95 % 8.34 C
3280 13-01-2019 17:50:00 9.1 C 95 % 8.34 C
3281 13-01-2019 17:55:00 9.1 C 95 % 8.34 C
3282 13-01-2019 18:00:00 9.2 C 95 % 8.44 C
3283 13-01-2019 18:05:00 9.1 C 95 % 8.34 C
3284 13-01-2019 18:10:00 9.2 C 94 % 8.29 C
3285 13-01-2019 18:15:00 9.2 C 94 % 8.29 C
3286 13-01-2019 18:20:00 9.2 C 93 % 8.13 C
3287 13-01-2019 18:25:00 9.3 C 93 % 8.23 C
3288 13-01-2019 18:30:00 9.3 C 93 % 8.23 C
3289 13-01-2019 18:35:00 9.3 C 93 % 8.23 C
3290 13-01-2019 18:40:00 9.3 C 92 % 8.07 C
3291 13-01-2019 18:45:00 9.3 C 92 % 8.07 C
3292 13-01-2019 18:50:00 9.3 C 92 % 8.07 C
3293 13-01-2019 18:55:00 9.4 C 91 % 8.01 C
3294 13-01-2019 19:00:00 9.4 C 91 % 8.01 C
3295 13-01-2019 19:05:00 9.4 C 90 % 7.85 C
3296 13-01-2019 19:10:00 9.4 C 89 % 7.68 C
3297 13-01-2019 19:15:00 9.5 C 88 % 7.61 C
3298 13-01-2019 19:20:00 9.5 C 87 % 7.45 C
3299 13-01-2019 19:25:00 9.6 C 87 % 7.55 C
3300 13-01-2019 19:30:00 9.6 C 86 % 7.38 C
Sensor: Nr:Datum:Temp:Feuchte:Taupunkt:
Aussen-T/F 3301 13-01-2019 19:35:00 9.6 C 86 % 7.38 C
3302 13-01-2019 19:40:00 9.6 C 86 % 7.38 C
3303 13-01-2019 19:45:00 9.6 C 86 % 7.38 C
3304 13-01-2019 19:50:00 9.5 C 86 % 7.28 C
3305 13-01-2019 19:55:00 9.4 C 87 % 7.35 C
3306 13-01-2019 20:00:00 9.3 C 87 % 7.25 C
3307 13-01-2019 20:05:00 9.4 C 86 % 7.18 C
3308 13-01-2019 20:10:00 9.4 C 87 % 7.35 C
3309 13-01-2019 20:15:00 9.4 C 86 % 7.18 C
3310 13-01-2019 20:20:00 9.4 C 86 % 7.18 C
3311 13-01-2019 20:25:00 9.3 C 86 % 7.08 C
3312 13-01-2019 20:30:00 9.2 C 85 % 6.81 C
3313 13-01-2019 20:35:00 9.2 C 85 % 6.81 C
3314 13-01-2019 20:40:00 9.3 C 84 % 6.74 C
3315 13-01-2019 20:45:00 9.3 C 84 % 6.74 C
3316 13-01-2019 20:50:00 9.3 C 84 % 6.74 C
3317 13-01-2019 20:55:00 9.2 C 85 % 6.81 C
3318 13-01-2019 21:00:00 9.1 C 85 % 6.72 C
3319 13-01-2019 21:05:00 9.1 C 85 % 6.72 C
3320 13-01-2019 21:10:00 9.1 C 84 % 6.54 C
3321 13-01-2019 21:15:00 9.1 C 84 % 6.54 C
3322 13-01-2019 21:20:00 9.3 C 84 % 6.74 C
3323 13-01-2019 21:25:00 9.4 C 83 % 6.66 C
3324 13-01-2019 21:30:00 9.4 C 84 % 6.84 C
3325 13-01-2019 21:35:00 9.3 C 85 % 6.91 C
Sensor: Nr:Datum:Temp:Feuchte:Taupunkt:
Aussen-T/F 3326 13-01-2019 21:40:00 9.1 C 84 % 6.54 C
3327 13-01-2019 21:45:00 8.9 C 85 % 6.52 C
3328 13-01-2019 21:50:00 8.6 C 87 % 6.56 C
3329 13-01-2019 21:55:00 8.4 C 88 % 6.53 C
3330 13-01-2019 22:00:00 8.1 C 89 % 6.4 C
3331 13-01-2019 22:05:00 7.8 C 89 % 6.1 C
3332 13-01-2019 22:10:00 7.7 C 89 % 6 C
3333 13-01-2019 22:15:00 7.5 C 90 % 5.97 C
3334 13-01-2019 22:20:00 7.3 C 90 % 5.77 C
3335 13-01-2019 22:25:00 7.2 C 90 % 5.67 C
3336 13-01-2019 22:30:00 7 C 91 % 5.63 C
3337 13-01-2019 22:35:00 6.9 C 91 % 5.54 C
3338 13-01-2019 22:40:00 6.8 C 91 % 5.44 C
3339 13-01-2019 22:45:00 6.7 C 92 % 5.49 C
3340 13-01-2019 22:50:00 6.7 C 92 % 5.49 C
3341 13-01-2019 22:55:00 6.6 C 92 % 5.4 C
3342 13-01-2019 23:00:00 6.6 C 93 % 5.55 C
3343 13-01-2019 23:05:00 6.5 C 93 % 5.45 C
3344 13-01-2019 23:10:00 6.4 C 93 % 5.35 C
3345 13-01-2019 23:15:00 6.4 C 94 % 5.51 C
3346 13-01-2019 23:20:00 6.5 C 94 % 5.61 C
3347 13-01-2019 23:25:00 6.5 C 94 % 5.61 C
3348 13-01-2019 23:30:00 6.6 C 94 % 5.71 C
3349 13-01-2019 23:35:00 6.7 C 94 % 5.8 C
3350 13-01-2019 23:40:00 6.9 C 92 % 5.69 C
Sensor: Nr:Datum:Temp:Feuchte:Taupunkt:
Aussen-T/F 3351 13-01-2019 23:45:00 7.1 C 91 % 5.73 C
3352 13-01-2019 23:50:00 7.1 C 90 % 5.57 C
3353 13-01-2019 23:55:00 7.2 C 90 % 5.67 C
3354 14-01-2019 00:00:00 7.2 C 89 % 5.51 C
3355 14-01-2019 00:05:00 7.3 C 88 % 5.45 C
3356 14-01-2019 00:10:00 7.3 C 88 % 5.45 C
3357 14-01-2019 00:15:00 7.3 C 88 % 5.45 C
3358 14-01-2019 00:20:00 7.3 C 88 % 5.45 C
3359 14-01-2019 00:25:00 7.3 C 88 % 5.45 C
3360 14-01-2019 00:30:00 7.3 C 88 % 5.45 C
3361 14-01-2019 00:35:00 7.3 C 88 % 5.45 C
3362 14-01-2019 00:40:00 7.4 C 88 % 5.55 C
3363 14-01-2019 00:45:00 7.4 C 88 % 5.55 C
3364 14-01-2019 00:50:00 7.4 C 86 % 5.22 C
3365 14-01-2019 00:55:00 7.4 C 86 % 5.22 C
3366 14-01-2019 01:00:00 7.3 C 86 % 5.12 C
3367 14-01-2019 01:05:00 7.1 C 87 % 5.09 C
3368 14-01-2019 01:10:00 7 C 87 % 4.99 C
3369 14-01-2019 01:15:00 6.9 C 88 % 5.05 C
3370 14-01-2019 01:20:00 6.8 C 89 % 5.12 C
3371 14-01-2019 01:25:00 6.8 C 89 % 5.12 C
3372 14-01-2019 01:30:00 6.9 C 89 % 5.22 C
3373 14-01-2019 01:35:00 7.1 C 88 % 5.25 C
3374 14-01-2019 01:40:00 7.2 C 88 % 5.35 C
3375 14-01-2019 01:45:00 7.2 C 87 % 5.19 C
Sensor: Nr:Datum:Temp:Feuchte:Taupunkt:
Aussen-T/F 3376 14-01-2019 01:50:00 7.2 C 87 % 5.19 C
3377 14-01-2019 01:55:00 7.3 C 86 % 5.12 C
3378 14-01-2019 02:00:00 7.3 C 86 % 5.12 C
3379 14-01-2019 02:05:00 7.4 C 86 % 5.22 C
3380 14-01-2019 02:10:00 7.3 C 86 % 5.12 C
3381 14-01-2019 02:15:00 7.3 C 85 % 4.95 C
3382 14-01-2019 02:20:00 7.4 C 85 % 5.05 C
3383 14-01-2019 02:25:00 7.4 C 84 % 4.88 C
3384 14-01-2019 02:30:00 7.4 C 83 % 4.71 C
3385 14-01-2019 02:35:00 7.4 C 83 % 4.71 C
3386 14-01-2019 02:40:00 7.5 C 83 % 4.81 C
3387 14-01-2019 02:45:00 7.6 C 83 % 4.9 C
3388 14-01-2019 02:50:00 7.5 C 83 % 4.81 C
3389 14-01-2019 02:55:00 7.6 C 82 % 4.73 C
3390 14-01-2019 03:00:00 7.6 C 81 % 4.55 C
3391 14-01-2019 03:05:00 7.7 C 81 % 4.65 C
3392 14-01-2019 03:10:00 7.6 C 82 % 4.73 C
3393 14-01-2019 03:15:00 7.3 C 83 % 4.61 C
3394 14-01-2019 03:20:00 6.6 C 86 % 4.43 C
3395 14-01-2019 03:25:00 6.3 C 87 % 4.3 C
3396 14-01-2019 03:30:00 6.1 C 89 % 4.43 C
3397 14-01-2019 03:35:00 6 C 89 % 4.33 C
3398 14-01-2019 03:40:00 6 C 91 % 4.65 C
3399 14-01-2019 03:45:00 5.9 C 91 % 4.55 C
3400 14-01-2019 03:50:00 6 C 91 % 4.65 C
Sensor: Nr:Datum:Temp:Feuchte:Taupunkt:
Aussen-T/F 3401 14-01-2019 03:55:00 6 C 91 % 4.65 C
3402 14-01-2019 04:00:00 6.1 C 91 % 4.74 C
3403 14-01-2019 04:05:00 6.3 C 90 % 4.78 C
3404 14-01-2019 04:10:00 6.4 C 89 % 4.72 C
3405 14-01-2019 04:15:00 6.6 C 89 % 4.92 C
3406 14-01-2019 04:20:00 6.7 C 87 % 4.69 C
3407 14-01-2019 04:25:00 6.8 C 86 % 4.63 C
3408 14-01-2019 04:30:00 7 C 85 % 4.66 C
3409 14-01-2019 04:35:00 7.1 C 85 % 4.75 C
3410 14-01-2019 04:40:00 6.9 C 85 % 4.56 C
3411 14-01-2019 04:45:00 6.9 C 85 % 4.56 C
3412 14-01-2019 04:50:00 6.9 C 85 % 4.56 C
3413 14-01-2019 04:55:00 6.9 C 85 % 4.56 C
3414 14-01-2019 05:00:00 7 C 85 % 4.66 C
3415 14-01-2019 05:05:00 7 C 85 % 4.66 C
3416 14-01-2019 05:10:00 7 C 85 % 4.66 C
3417 14-01-2019 05:15:00 7 C 85 % 4.66 C
3418 14-01-2019 05:20:00 7.1 C 85 % 4.75 C
3419 14-01-2019 05:25:00 7.1 C 85 % 4.75 C
3420 14-01-2019 05:30:00 7.2 C 85 % 4.85 C
3421 14-01-2019 05:35:00 7.2 C 85 % 4.85 C
3422 14-01-2019 05:40:00 7.2 C 85 % 4.85 C
3423 14-01-2019 05:45:00 7.2 C 86 % 5.02 C
3424 14-01-2019 05:50:00 7.1 C 86 % 4.92 C
3425 14-01-2019 05:55:00 7.1 C 86 % 4.92 C
Sensor: Nr:Datum:Temp:Feuchte:Taupunkt:
Aussen-T/F 3426 14-01-2019 06:00:00 7.1 C 86 % 4.92 C
3427 14-01-2019 06:05:00 7.1 C 87 % 5.09 C
3428 14-01-2019 06:10:00 6.9 C 88 % 5.05 C
3429 14-01-2019 06:15:00 6.8 C 88 % 4.96 C
3430 14-01-2019 06:20:00 6.7 C 88 % 4.86 C
3431 14-01-2019 06:25:00 6.7 C 87 % 4.69 C
3432 14-01-2019 06:30:00 6.7 C 87 % 4.69 C
3433 14-01-2019 06:35:00 6.6 C 87 % 4.6 C
3434 14-01-2019 06:40:00 6.6 C 87 % 4.6 C
3435 14-01-2019 06:45:00 6.5 C 87 % 4.5 C
3436 14-01-2019 06:50:00 6.5 C 87 % 4.5 C
3437 14-01-2019 06:55:00 6.5 C 87 % 4.5 C
3438 14-01-2019 07:00:00 6.5 C 88 % 4.66 C
3439 14-01-2019 07:05:00 6.5 C 87 % 4.5 C
3440 14-01-2019 07:10:00 6.5 C 87 % 4.5 C
3441 14-01-2019 07:15:00 6.6 C 87 % 4.6 C
3442 14-01-2019 07:20:00 6.5 C 87 % 4.5 C
3443 14-01-2019 07:25:00 6.4 C 88 % 4.56 C
3444 14-01-2019 07:30:00 6.3 C 88 % 4.46 C
3445 14-01-2019 07:35:00 6.2 C 89 % 4.53 C
3446 14-01-2019 07:40:00 6.2 C 90 % 4.69 C
3447 14-01-2019 07:45:00 6.1 C 90 % 4.59 C
3448 14-01-2019 07:50:00 6.1 C 90 % 4.59 C
3449 14-01-2019 07:55:00 6.1 C 91 % 4.74 C
3450 14-01-2019 08:00:00 6.1 C 91 % 4.74 C
Sensor: Nr:Datum:Temp:Feuchte:Taupunkt:
Aussen-T/F 3451 14-01-2019 08:05:00 6.1 C 90 % 4.59 C
3452 14-01-2019 08:10:00 6.1 C 90 % 4.59 C
3453 14-01-2019 08:15:00 6.2 C 90 % 4.69 C
3454 14-01-2019 08:20:00 6.2 C 90 % 4.69 C
3455 14-01-2019 08:25:00 6.3 C 89 % 4.62 C
3456 14-01-2019 08:30:00 6.3 C 89 % 4.62 C
3457 14-01-2019 08:35:00 6.3 C 89 % 4.62 C
3458 14-01-2019 08:40:00 6.3 C 89 % 4.62 C
3459 14-01-2019 08:45:00 6.3 C 89 % 4.62 C
3460 14-01-2019 08:50:00 6.3 C 89 % 4.62 C
3461 14-01-2019 08:55:00 6.3 C 89 % 4.62 C
3462 14-01-2019 09:00:00 6.3 C 90 % 4.78 C
3463 14-01-2019 09:05:00 6.3 C 90 % 4.78 C
3464 14-01-2019 09:10:00 6.3 C 90 % 4.78 C
3465 14-01-2019 09:15:00 6.3 C 90 % 4.78 C
3466 14-01-2019 09:20:00 6.3 C 89 % 4.62 C
3467 14-01-2019 09:25:00 6.4 C 89 % 4.72 C
3468 14-01-2019 09:30:00 6.4 C 89 % 4.72 C
3469 14-01-2019 09:35:00 6.4 C 88 % 4.56 C
3470 14-01-2019 09:40:00 6.5 C 88 % 4.66 C
3471 14-01-2019 09:45:00 6.6 C 88 % 4.76 C
3472 14-01-2019 09:50:00 6.6 C 88 % 4.76 C
3473 14-01-2019 09:55:00 6.7 C 88 % 4.86 C
3474 14-01-2019 10:00:00 6.6 C 88 % 4.76 C
3475 14-01-2019 10:05:00 6.6 C 88 % 4.76 C
Sensor: Nr:Datum:Temp:Feuchte:Taupunkt:
Aussen-T/F 3476 14-01-2019 10:10:00 6.6 C 89 % 4.92 C
3477 14-01-2019 10:15:00 6.6 C 89 % 4.92 C
3478 14-01-2019 10:20:00 6.6 C 88 % 4.76 C
3479 14-01-2019 10:25:00 6.6 C 88 % 4.76 C
3480 14-01-2019 10:30:00 6.5 C 89 % 4.82 C
3481 14-01-2019 10:35:00 6.4 C 89 % 4.72 C
3482 14-01-2019 10:40:00 6.3 C 90 % 4.78 C
3483 14-01-2019 10:45:00 6.2 C 90 % 4.69 C
3484 14-01-2019 10:50:00 6.2 C 91 % 4.84 C
3485 14-01-2019 10:55:00 5.6 C 89 % 3.93 C
3486 14-01-2019 11:00:00 5.1 C 90 % 3.6 C
3487 14-01-2019 11:05:00 4.8 C 91 % 3.46 C
3488 14-01-2019 11:10:00 4.6 C 92 % 3.42 C
3489 14-01-2019 11:15:00 4.4 C 92 % 3.22 C
3490 14-01-2019 11:20:00 4.4 C 93 % 3.37 C
3491 14-01-2019 11:25:00 4.3 C 93 % 3.27 C
3492 14-01-2019 11:30:00 4.3 C 93 % 3.27 C
3493 14-01-2019 11:35:00 4.2 C 92 % 3.02 C
3494 14-01-2019 11:40:00 4.2 C 92 % 3.02 C
3495 14-01-2019 11:45:00 4.2 C 92 % 3.02 C
3496 14-01-2019 11:50:00 4.2 C 92 % 3.02 C
3497 14-01-2019 11:55:00 4.2 C 92 % 3.02 C
3498 14-01-2019 12:00:00 4.2 C 92 % 3.02 C
3499 14-01-2019 12:05:00 4.3 C 93 % 3.27 C
3500 14-01-2019 12:10:00 4.5 C 93 % 3.47 C
Sensor: Nr:Datum:Temp:Feuchte:Taupunkt:
Aussen-T/F 3501 14-01-2019 12:15:00 4.6 C 93 % 3.57 C
3502 14-01-2019 12:20:00 4.6 C 92 % 3.42 C
3503 14-01-2019 12:25:00 4.7 C 92 % 3.51 C
3504 14-01-2019 12:30:00 4.7 C 92 % 3.51 C
3505 14-01-2019 12:35:00 4.8 C 92 % 3.61 C
3506 14-01-2019 12:40:00 4.9 C 92 % 3.71 C
3507 14-01-2019 12:45:00 5 C 91 % 3.66 C
3508 14-01-2019 12:50:00 5.1 C 91 % 3.76 C
3509 14-01-2019 12:55:00 5.1 C 91 % 3.76 C
3510 14-01-2019 13:00:00 5.2 C 90 % 3.7 C
3511 14-01-2019 13:05:00 5.2 C 90 % 3.7 C
3512 14-01-2019 13:10:00 5.2 C 90 % 3.7 C
3513 14-01-2019 13:15:00 5.3 C 90 % 3.8 C
3514 14-01-2019 13:20:00 5.3 C 89 % 3.64 C
3515 14-01-2019 13:25:00 5.3 C 89 % 3.64 C
3516 14-01-2019 13:30:00 5.3 C 89 % 3.64 C
3517 14-01-2019 13:35:00 5.4 C 89 % 3.74 C
3518 14-01-2019 13:40:00 5.4 C 89 % 3.74 C
3519 14-01-2019 13:45:00 5.6 C 89 % 3.93 C
3520 14-01-2019 13:50:00 5.6 C 88 % 3.77 C
3521 14-01-2019 13:55:00 5.6 C 88 % 3.77 C
3522 14-01-2019 14:00:00 5.3 C 87 % 3.32 C
3523 14-01-2019 14:05:00 4.9 C 87 % 2.92 C
3524 14-01-2019 14:10:00 4.6 C 88 % 2.79 C
3525 14-01-2019 14:15:00 4.5 C 88 % 2.69 C
Sensor: Nr:Datum:Temp:Feuchte:Taupunkt:
Aussen-T/F 3526 14-01-2019 14:20:00 4.4 C 89 % 2.75 C
3527 14-01-2019 14:25:00 4.4 C 88 % 2.59 C
3528 14-01-2019 14:30:00 4.3 C 88 % 2.49 C
3529 14-01-2019 14:35:00 4.1 C 89 % 2.45 C
3530 14-01-2019 14:40:00 4 C 89 % 2.36 C
3531 14-01-2019 14:45:00 3.9 C 90 % 2.41 C
3532 14-01-2019 14:50:00 3.8 C 90 % 2.31 C
3533 14-01-2019 14:55:00 3.8 C 90 % 2.31 C
3534 14-01-2019 15:00:00 3.7 C 91 % 2.37 C
3535 14-01-2019 15:05:00 3.8 C 91 % 2.47 C
3536 14-01-2019 15:10:00 3.8 C 91 % 2.47 C
3537 14-01-2019 15:15:00 3.9 C 90 % 2.41 C
3538 14-01-2019 15:20:00 4 C 90 % 2.51 C
3539 14-01-2019 15:25:00 3.9 C 90 % 2.41 C
3540 14-01-2019 15:30:00 4 C 90 % 2.51 C
3541 14-01-2019 15:35:00 4.1 C 90 % 2.61 C
3542 14-01-2019 15:40:00 4.2 C 91 % 2.87 C
3543 14-01-2019 15:45:00 4.3 C 90 % 2.81 C
3544 14-01-2019 15:50:00 4.4 C 90 % 2.91 C
3545 14-01-2019 15:55:00 4.5 C 90 % 3.01 C
3546 14-01-2019 16:00:00 4.6 C 90 % 3.1 C
3547 14-01-2019 16:05:00 4.6 C 90 % 3.1 C
3548 14-01-2019 16:10:00 4.4 C 89 % 2.75 C
3549 14-01-2019 16:15:00 4.1 C 89 % 2.45 C
3550 14-01-2019 16:20:00 3.8 C 90 % 2.31 C
Sensor: Nr:Datum:Temp:Feuchte:Taupunkt:
Aussen-T/F 3551 14-01-2019 16:25:00 3.7 C 91 % 2.37 C
3552 14-01-2019 16:30:00 3.6 C 91 % 2.27 C
3553 14-01-2019 16:35:00 3.4 C 91 % 2.07 C
3554 14-01-2019 16:40:00 3.3 C 91 % 1.98 C
3555 14-01-2019 16:45:00 3.3 C 91 % 1.98 C
3556 14-01-2019 16:50:00 3.2 C 91 % 1.88 C
3557 14-01-2019 16:55:00 3.2 C 91 % 1.88 C
3558 14-01-2019 17:00:00 3.1 C 91 % 1.78 C
3559 14-01-2019 17:05:00 2.9 C 91 % 1.58 C
3560 14-01-2019 17:10:00 2.7 C 91 % 1.38 C
3561 14-01-2019 17:15:00 2.7 C 92 % 1.53 C
3562 14-01-2019 17:20:00 2.7 C 92 % 1.53 C
3563 14-01-2019 17:25:00 2.7 C 92 % 1.53 C
3564 14-01-2019 17:30:00 2.7 C 93 % 1.68 C
3565 14-01-2019 17:35:00 2.7 C 93 % 1.68 C
3566 14-01-2019 17:40:00 2.7 C 93 % 1.68 C
3567 14-01-2019 17:45:00 2.6 C 93 % 1.59 C
3568 14-01-2019 17:50:00 2.6 C 93 % 1.59 C
3569 14-01-2019 17:55:00 2.6 C 93 % 1.59 C
3570 14-01-2019 18:00:00 2.6 C 93 % 1.59 C
3571 14-01-2019 18:05:00 2.6 C 93 % 1.59 C
3572 14-01-2019 18:10:00 2.6 C 93 % 1.59 C
3573 14-01-2019 18:15:00 2.6 C 94 % 1.73 C
3574 14-01-2019 18:20:00 2.6 C 93 % 1.59 C
3575 14-01-2019 18:25:00 2.6 C 93 % 1.59 C
Sensor: Nr:Datum:Temp:Feuchte:Taupunkt:
Aussen-T/F 3576 14-01-2019 18:30:00 2.5 C 93 % 1.49 C
3577 14-01-2019 18:35:00 2.7 C 94 % 1.83 C
3578 14-01-2019 18:40:00 2.9 C 94 % 2.03 C
3579 14-01-2019 18:45:00 3.1 C 94 % 2.23 C
3580 14-01-2019 18:50:00 3.2 C 93 % 2.18 C
3581 14-01-2019 18:55:00 3.1 C 93 % 2.08 C
3582 14-01-2019 19:00:00 3.1 C 93 % 2.08 C
3583 14-01-2019 19:05:00 3.1 C 93 % 2.08 C
3584 14-01-2019 19:10:00 3 C 93 % 1.98 C
3585 14-01-2019 19:15:00 2.9 C 93 % 1.88 C
3586 14-01-2019 19:20:00 2.9 C 93 % 1.88 C
3587 14-01-2019 19:25:00 2.8 C 92 % 1.63 C
3588 14-01-2019 19:30:00 2.7 C 93 % 1.68 C
3589 14-01-2019 19:35:00 2.6 C 93 % 1.59 C
3590 14-01-2019 19:40:00 2.6 C 93 % 1.59 C
3591 14-01-2019 19:45:00 2.5 C 93 % 1.49 C
3592 14-01-2019 19:50:00 2.4 C 93 % 1.39 C
3593 14-01-2019 19:55:00 2.3 C 93 % 1.29 C
3594 14-01-2019 20:00:00 2.4 C 94 % 1.54 C
3595 14-01-2019 20:05:00 2.4 C 94 % 1.54 C
3596 14-01-2019 20:10:00 2.4 C 94 % 1.54 C
3597 14-01-2019 20:15:00 2.4 C 94 % 1.54 C
3598 14-01-2019 20:20:00 2.4 C 94 % 1.54 C
3599 14-01-2019 20:25:00 2.3 C 94 % 1.44 C
3600 14-01-2019 20:30:00 2.3 C 94 % 1.44 C
Sensor: Nr:Datum:Temp:Feuchte:Taupunkt:
Aussen-T/F 3601 14-01-2019 20:35:00 2.4 C 94 % 1.54 C
3602 14-01-2019 20:40:00 2.4 C 94 % 1.54 C
3603 14-01-2019 20:45:00 2.4 C 94 % 1.54 C
3604 14-01-2019 20:50:00 2.4 C 94 % 1.54 C
3605 14-01-2019 20:55:00 2.5 C 94 % 1.63 C
3606 14-01-2019 21:00:00 2.6 C 94 % 1.73 C
3607 14-01-2019 21:05:00 2.7 C 94 % 1.83 C
3608 14-01-2019 21:10:00 2.7 C 94 % 1.83 C
3609 14-01-2019 21:15:00 2.8 C 94 % 1.93 C
3610 14-01-2019 21:20:00 2.9 C 94 % 2.03 C
3611 14-01-2019 21:25:00 3 C 94 % 2.13 C
3612 14-01-2019 21:30:00 3 C 93 % 1.98 C
3613 14-01-2019 21:35:00 3.1 C 93 % 2.08 C
3614 14-01-2019 21:40:00 3.2 C 92 % 2.03 C
3615 14-01-2019 21:45:00 3.3 C 92 % 2.13 C
3616 14-01-2019 21:50:00 3.4 C 91 % 2.07 C
3617 14-01-2019 21:55:00 3.5 C 91 % 2.17 C
3618 14-01-2019 22:00:00 3.6 C 90 % 2.12 C
3619 14-01-2019 22:05:00 3.6 C 90 % 2.12 C
3620 14-01-2019 22:10:00 3.5 C 90 % 2.02 C
3621 14-01-2019 22:15:00 3.6 C 90 % 2.12 C
3622 14-01-2019 22:20:00 3.6 C 90 % 2.12 C
3623 14-01-2019 22:25:00 3.6 C 90 % 2.12 C
3624 14-01-2019 22:30:00 3.6 C 90 % 2.12 C
3625 14-01-2019 22:35:00 3.6 C 90 % 2.12 C
Sensor: Nr:Datum:Temp:Feuchte:Taupunkt:
Aussen-T/F 3626 14-01-2019 22:40:00 3.6 C 90 % 2.12 C
3627 14-01-2019 22:45:00 3.6 C 90 % 2.12 C
3628 14-01-2019 22:50:00 3.6 C 90 % 2.12 C
3629 14-01-2019 22:55:00 3.6 C 89 % 1.96 C
3630 14-01-2019 23:00:00 3.6 C 89 % 1.96 C
3631 14-01-2019 23:05:00 3.6 C 89 % 1.96 C
3632 14-01-2019 23:10:00 3.7 C 89 % 2.06 C
3633 14-01-2019 23:15:00 3.7 C 90 % 2.22 C
3634 14-01-2019 23:20:00 3.6 C 90 % 2.12 C
3635 14-01-2019 23:25:00 3.6 C 90 % 2.12 C
3636 14-01-2019 23:30:00 3.5 C 90 % 2.02 C
3637 14-01-2019 23:35:00 3.4 C 91 % 2.07 C
3638 14-01-2019 23:40:00 3.4 C 91 % 2.07 C
3639 14-01-2019 23:45:00 3.3 C 91 % 1.98 C
3640 14-01-2019 23:50:00 3.3 C 91 % 1.98 C
3641 14-01-2019 23:55:00 3.3 C 91 % 1.98 C
3642 15-01-2019 00:00:00 3.3 C 91 % 1.98 C
3643 15-01-2019 00:05:00 3.3 C 91 % 1.98 C
3644 15-01-2019 00:10:00 3.3 C 91 % 1.98 C
3645 15-01-2019 00:15:00 3.3 C 91 % 1.98 C
3646 15-01-2019 00:20:00 3.3 C 91 % 1.98 C
3647 15-01-2019 00:25:00 3.3 C 91 % 1.98 C
3648 15-01-2019 00:30:00 3.3 C 91 % 1.98 C
3649 15-01-2019 00:35:00 3.3 C 91 % 1.98 C
3650 15-01-2019 00:40:00 3.3 C 91 % 1.98 C
Sensor: Nr:Datum:Temp:Feuchte:Taupunkt:
Aussen-T/F 3651 15-01-2019 00:45:00 3.3 C 91 % 1.98 C
3652 15-01-2019 00:50:00 3.3 C 91 % 1.98 C
3653 15-01-2019 00:55:00 3.3 C 91 % 1.98 C
3654 15-01-2019 01:00:00 3.2 C 91 % 1.88 C
3655 15-01-2019 01:05:00 3.2 C 91 % 1.88 C
3656 15-01-2019 01:10:00 3.2 C 91 % 1.88 C
3657 15-01-2019 01:15:00 3.3 C 90 % 1.82 C
3658 15-01-2019 01:20:00 3.3 C 90 % 1.82 C
3659 15-01-2019 01:25:00 3.3 C 90 % 1.82 C
3660 15-01-2019 01:30:00 3.3 C 90 % 1.82 C
3661 15-01-2019 01:35:00 3.3 C 90 % 1.82 C
3662 15-01-2019 01:40:00 3.3 C 90 % 1.82 C
3663 15-01-2019 01:45:00 3.2 C 90 % 1.72 C
3664 15-01-2019 01:50:00 3.2 C 90 % 1.72 C
3665 15-01-2019 01:55:00 3.2 C 90 % 1.72 C
3666 15-01-2019 02:00:00 3.1 C 90 % 1.62 C
3667 15-01-2019 02:05:00 3.1 C 90 % 1.62 C
3668 15-01-2019 02:10:00 3.1 C 90 % 1.62 C
3669 15-01-2019 02:15:00 3.1 C 90 % 1.62 C
3670 15-01-2019 02:20:00 3 C 90 % 1.52 C
3671 15-01-2019 02:25:00 2.9 C 90 % 1.43 C
3672 15-01-2019 02:30:00 2.8 C 90 % 1.33 C
3673 15-01-2019 02:35:00 2.8 C 90 % 1.33 C
3674 15-01-2019 02:40:00 2.8 C 91 % 1.48 C
3675 15-01-2019 02:45:00 2.8 C 91 % 1.48 C
Sensor: Nr:Datum:Temp:Feuchte:Taupunkt:
Aussen-T/F 3676 15-01-2019 02:50:00 2.9 C 91 % 1.58 C
3677 15-01-2019 02:55:00 2.9 C 91 % 1.58 C
3678 15-01-2019 03:00:00 2.9 C 91 % 1.58 C
3679 15-01-2019 03:05:00 2.9 C 91 % 1.58 C
3680 15-01-2019 03:10:00 2.9 C 91 % 1.58 C
3681 15-01-2019 03:15:00 2.9 C 91 % 1.58 C
3682 15-01-2019 03:20:00 2.9 C 91 % 1.58 C
3683 15-01-2019 03:25:00 3 C 91 % 1.68 C
3684 15-01-2019 03:30:00 2.9 C 91 % 1.58 C
3685 15-01-2019 03:35:00 3 C 91 % 1.68 C
3686 15-01-2019 03:40:00 3 C 91 % 1.68 C
3687 15-01-2019 03:45:00 3 C 91 % 1.68 C
3688 15-01-2019 03:50:00 3 C 91 % 1.68 C
3689 15-01-2019 03:55:00 3 C 91 % 1.68 C
3690 15-01-2019 04:00:00 2.9 C 91 % 1.58 C
3691 15-01-2019 04:05:00 2.9 C 91 % 1.58 C
3692 15-01-2019 04:10:00 2.7 C 91 % 1.38 C
3693 15-01-2019 04:15:00 2.6 C 91 % 1.28 C
3694 15-01-2019 04:20:00 2.5 C 91 % 1.18 C
3695 15-01-2019 04:25:00 2.4 C 92 % 1.24 C
3696 15-01-2019 04:30:00 2.4 C 92 % 1.24 C
3697 15-01-2019 04:35:00 2.5 C 92 % 1.34 C
3698 15-01-2019 04:40:00 2.6 C 93 % 1.59 C
3699 15-01-2019 04:45:00 2.6 C 93 % 1.59 C
3700 15-01-2019 04:50:00 2.7 C 93 % 1.68 C
Sensor: Nr:Datum:Temp:Feuchte:Taupunkt:
Aussen-T/F 3701 15-01-2019 04:55:00 2.7 C 93 % 1.68 C
3702 15-01-2019 05:00:00 2.7 C 93 % 1.68 C
3703 15-01-2019 05:05:00 2.8 C 93 % 1.78 C
3704 15-01-2019 05:10:00 2.8 C 92 % 1.63 C
3705 15-01-2019 05:15:00 2.8 C 92 % 1.63 C
3706 15-01-2019 05:20:00 2.8 C 92 % 1.63 C
3707 15-01-2019 05:25:00 2.8 C 92 % 1.63 C
3708 15-01-2019 05:30:00 2.8 C 92 % 1.63 C
3709 15-01-2019 05:35:00 2.8 C 92 % 1.63 C
3710 15-01-2019 05:40:00 2.8 C 93 % 1.78 C
3711 15-01-2019 05:45:00 2.9 C 93 % 1.88 C
3712 15-01-2019 05:50:00 2.9 C 93 % 1.88 C
3713 15-01-2019 05:55:00 3 C 92 % 1.83 C
3714 15-01-2019 06:00:00 3 C 92 % 1.83 C
3715 15-01-2019 06:05:00 3 C 92 % 1.83 C
3716 15-01-2019 06:10:00 2.9 C 92 % 1.73 C
3717 15-01-2019 06:15:00 2.9 C 92 % 1.73 C
3718 15-01-2019 06:20:00 2.8 C 92 % 1.63 C
3719 15-01-2019 06:25:00 2.8 C 92 % 1.63 C
3720 15-01-2019 06:30:00 2.8 C 92 % 1.63 C
3721 15-01-2019 06:35:00 2.8 C 93 % 1.78 C
3722 15-01-2019 06:40:00 2.7 C 93 % 1.68 C
3723 15-01-2019 06:45:00 2.7 C 93 % 1.68 C
3724 15-01-2019 06:50:00 2.7 C 93 % 1.68 C
3725 15-01-2019 06:55:00 2.7 C 93 % 1.68 C
Sensor: Nr:Datum:Temp:Feuchte:Taupunkt:
Aussen-T/F 3726 15-01-2019 07:00:00 2.8 C 93 % 1.78 C
3727 15-01-2019 07:05:00 2.8 C 93 % 1.78 C
3728 15-01-2019 07:10:00 2.8 C 93 % 1.78 C
3729 15-01-2019 07:15:00 2.8 C 93 % 1.78 C
3730 15-01-2019 07:20:00 2.8 C 93 % 1.78 C
3731 15-01-2019 07:25:00 2.8 C 93 % 1.78 C
3732 15-01-2019 07:30:00 2.8 C 93 % 1.78 C
3733 15-01-2019 07:35:00 2.8 C 93 % 1.78 C
3734 15-01-2019 07:40:00 2.9 C 93 % 1.88 C
3735 15-01-2019 07:45:00 3.1 C 93 % 2.08 C
3736 15-01-2019 07:50:00 3.1 C 93 % 2.08 C
3737 15-01-2019 07:55:00 3.2 C 93 % 2.18 C
3738 15-01-2019 08:00:00 3.3 C 93 % 2.28 C
3739 15-01-2019 08:05:00 3.3 C 92 % 2.13 C
3740 15-01-2019 08:10:00 3.3 C 92 % 2.13 C
3741 15-01-2019 08:15:00 3.3 C 92 % 2.13 C
3742 15-01-2019 08:20:00 3.4 C 92 % 2.23 C
3743 15-01-2019 08:25:00 3.4 C 92 % 2.23 C
3744 15-01-2019 08:30:00 3.6 C 91 % 2.27 C
3745 15-01-2019 08:35:00 3.6 C 91 % 2.27 C
3746 15-01-2019 08:40:00 3.6 C 91 % 2.27 C
3747 15-01-2019 08:45:00 3.7 C 91 % 2.37 C
3748 15-01-2019 08:50:00 3.7 C 91 % 2.37 C
3749 15-01-2019 08:55:00 3.7 C 91 % 2.37 C
3750 15-01-2019 09:00:00 3.8 C 91 % 2.47 C
Sensor: Nr:Datum:Temp:Feuchte:Taupunkt:
Aussen-T/F 3751 15-01-2019 09:05:00 3.8 C 91 % 2.47 C
3752 15-01-2019 09:10:00 3.8 C 91 % 2.47 C
3753 15-01-2019 09:15:00 3.8 C 91 % 2.47 C
3754 15-01-2019 09:20:00 3.9 C 91 % 2.57 C
3755 15-01-2019 09:25:00 3.9 C 91 % 2.57 C
3756 15-01-2019 09:30:00 4 C 91 % 2.67 C
3757 15-01-2019 09:35:00 4.1 C 91 % 2.77 C
3758 15-01-2019 09:40:00 4.1 C 91 % 2.77 C
3759 15-01-2019 09:45:00 4.1 C 91 % 2.77 C
3760 15-01-2019 09:50:00 4.2 C 91 % 2.87 C
3761 15-01-2019 09:55:00 4.3 C 91 % 2.96 C
3762 15-01-2019 10:00:00 4.3 C 90 % 2.81 C
3763 15-01-2019 10:05:00 4.4 C 90 % 2.91 C
3764 15-01-2019 10:10:00 4.5 C 90 % 3.01 C
3765 15-01-2019 10:15:00 4.6 C 90 % 3.1 C
3766 15-01-2019 10:20:00 4.7 C 90 % 3.2 C
3767 15-01-2019 10:25:00 4.7 C 89 % 3.05 C
3768 15-01-2019 10:30:00 4.8 C 89 % 3.14 C
3769 15-01-2019 10:35:00 4.9 C 89 % 3.24 C
3770 15-01-2019 10:40:00 4.9 C 89 % 3.24 C
3771 15-01-2019 10:45:00 5 C 89 % 3.34 C
3772 15-01-2019 10:50:00 5.1 C 89 % 3.44 C
3773 15-01-2019 10:55:00 5.1 C 89 % 3.44 C
3774 15-01-2019 11:00:00 5.1 C 89 % 3.44 C
3775 15-01-2019 11:05:00 5.1 C 89 % 3.44 C
Sensor: Nr:Datum:Temp:Feuchte:Taupunkt:
Aussen-T/F 3776 15-01-2019 11:10:00 5.2 C 89 % 3.54 C
3777 15-01-2019 11:15:00 5.2 C 89 % 3.54 C
3778 15-01-2019 11:20:00 5.3 C 89 % 3.64 C
3779 15-01-2019 11:25:00 5.3 C 89 % 3.64 C
3780 15-01-2019 11:30:00 5.4 C 89 % 3.74 C
3781 15-01-2019 11:35:00 5.4 C 89 % 3.74 C
3782 15-01-2019 11:40:00 5.5 C 89 % 3.84 C
3783 15-01-2019 11:45:00 5.5 C 88 % 3.67 C
3784 15-01-2019 11:50:00 5.6 C 88 % 3.77 C
3785 15-01-2019 11:55:00 5.6 C 88 % 3.77 C
3786 15-01-2019 12:00:00 5.7 C 88 % 3.87 C
3787 15-01-2019 12:05:00 5.8 C 88 % 3.97 C
3788 15-01-2019 12:10:00 5.8 C 88 % 3.97 C
3789 15-01-2019 12:15:00 5.9 C 87 % 3.91 C
3790 15-01-2019 12:20:00 5.9 C 87 % 3.91 C
3791 15-01-2019 12:25:00 6 C 87 % 4 C
3792 15-01-2019 12:30:00 6.1 C 87 % 4.1 C
3793 15-01-2019 12:35:00 6.1 C 87 % 4.1 C
3794 15-01-2019 12:40:00 6.2 C 87 % 4.2 C
3795 15-01-2019 12:45:00 6.3 C 87 % 4.3 C
3796 15-01-2019 12:50:00 6.3 C 86 % 4.14 C
3797 15-01-2019 12:55:00 6.4 C 85 % 4.07 C
3798 15-01-2019 13:00:00 6.5 C 85 % 4.17 C
3799 15-01-2019 13:05:00 6.6 C 86 % 4.43 C
3800 15-01-2019 13:10:00 6.6 C 85 % 4.26 C
Sensor: Nr:Datum:Temp:Feuchte:Taupunkt:
Aussen-T/F 3801 15-01-2019 13:15:00 6.6 C 85 % 4.26 C
3802 15-01-2019 13:20:00 6.6 C 85 % 4.26 C
3803 15-01-2019 13:25:00 6.6 C 85 % 4.26 C
3804 15-01-2019 13:30:00 6.6 C 85 % 4.26 C
3805 15-01-2019 13:35:00 6.7 C 84 % 4.19 C
3806 15-01-2019 13:40:00 6.7 C 84 % 4.19 C
3807 15-01-2019 13:45:00 6.8 C 84 % 4.29 C
3808 15-01-2019 13:50:00 6.8 C 84 % 4.29 C
3809 15-01-2019 13:55:00 6.8 C 83 % 4.12 C
3810 15-01-2019 14:00:00 6.8 C 84 % 4.29 C
3811 15-01-2019 14:05:00 6.8 C 84 % 4.29 C
3812 15-01-2019 14:10:00 6.8 C 84 % 4.29 C
3813 15-01-2019 14:15:00 6.8 C 83 % 4.12 C
3814 15-01-2019 14:20:00 6.8 C 83 % 4.12 C
3815 15-01-2019 14:25:00 6.8 C 84 % 4.29 C
3816 15-01-2019 14:30:00 6.8 C 84 % 4.29 C
3817 15-01-2019 14:35:00 6.8 C 84 % 4.29 C
3818 15-01-2019 14:40:00 6.8 C 84 % 4.29 C
3819 15-01-2019 14:45:00 6.8 C 84 % 4.29 C
3820 15-01-2019 14:50:00 6.8 C 84 % 4.29 C
3821 15-01-2019 14:55:00 6.7 C 84 % 4.19 C
3822 15-01-2019 15:00:00 6.7 C 84 % 4.19 C
3823 15-01-2019 15:05:00 6.7 C 84 % 4.19 C
3824 15-01-2019 15:10:00 6.7 C 84 % 4.19 C
3825 15-01-2019 15:15:00 6.7 C 85 % 4.36 C
Sensor: Nr:Datum:Temp:Feuchte:Taupunkt:
Aussen-T/F 3826 15-01-2019 15:20:00 6.7 C 84 % 4.19 C
3827 15-01-2019 15:25:00 6.7 C 84 % 4.19 C
3828 15-01-2019 15:30:00 6.7 C 84 % 4.19 C
3829 15-01-2019 15:35:00 6.7 C 84 % 4.19 C
3830 15-01-2019 15:40:00 6.7 C 84 % 4.19 C
3831 15-01-2019 15:45:00 6.7 C 84 % 4.19 C
3832 15-01-2019 15:50:00 6.6 C 84 % 4.1 C
3833 15-01-2019 15:55:00 6.6 C 84 % 4.1 C
3834 15-01-2019 16:00:00 6.6 C 84 % 4.1 C
3835 15-01-2019 16:05:00 6.6 C 84 % 4.1 C
3836 15-01-2019 16:10:00 6.6 C 84 % 4.1 C
3837 15-01-2019 16:15:00 6.6 C 84 % 4.1 C
3838 15-01-2019 16:20:00 6.5 C 85 % 4.17 C
3839 15-01-2019 16:25:00 6.5 C 85 % 4.17 C
3840 15-01-2019 16:30:00 6.4 C 85 % 4.07 C
3841 15-01-2019 16:35:00 6.4 C 85 % 4.07 C
3842 15-01-2019 16:40:00 6.4 C 85 % 4.07 C
3843 15-01-2019 16:45:00 6.4 C 86 % 4.23 C
3844 15-01-2019 16:50:00 6.4 C 86 % 4.23 C
3845 15-01-2019 16:55:00 6.3 C 86 % 4.14 C
3846 15-01-2019 17:00:00 6.3 C 86 % 4.14 C
3847 15-01-2019 17:05:00 6.3 C 86 % 4.14 C
3848 15-01-2019 17:10:00 6.3 C 86 % 4.14 C
3849 15-01-2019 17:15:00 6.3 C 86 % 4.14 C
3850 15-01-2019 17:20:00 6.3 C 86 % 4.14 C
Sensor: Nr:Datum:Temp:Feuchte:Taupunkt:
Aussen-T/F 3851 15-01-2019 17:25:00 6.3 C 86 % 4.14 C
3852 15-01-2019 17:30:00 6.3 C 85 % 3.97 C
3853 15-01-2019 17:35:00 6.4 C 85 % 4.07 C
3854 15-01-2019 17:40:00 6.4 C 84 % 3.9 C
3855 15-01-2019 17:45:00 6.5 C 84 % 4 C
3856 15-01-2019 17:50:00 6.6 C 83 % 3.92 C
3857 15-01-2019 17:55:00 6.6 C 83 % 3.92 C
3858 15-01-2019 18:00:00 6.6 C 83 % 3.92 C
3859 15-01-2019 18:05:00 6.7 C 83 % 4.02 C
3860 15-01-2019 18:10:00 6.7 C 83 % 4.02 C
3861 15-01-2019 18:15:00 6.7 C 83 % 4.02 C
3862 15-01-2019 18:20:00 6.7 C 83 % 4.02 C
3863 15-01-2019 18:25:00 6.7 C 83 % 4.02 C
3864 15-01-2019 18:30:00 6.7 C 83 % 4.02 C
3865 15-01-2019 18:35:00 6.6 C 83 % 3.92 C
3866 15-01-2019 18:40:00 6.6 C 83 % 3.92 C
3867 15-01-2019 18:45:00 6.6 C 83 % 3.92 C
3868 15-01-2019 18:50:00 6.6 C 84 % 4.1 C
3869 15-01-2019 18:55:00 6.6 C 85 % 4.26 C
3870 15-01-2019 19:00:00 6.5 C 85 % 4.17 C
3871 15-01-2019 19:05:00 6.4 C 85 % 4.07 C
3872 15-01-2019 19:10:00 6.3 C 85 % 3.97 C
3873 15-01-2019 19:15:00 6.3 C 85 % 3.97 C
3874 15-01-2019 19:20:00 6.3 C 86 % 4.14 C
3875 15-01-2019 19:25:00 6.3 C 86 % 4.14 C
Sensor: Nr:Datum:Temp:Feuchte:Taupunkt:
Aussen-T/F 3876 15-01-2019 19:30:00 6.2 C 86 % 4.04 C
3877 15-01-2019 19:35:00 6.2 C 87 % 4.2 C
3878 15-01-2019 19:40:00 6.2 C 87 % 4.2 C
3879 15-01-2019 19:45:00 6.1 C 88 % 4.27 C
3880 15-01-2019 19:50:00 6.1 C 89 % 4.43 C
3881 15-01-2019 19:55:00 6 C 89 % 4.33 C
3882 15-01-2019 20:00:00 5.9 C 89 % 4.23 C
3883 15-01-2019 20:05:00 5.8 C 90 % 4.29 C
3884 15-01-2019 20:10:00 5.8 C 90 % 4.29 C
3885 15-01-2019 20:15:00 5.8 C 90 % 4.29 C
3886 15-01-2019 20:20:00 5.7 C 91 % 4.35 C
3887 15-01-2019 20:25:00 5.7 C 91 % 4.35 C
3888 15-01-2019 20:30:00 5.6 C 91 % 4.25 C
3889 15-01-2019 20:35:00 5.6 C 91 % 4.25 C
3890 15-01-2019 20:40:00 5.6 C 91 % 4.25 C
3891 15-01-2019 20:45:00 5.6 C 92 % 4.41 C
3892 15-01-2019 20:50:00 5.5 C 92 % 4.31 C
3893 15-01-2019 20:55:00 5.5 C 91 % 4.15 C
3894 15-01-2019 21:00:00 5.5 C 91 % 4.15 C
3895 15-01-2019 21:05:00 5.4 C 91 % 4.05 C
3896 15-01-2019 21:10:00 5.4 C 92 % 4.21 C
3897 15-01-2019 21:15:00 5.4 C 92 % 4.21 C
3898 15-01-2019 21:20:00 5.4 C 92 % 4.21 C
3899 15-01-2019 21:25:00 5.4 C 92 % 4.21 C
3900 15-01-2019 21:30:00 5.3 C 92 % 4.11 C
Sensor: Nr:Datum:Temp:Feuchte:Taupunkt:
Aussen-T/F 3901 15-01-2019 21:35:00 5.3 C 92 % 4.11 C